[[{"header":{"parameterUnit":"m.s-1","parameterCategory":1,"la1":30.6,"la2":29.2853,"lo1":-89.7004,"lo2":-87.6739,"dy":0.0162,"dx":0.0183,"nx":112,"ny":82,"refTime":"2023-04-24T06:00:00:Z","depth":0,"parameterNumber":2,"parameterNumberName":"U-component_of_WINDS"},"data":[0.0,0.0,0.0,0.0,0.0,0.0,0.0,0.0,0.0,0.0,0.0,0.0,0.0,0.0,0.0,0.0,0.0,0.0,0.0,0.0,0.0,0.0,0.0,0.0,0.0,0.0,0.0,0.0,0.0,0.0,0.0,0.0,0.0,0.0,0.0,0.0,0.0,0.0,0.0,0.0,0.0,0.0,0.0,0.0,0.0,0.0,0.0,0.0,0.0,0.0,0.0,0.0,0.0,0.0,0.0,0.0,0.0,0.0,0.0,0.0,0.0,0.0,0.0,0.0,0.0,0.0,0.0,0.0,0.0,0.0,0.0,0.0,0.0,0.0,0.0,0.0,0.0,0.0,0.0,0.0,0.0,0.0,0.0,0.0,0.0,0.0,0.0,0.0,0.0,0.0,0.0,7.0865,7.9938,8.4168,8.073,7.7631,7.128,6.058,0.0,0.0,0.0,0.0,0.0,0.0,0.0,0.0,0.0,0.0,0.0,0.0,0.0,0.0,0.0,0.0,0.0,0.0,0.0,0.0,0.0,0.0,0.0,0.0,0.0,0.0,0.0,0.0,0.0,0.0,0.0,0.0,0.0,0.0,0.0,0.0,0.0,0.0,0.0,0.0,0.0,0.0,0.0,0.0,0.0,0.0,0.0,0.0,0.0,0.0,0.0,0.0,0.0,0.0,0.0,0.0,0.0,0.0,0.0,0.0,0.0,0.0,0.0,0.0,0.0,0.0,0.0,0.0,0.0,0.0,0.0,0.0,0.0,0.0,0.0,0.0,0.0,0.0,0.0,0.0,0.0,0.0,0.0,0.0,0.0,0.0,0.0,0.0,0.0,0.0,0.0,0.0,0.0,0.0,0.0,0.0,0.0,0.0,0.0,0.0,0.0,0.0,0.0,0.0,6.5925,7.677,8.1817,8.3036,7.9554,7.3399,6.7817,6.3308,0.0,0.0,0.0,0.0,0.0,0.0,0.0,0.0,0.0,0.0,0.0,0.0,0.0,0.0,0.0,0.0,0.0,0.0,0.0,0.0,0.0,0.0,0.0,0.0,0.0,0.0,0.0,0.0,0.0,0.0,0.0,0.0,0.0,0.0,0.0,0.0,0.0,0.0,0.0,0.0,0.0,0.0,0.0,0.0,0.0,0.0,0.0,0.0,0.0,0.0,0.0,0.0,0.0,0.0,0.0,0.0,0.0,0.0,0.0,0.0,0.0,0.0,0.0,0.0,0.0,0.0,0.0,0.0,0.0,0.0,0.0,0.0,0.0,0.0,0.0,0.0,0.0,0.0,0.0,0.0,0.0,0.0,0.0,0.0,0.0,0.0,0.0,0.0,0.0,0.0,0.0,0.0,0.0,0.0,0.0,0.0,0.0,0.0,0.0,0.0,0.0,0.0,0.0,6.3656,7.0015,8.0731,8.3099,8.2506,7.9129,7.3197,6.7222,6.1515,5.7682,0.0,0.0,0.0,0.0,0.0,0.0,0.0,0.0,0.0,0.0,0.0,0.0,0.0,0.0,0.0,0.0,0.0,0.0,0.0,0.0,0.0,0.0,0.0,0.0,0.0,0.0,0.0,0.0,0.0,0.0,0.0,0.0,0.0,0.0,0.0,0.0,0.0,0.0,0.0,0.0,0.0,0.0,0.0,0.0,0.0,0.0,0.0,0.0,0.0,0.0,0.0,0.0,0.0,0.0,0.0,0.0,0.0,0.0,0.0,0.0,0.0,0.0,0.0,0.0,0.0,0.0,0.0,0.0,0.0,0.0,0.0,0.0,0.0,0.0,0.0,0.0,0.0,0.0,0.0,0.0,0.0,0.0,0.0,0.0,0.0,0.0,0.0,0.0,0.0,0.0,0.0,0.0,0.0,0.0,0.0,0.0,0.0,0.0,0.0,0.0,0.0,0.0,6.9968,7.4957,8.2489,8.3231,8.18,7.8266,7.259,6.6409,5.9942,5.5196,0.0,0.0,0.0,0.0,0.0,0.0,0.0,0.0,0.0,0.0,0.0,0.0,0.0,0.0,0.0,0.0,0.0,0.0,0.0,0.0,0.0,0.0,0.0,0.0,0.0,0.0,0.0,0.0,0.0,0.0,0.0,0.0,0.0,0.0,0.0,0.0,0.0,0.0,0.0,0.0,0.0,0.0,0.0,0.0,0.0,0.0,0.0,0.0,0.0,0.0,0.0,0.0,0.0,0.0,0.0,0.0,0.0,0.0,0.0,0.0,0.0,0.0,0.0,0.0,0.0,0.0,0.0,0.0,0.0,0.0,0.0,0.0,0.0,0.0,0.0,0.0,0.0,0.0,0.0,0.0,0.0,0.0,0.0,0.0,0.0,0.0,0.0,0.0,0.0,0.0,0.0,0.0,0.0,0.0,0.0,0.0,0.0,0.0,0.0,0.0,0.0,0.0,7.3564,7.9971,8.0862,8.1632,8.042,7.6242,6.9034,6.3674,6.1183,5.419,0.0,0.0,0.0,0.0,0.0,0.0,0.0,0.0,0.0,0.0,0.0,0.0,0.0,0.0,0.0,0.0,0.0,0.0,0.0,0.0,0.0,0.0,0.0,0.0,0.0,0.0,0.0,0.0,0.0,0.0,0.0,0.0,0.0,0.0,0.0,0.0,0.0,0.0,0.0,0.0,0.0,0.0,0.0,0.0,0.0,0.0,0.0,0.0,0.0,0.0,0.0,0.0,0.0,0.0,0.0,0.0,0.0,0.0,0.0,0.0,0.0,0.0,0.0,0.0,0.0,0.0,0.0,0.0,0.0,0.0,0.0,0.0,0.0,0.0,0.0,0.0,0.0,0.0,0.0,0.0,0.0,0.0,0.0,0.0,0.0,0.0,0.0,0.0,0.0,0.0,0.0,0.0,0.0,0.0,0.0,0.0,0.0,0.0,0.0,0.0,0.0,0.0,7.0963,7.6508,0.0,8.071,7.8968,7.596,7.0064,6.5051,6.1484,0.0,0.0,0.0,0.0,0.0,0.0,0.0,0.0,0.0,0.0,0.0,0.0,0.0,0.0,0.0,0.0,0.0,0.0,0.0,0.0,0.0,0.0,0.0,0.0,0.0,0.0,0.0,0.0,0.0,0.0,0.0,0.0,0.0,0.0,0.0,0.0,0.0,0.0,0.0,0.0,0.0,0.0,0.0,0.0,0.0,0.0,0.0,0.0,0.0,0.0,0.0,0.0,0.0,0.0,0.0,0.0,0.0,0.0,0.0,0.0,0.0,0.0,0.0,0.0,0.0,0.0,0.0,0.0,0.0,0.0,0.0,0.0,0.0,0.0,0.0,0.0,0.0,0.0,0.0,0.0,0.0,0.0,0.0,0.0,0.0,0.0,0.0,0.0,0.0,0.0,0.0,0.0,0.0,0.0,0.0,0.0,0.0,0.0,0.0,0.0,0.0,0.0,6.5034,7.0387,7.561,0.0,8.0009,7.8179,7.5879,6.9783,6.47,6.1521,0.0,0.0,0.0,0.0,0.0,0.0,0.0,0.0,0.0,0.0,0.0,0.0,0.0,0.0,0.0,0.0,0.0,0.0,0.0,0.0,0.0,0.0,0.0,0.0,0.0,0.0,0.0,0.0,0.0,0.0,0.0,0.0,0.0,0.0,0.0,0.0,0.0,0.0,0.0,0.0,0.0,0.0,0.0,0.0,0.0,0.0,0.0,0.0,0.0,0.0,0.0,0.0,0.0,0.0,0.0,0.0,0.0,0.0,0.0,0.0,0.0,0.0,0.0,0.0,0.0,0.0,0.0,0.0,0.0,0.0,0.0,0.0,0.0,0.0,0.0,0.0,0.0,0.0,0.0,0.0,0.0,0.0,0.0,0.0,0.0,0.0,0.0,0.0,0.0,0.0,0.0,0.0,0.0,0.0,0.0,0.0,0.0,0.0,0.0,0.0,0.0,0.0,6.5128,7.3058,7.8844,8.0064,7.9532,7.8179,7.5879,6.7366,6.1897,0.0,0.0,0.0,0.0,0.0,0.0,0.0,0.0,0.0,0.0,0.0,0.0,0.0,0.0,0.0,0.0,0.0,0.0,0.0,0.0,0.0,0.0,0.0,0.0,0.0,0.0,0.0,0.0,0.0,0.0,0.0,0.0,0.0,0.0,0.0,0.0,0.0,0.0,0.0,0.0,0.0,0.0,0.0,0.0,0.0,0.0,0.0,0.0,0.0,0.0,0.0,0.0,0.0,0.0,0.0,0.0,0.0,0.0,0.0,0.0,0.0,0.0,0.0,0.0,0.0,0.0,0.0,0.0,0.0,0.0,0.0,0.0,0.0,0.0,0.0,0.0,0.0,0.0,0.0,0.0,0.0,0.0,0.0,0.0,0.0,0.0,0.0,0.0,0.0,0.0,0.0,0.0,0.0,0.0,0.0,0.0,0.0,0.0,0.0,0.0,0.0,0.0,0.0,0.0,7.2606,7.8294,8.003,7.9058,7.7604,7.5845,6.8901,6.3682,6.1453,0.0,0.0,0.0,0.0,0.0,0.0,0.0,0.0,0.0,0.0,0.0,0.0,0.0,0.0,0.0,0.0,0.0,0.0,0.0,0.0,0.0,0.0,0.0,0.0,0.0,0.0,0.0,0.0,0.0,0.0,0.0,0.0,0.0,0.0,0.0,0.0,0.0,0.0,0.0,0.0,0.0,0.0,0.0,0.0,0.0,0.0,0.0,0.0,0.0,0.0,0.0,0.0,0.0,0.0,0.0,0.0,0.0,0.0,0.0,0.0,0.0,0.0,0.0,0.0,0.0,0.0,0.0,0.0,0.0,0.0,0.0,0.0,0.0,0.0,0.0,0.0,0.0,0.0,0.0,0.0,0.0,0.0,0.0,0.0,0.0,0.0,0.0,0.0,0.0,0.0,0.0,0.0,0.0,0.0,0.0,0.0,0.0,0.0,0.0,0.0,0.0,0.0,6.5228,7.205,7.7475,7.9539,7.845,7.6927,7.5405,6.9113,6.4241,6.1873,0.0,0.0,0.0,0.0,0.0,0.0,0.0,0.0,0.0,0.0,0.0,0.0,0.0,0.0,0.0,0.0,0.0,0.0,0.0,0.0,0.0,0.0,0.0,0.0,0.0,0.0,0.0,0.0,0.0,0.0,0.0,0.0,0.0,0.0,0.0,0.0,0.0,0.0,0.0,0.0,0.0,0.0,0.0,0.0,0.0,0.0,0.0,0.0,0.0,0.0,0.0,0.0,0.0,0.0,0.0,0.0,0.0,0.0,0.0,0.0,0.0,0.0,0.0,0.0,0.0,0.0,0.0,0.0,0.0,0.0,0.0,0.0,0.0,0.0,0.0,0.0,0.0,0.0,0.0,0.0,0.0,0.0,0.0,0.0,0.0,0.0,0.0,0.0,0.0,0.0,0.0,0.0,0.0,0.0,0.0,0.0,0.0,0.0,0.0,0.0,0.0,0.0,6.5186,7.1494,7.6555,7.8864,7.7773,7.6284,7.4728,6.8538,6.4005,6.24,0.0,0.0,0.0,0.0,0.0,0.0,0.0,0.0,0.0,0.0,0.0,0.0,0.0,0.0,0.0,0.0,0.0,0.0,0.0,0.0,0.0,0.0,0.0,0.0,0.0,0.0,0.0,0.0,0.0,0.0,0.0,0.0,0.0,0.0,0.0,0.0,0.0,0.0,0.0,0.0,0.0,0.0,0.0,0.0,0.0,0.0,0.0,0.0,0.0,0.0,0.0,0.0,0.0,0.0,0.0,0.0,0.0,0.0,0.0,0.0,5.1765,0.0,0.0,0.0,0.0,0.0,0.0,0.0,0.0,0.0,0.0,0.0,0.0,0.0,0.0,0.0,0.0,0.0,0.0,0.0,0.0,0.0,0.0,0.0,0.0,0.0,0.0,0.0,0.0,0.0,0.0,0.0,0.0,0.0,0.0,0.0,0.0,0.0,0.0,0.0,0.0,0.0,6.5233,7.1494,7.6555,7.8864,7.7773,7.6284,7.4728,6.8977,6.4343,6.1704,0.0,0.0,0.0,0.0,0.0,0.0,0.0,0.0,0.0,0.0,0.0,0.0,0.0,0.0,0.0,0.0,0.0,0.0,0.0,0.0,0.0,0.0,0.0,0.0,0.0,0.0,0.0,0.0,0.0,0.0,0.0,0.0,0.0,0.0,0.0,0.0,0.0,0.0,0.0,0.0,0.0,0.0,0.0,0.0,0.0,0.0,0.0,0.0,0.0,0.0,0.0,0.0,0.0,0.0,0.0,0.0,0.0,0.0,0.0,0.0,0.0,5.2164,0.0,0.0,0.0,0.0,0.0,0.0,0.0,0.0,0.0,0.0,0.0,0.0,0.0,0.0,0.0,0.0,0.0,0.0,0.0,0.0,0.0,0.0,0.0,0.0,0.0,0.0,0.0,0.0,0.0,0.0,0.0,0.0,0.0,0.0,0.0,0.0,0.0,0.0,0.0,0.0,6.6231,7.1659,7.6048,7.8314,7.6927,7.5337,7.4153,6.9248,6.5121,6.2496,5.7814,0.0,0.0,0.0,0.0,0.0,0.0,0.0,0.0,0.0,0.0,0.0,0.0,0.0,0.0,0.0,0.0,0.0,0.0,0.0,0.0,0.0,0.0,0.0,0.0,0.0,0.0,0.0,0.0,0.0,0.0,0.0,0.0,0.0,0.0,0.0,0.0,0.0,0.0,0.0,0.0,0.0,0.0,0.0,0.0,0.0,0.0,0.0,0.0,0.0,0.0,0.0,0.0,0.0,5.7863,5.8573,6.0366,6.0366,5.952,5.7999,5.7103,5.5716,5.4093,0.0,0.0,0.0,0.0,0.0,0.0,0.0,0.0,0.0,0.0,0.0,0.0,0.0,0.0,0.0,0.0,0.0,0.0,0.0,0.0,0.0,0.0,0.0,0.0,0.0,5.7344,5.6129,0.0,0.0,0.0,0.0,0.0,0.0,0.0,0.0,0.0,0.0,0.0,0.0,6.7201,7.1853,7.5574,7.757,7.5879,7.4255,7.3375,6.9417,6.6047,6.3815,5.9148,5.5818,0.0,0.0,0.0,0.0,0.0,0.0,0.0,0.0,0.0,0.0,0.0,0.0,0.0,0.0,0.0,0.0,0.0,0.0,0.0,0.0,0.0,0.0,0.0,0.0,0.0,0.0,0.0,0.0,0.0,0.0,0.0,0.0,4.4336,4.7278,0.0,0.0,0.0,0.0,0.0,0.0,0.0,0.0,0.0,0.0,0.0,0.0,0.0,0.0,6.1028,6.1704,6.2888,6.4532,6.5087,6.5472,6.5777,6.5777,6.6318,6.7252,6.5831,0.0,5.6359,5.6359,0.0,0.0,0.0,0.0,0.0,0.0,0.0,0.0,0.0,0.0,0.0,0.0,0.0,0.0,0.0,0.0,0.0,0.0,0.0,0.0,0.0,0.0,5.8426,5.8769,5.9716,6.0268,0.0,5.6193,5.3315,5.2232,0.0,0.0,0.0,0.0,0.0,0.0,0.0,0.0,6.6711,7.1988,7.5946,7.6927,7.5574,7.4052,7.2665,6.9586,6.6812,6.458,6.1366,5.8863,5.7374,5.3365,0.0,0.0,0.0,0.0,0.0,0.0,0.0,0.0,0.0,0.0,0.0,0.0,0.0,0.0,0.0,0.0,0.0,0.0,0.0,0.0,0.0,0.0,0.0,0.0,0.0,0.0,0.0,0.0,0.0,4.5737,4.907,4.912,5.1183,5.1572,0.0,0.0,0.0,0.0,0.0,0.0,0.0,0.0,0.0,5.9994,6.0791,6.2381,6.485,6.6859,6.8639,7.0116,7.1244,7.2259,7.3105,7.3105,7.3443,7.4018,7.2935,7.0331,6.6474,6.2293,5.9573,5.7863,0.0,0.0,0.0,0.0,0.0,5.5534,5.6261,5.7013,0.0,0.0,0.0,0.0,0.0,0.0,0.0,0.0,0.0,0.0,0.0,0.0,0.0,6.2479,6.3599,6.4309,6.3917,6.1704,5.866,0.0,5.4025,5.3669,5.303,0.0,0.0,0.0,0.0,0.0,6.9451,7.2969,7.5371,7.6149,7.4525,7.3105,7.2462,7.006,6.7624,6.5358,6.2821,6.0317,5.8001,5.6427,5.5428,0.0,0.0,0.0,0.0,0.0,0.0,0.0,0.0,0.0,0.0,0.0,0.0,0.0,0.0,0.0,0.0,0.0,0.0,0.0,0.0,0.0,0.0,0.0,0.0,0.0,0.0,0.0,0.0,4.9526,5.2435,5.1116,5.4126,5.4905,0.0,0.0,0.0,0.0,0.0,0.0,5.866,6.0366,6.2753,6.5967,6.6779,6.7963,6.9654,7.209,7.395,7.5236,7.6521,7.7807,7.9126,7.9126,7.9126,7.9058,7.8348,7.7266,7.5473,6.8233,6.3781,6.1414,5.9911,5.8795,5.8066,5.8998,5.9336,5.9404,5.996,6.0501,6.0757,5.9505,0.0,5.7229,5.6027,0.0,0.0,0.0,0.0,5.8201,6.0647,6.2271,6.3754,6.5784,6.6981,6.7624,6.7455,6.6677,6.4377,0.0,5.7983,5.7645,5.5818,0.0,0.0,0.0,0.0,6.7163,7.1819,7.368,7.483,7.5371,7.3612,7.2326,7.2124,7.0263,6.8301,6.6393,6.4005,6.1501,5.8881,5.8727,5.778,0.0,0.0,0.0,0.0,0.0,0.0,0.0,0.0,0.0,0.0,0.0,0.0,0.0,0.0,0.0,0.0,0.0,0.0,0.0,0.0,0.0,0.0,0.0,0.0,0.0,0.0,0.0,0.0,0.0,0.0,5.3179,5.7848,0.0,0.0,0.0,0.0,5.5361,5.8761,6.1839,6.4072,6.6271,6.9147,7.2891,7.3713,7.5168,7.7401,7.828,7.9092,7.987,8.0648,8.1426,8.2205,8.2205,8.2205,8.2137,8.1393,8.0615,7.9397,7.2631,6.935,6.8233,6.4627,6.3599,6.4072,6.3443,6.3207,6.3207,6.324,6.3308,6.3545,6.4816,6.5209,6.4329,6.0084,6.075,0.0,0.0,5.9862,6.2835,6.162,6.3402,6.592,6.7421,6.8944,6.9823,6.9147,6.9485,6.8571,0.0,6.2584,6.1839,6.1061,0.0,6.3768,6.3443,6.7671,7.1278,7.2259,7.368,7.4603,7.4637,7.3308,7.2124,7.1391,6.9992,6.8741,6.7827,6.5053,6.2753,6.1197,5.9099,5.822,5.8776,5.46,0.0,0.0,0.0,0.0,0.0,0.0,0.0,0.0,0.0,0.0,0.0,0.0,0.0,0.0,0.0,0.0,0.0,0.0,0.0,0.0,0.0,0.0,0.0,0.0,0.0,0.0,0.0,0.0,6.0351,6.3565,0.0,0.0,6.0486,6.0892,6.2042,6.5155,6.8199,7.0906,7.3646,7.6149,7.8474,8.0175,8.1435,8.2238,8.349,8.4031,8.3795,8.4539,8.5046,8.5317,8.5317,8.5046,8.4539,8.3761,8.3016,8.2069,7.8745,7.5473,7.2394,6.9598,6.8402,6.8233,6.8415,6.882,6.935,7.0308,7.0026,6.8842,6.6495,6.4735,6.328,6.167,6.2256,6.3349,6.2716,6.4381,6.6562,6.7485,6.8876,7.0263,7.1266,7.1921,7.2248,7.1988,7.1751,7.1278,7.0161,6.7015,6.4465,6.4194,6.4005,6.4952,6.8043,7.0534,7.2631,7.4322,7.4965,7.4931,7.3984,7.2563,7.1594,7.1323,6.9958,6.8571,6.7286,6.4864,6.2618,6.0622,5.8829,5.8017,5.8287,5.5784,5.3805,0.0,0.0,0.0,0.0,0.0,0.0,0.0,0.0,0.0,0.0,0.0,0.0,0.0,0.0,0.0,0.0,0.0,0.0,0.0,0.0,0.0,0.0,0.0,0.0,0.0,0.0,6.3971,6.6203,6.8876,6.9553,6.7117,6.6643,6.732,6.9316,7.2225,7.51,7.7816,8.0352,8.2306,8.349,8.5215,8.6027,8.573,8.6771,8.6907,8.6163,8.667,8.6907,8.6907,8.6907,8.6636,8.6129,8.5351,8.4742,8.4167,8.2915,8.0513,7.7367,7.4874,7.3477,7.2902,7.368,7.4231,7.4762,7.5506,7.4593,7.2597,6.9405,6.7341,6.6123,6.5831,6.6474,6.7434,6.8436,6.9586,7.0804,7.2067,7.28,7.3206,7.3466,7.368,7.3781,7.3567,7.3308,7.3308,7.3781,7.0669,6.7793,6.7307,6.6609,6.7197,7.0466,7.1345,7.236,7.4322,7.4593,7.4119,7.2868,7.2124,7.1481,7.0973,6.935,6.7793,6.6508,6.3869,6.1704,6.0148,5.8423,5.7509,5.7509,5.5344,5.3467,5.1979,0.0,0.0,0.0,0.0,0.0,0.0,0.0,0.0,0.0,0.0,0.0,0.0,0.0,0.0,0.0,0.0,0.0,0.0,0.0,0.0,0.0,0.0,0.0,5.7759,6.4519,6.9499,7.0321,7.354,7.4621,7.1761,7.3462,7.5401,7.6956,7.9727,8.2356,8.458,8.6108,8.7292,8.8091,8.8801,8.8835,8.8125,8.8125,8.7753,8.7042,8.7042,8.7042,8.7042,8.7042,8.7008,8.6941,8.6196,8.5885,8.5757,8.4952,8.4234,8.3287,8.0378,7.8788,7.8213,7.8957,7.9203,7.9092,7.8314,7.6589,7.4627,7.3849,7.3601,7.3466,7.2732,7.3544,7.4728,7.4728,7.5236,7.5642,7.4931,7.4705,7.4525,7.3815,7.4187,7.4525,7.3781,7.4187,7.4695,7.4705,7.3544,7.209,7.0601,7.1007,7.1244,7.0534,7.0454,0.0,7.2428,7.2563,7.2259,7.1424,7.2022,7.1853,7.0331,6.8132,6.6508,6.5717,6.211,6.0013,6.0013,5.7881,5.6731,5.6731,5.3162,5.2046,5.3551,0.0,0.0,0.0,0.0,0.0,0.0,0.0,0.0,0.0,0.0,0.0,0.0,0.0,0.0,0.0,0.0,0.0,0.0,0.0,0.0,0.0,0.0,6.321,6.4046,6.8262,7.2097,7.4366,7.5941,7.6584,7.5775,7.7342,7.9007,8.0553,8.2348,8.4477,8.6953,8.7223,8.8271,9.0329,9.0594,9.0865,9.1203,9.0662,9.029,9.0087,9.0087,9.0087,9.0087,9.0087,8.9512,8.8463,8.8288,8.7583,8.6535,8.579,8.5351,8.5005,8.305,8.1832,8.1224,8.1426,8.1468,8.1325,8.004,7.8822,7.7647,7.6386,7.5574,7.5067,7.4864,7.5845,7.7063,7.7063,7.7604,7.8111,7.7942,7.7468,7.6995,7.6792,7.6918,7.6995,7.6816,7.6487,7.642,7.6961,7.6318,7.5337,7.4356,7.483,7.5473,7.5835,7.6318,0.0,7.7232,7.6318,7.4965,7.3071,7.3544,7.2969,7.042,6.8605,6.6846,0.0,6.0858,5.8254,5.7746,5.6089,5.5209,5.5209,5.4194,5.4126,0.0,0.0,0.0,0.0,0.0,0.0,0.0,0.0,0.0,0.0,0.0,0.0,0.0,0.0,0.0,0.0,0.0,0.0,0.0,0.0,0.0,0.0,6.4087,6.9367,7.1405,7.3706,7.612,7.8662,8.0231,8.0833,8.0099,8.1812,8.3048,8.3238,8.5248,8.678,8.7513,8.9716,9.1144,9.1489,9.2912,9.3571,9.3373,9.2624,9.2083,9.1778,9.144,9.1305,9.1305,9.1305,9.0831,0.0,8.9371,8.8598,8.7753,8.667,8.6061,0.0,0.0,0.0,0.0,0.0,8.3152,8.2678,8.1528,8.0445,7.9363,7.8213,7.7705,7.7604,7.7604,7.8653,7.9837,7.9837,8.0141,8.0412,8.0107,7.9464,7.8822,7.8517,7.845,7.8382,7.8068,7.8145,7.8314,7.845,7.8619,0.0,7.7705,7.6927,7.6454,7.6555,7.669,7.6758,7.6758,7.6284,7.5067,7.2834,7.351,7.3071,7.042,6.8199,0.0,0.0,0.0,5.7273,5.5919,5.504,0.0,0.0,0.0,5.3856,5.5243,0.0,0.0,0.0,5.279,5.186,0.0,0.0,0.0,0.0,0.0,0.0,0.0,0.0,0.0,0.0,0.0,0.0,0.0,0.0,0.0,0.0,6.9,7.4174,7.8709,7.9743,8.0618,8.2298,8.4568,8.5335,8.3665,8.5694,8.656,8.5073,8.7697,8.8766,8.7411,0.0,0.0,0.0,0.0,9.6244,9.4958,9.4214,9.3381,9.2466,9.1791,9.1483,9.1483,9.1483,9.1503,9.1474,9.0053,8.9404,8.9106,8.7617,8.6602,8.5824,8.4952,8.4614,8.4614,8.4614,8.4174,8.3524,8.278,0.0,0.0,7.971,7.9904,8.0445,8.0445,8.1426,8.2543,8.2543,8.2543,8.234,8.1596,8.0885,8.0141,7.9397,7.9295,7.916,7.8483,7.9464,8.0242,7.96,8.0513,8.1224,8.0547,7.8145,7.6082,7.5337,7.4661,7.4278,7.4278,7.4695,7.4153,7.1999,0.0,0.0,7.05,6.7646,6.5324,6.3849,6.0148,5.707,5.4938,5.4837,5.4499,5.3754,5.2486,5.2841,5.4837,5.4262,5.5006,5.6867,5.4905,5.4296,0.0,0.0,0.0,0.0,0.0,0.0,0.0,0.0,0.0,0.0,0.0,0.0,0.0,0.0,0.0,6.9093,7.459,7.9192,8.1666,8.2978,8.3049,8.1365,8.2546,8.3137,8.2256,8.4302,8.581,8.5983,8.7083,8.8484,9.0144,9.2006,0.0,9.442,9.6023,9.6751,9.648,9.5736,9.4529,9.2857,0.0,0.0,9.2659,9.2659,9.2843,9.3098,9.2184,9.1102,8.9884,8.8395,8.7347,8.6569,8.5155,8.4614,8.4614,8.4614,8.4512,8.4275,8.3558,8.3084,8.2746,8.2002,8.1866,8.1968,8.1968,8.2577,0.0,8.3287,8.3287,8.3118,8.2374,8.1629,8.0885,8.0175,8.0445,8.0843,8.0708,8.1359,8.1934,8.1799,8.2002,8.2137,8.2002,8.0987,7.9997,7.9228,7.8991,7.8889,7.8889,7.7976,7.669,7.5033,7.51,7.4153,7.1345,6.8876,6.6846,6.5358,6.1197,5.8084,5.6427,5.6359,5.6021,5.5293,5.5581,5.5919,5.6393,5.6833,5.7291,5.7697,5.7257,5.6799,0.0,0.0,0.0,0.0,0.0,0.0,0.0,0.0,0.0,0.0,0.0,5.743,0.0,0.0,7.0513,7.4036,7.8906,8.2756,8.4051,8.5372,8.5462,8.3487,8.4933,8.5615,8.435,8.644,8.7488,8.6572,8.8292,8.9412,8.9337,9.2247,9.3715,9.3291,9.5149,9.5967,9.5605,9.4848,9.4021,9.3079,9.2366,9.2075,9.2043,9.1686,9.1958,9.2674,9.1878,9.1457,9.1169,8.9309,8.8125,8.7347,8.6203,8.5554,8.5148,8.4749,8.4614,8.4478,8.3761,8.349,8.3389,8.2644,8.2644,8.2949,8.2949,8.349,8.4065,8.4065,8.4065,8.3964,8.3599,8.2949,8.2306,8.1934,8.1832,8.1832,8.1832,8.2441,8.2604,8.1424,8.2448,8.3016,8.1431,8.1869,8.2027,8.0919,8.075,8.0479,7.9735,7.8686,7.7401,7.5845,7.5033,7.3849,7.2022,6.9417,6.7252,6.5764,6.2922,6.0757,5.9641,5.8863,5.8287,5.7897,5.7897,5.8084,5.8457,5.8829,5.8998,5.8998,5.8998,5.8626,0.0,0.0,0.0,0.0,0.0,0.0,0.0,0.0,5.3505,5.6335,5.978,6.3264,6.6523,7.1294,7.5762,7.8843,8.2679,8.5581,8.6359,8.7407,8.7736,8.6778,8.8191,8.8692,8.7246,8.8899,8.9294,8.7447,8.9678,9.0301,8.8385,9.2588,9.4051,9.1786,9.4122,9.5053,9.4318,9.3703,9.3199,9.2838,9.1604,9.1001,9.0969,9.027,9.0546,9.1435,9.029,9.0257,9.0802,8.8893,8.7754,8.7151,8.6386,8.5717,8.5197,8.4932,8.4715,8.4512,8.393,8.3727,8.3625,8.3016,8.3253,8.3727,8.3727,8.4133,8.4614,8.4614,8.4614,8.458,8.4411,8.3964,8.3456,8.3321,8.2949,8.2611,8.2611,8.2975,8.2684,8.0812,8.2201,8.2998,8.0794,8.1982,8.2869,8.1705,8.1494,8.1021,7.9701,7.8889,7.7841,7.6318,7.4695,7.324,7.2056,6.9722,6.7692,6.6203,6.5019,6.3903,6.2854,6.1637,6.0858,6.0554,5.9825,5.981,6.0554,6.025,6.025,6.0554,6.0554,6.0148,4.8627,4.7684,0.0,4.8799,4.9449,5.1243,0.0,0.0,6.0874,6.4776,6.8179,7.1261,7.4151,7.7578,8.1031,8.4303,8.624,8.7796,8.9093,8.9393,8.9591,8.9999,8.9316,8.8696,8.8494,8.8716,8.8996,8.9333,8.9687,8.9987,9.0238,9.252,9.3351,9.2429,9.4338,9.5053,9.4318,9.4218,9.3347,9.1682,9.0943,9.0576,9.0507,8.9861,8.9892,9.0319,8.775,8.6274,8.5664,8.489,8.4504,8.4375,8.357,8.3217,8.3363,8.5036,8.5215,8.458,8.4512,8.4478,8.4444,8.4377,8.4411,8.4478,8.4478,8.4512,8.4614,8.4614,8.4614,8.4444,8.3795,8.3558,8.3321,8.2678,8.2949,8.3389,8.3389,8.2841,8.2265,8.2,8.1082,8.0704,8.1771,8.2147,8.2311,8.2267,8.2272,8.1968,8.1156,8.0412,7.9397,7.7874,7.5777,7.3375,7.0691,7.0128,6.9282,6.776,6.7489,6.6474,6.4444,6.4174,6.3463,6.2164,6.1434,6.14,6.2164,6.0757,6.0791,6.2164,6.2164,6.1738,5.075,0.0,0.0,0.0,5.5209,5.7696,6.2121,6.4656,6.7155,7.0839,7.4168,7.7357,8.0418,8.3098,8.5402,0.0,8.8544,8.9471,8.9692,8.998,8.992,8.9023,8.9471,8.983,8.983,8.983,8.992,9.0219,9.0219,9.0339,9.0597,9.1413,9.1679,9.1395,9.2186,9.2437,9.216,9.216,9.1757,9.094,9.0353,8.9836,8.9411,8.8773,8.8507,8.8558,8.7681,8.6842,8.6073,8.5466,8.4955,8.4475,8.3771,8.3227,8.2809,8.2832,8.3231,8.3737,8.3332,8.3811,8.4614,8.4614,8.4614,8.4614,8.4614,8.4614,8.4614,8.4614,8.4614,8.4512,8.4208,8.414,8.4065,8.3734,8.3903,8.3893,8.2953,8.2458,8.1618,7.9709,7.9588,8.0016,8.0677,8.1592,8.2542,8.3522,8.2949,8.2137,8.1418,8.0276,7.8822,7.686,7.5033,7.3274,7.1616,7.1075,7.0567,6.9925,6.9485,6.8808,6.7895,6.7015,6.6034,6.4986,6.4241,6.3802,6.3666,6.3024,6.3057,6.3666,6.3666,6.3734,5.2456,0.0,0.0,5.8112,6.1014,6.3947,6.7627,7.035,7.3103,7.6604,7.9507,8.232,8.5282,8.7137,8.8514,8.9352,9.013,9.0507,9.0249,9.016,8.9441,8.7646,8.8364,8.9042,8.9221,9.0059,9.0597,9.0597,9.0597,9.0597,9.0597,9.0597,9.0597,9.0597,9.0597,9.0597,9.0597,9.0597,9.0597,9.0597,8.998,8.9452,8.8933,8.7885,8.7114,8.668,8.6708,8.6302,8.551,8.4884,8.4287,8.3719,8.3092,8.2495,8.18,8.0418,8.1429,8.3482,8.3248,8.3948,8.4884,8.4681,8.4614,8.4614,8.4614,8.4614,8.4614,8.4614,8.4614,8.4614,8.4614,8.4614,8.4614,8.4614,8.4251,8.3647,8.2458,8.1472,8.0133,7.7741,7.79,7.8722,7.965,8.0766,8.2226,8.4278,8.3524,8.2441,8.1697,8.0141,7.8314,7.6251,7.4864,7.3646,7.2496,7.1921,7.1526,7.1289,7.0804,7.0398,7.0217,6.9113,6.8199,6.7434,6.6677,6.6136,6.5831,6.5425,6.5425,6.5831,6.5595,6.5933,5.2636,0.0,5.6526,6.2331,6.5832,6.9005,7.3586,7.6155,7.8699,8.2611,8.4564,8.615,8.8185,8.9183,9.004,9.1327,9.0986,9.0806,9.1434,8.992,8.8245,8.6908,8.5641,8.5132,0.0,8.8713,9.0597,9.0597,9.0597,9.0597,9.0597,9.0597,9.0597,9.0597,9.0597,9.0597,9.0597,9.0597,9.0597,9.0597,8.998,8.9692,8.9602,8.7656,8.601,8.4701,8.3497,8.2605,8.1908,8.1248,8.0948,8.0858,8.0162,7.9892,7.9712,7.8363,8.0593,8.4415,8.5379,8.573,8.5621,8.485,8.4614,8.4614,8.4614,8.4614,8.4614,8.4614,8.4614,8.4614,8.4614,8.4614,8.4614,8.4614,8.3421,8.2288,8.2198,7.9678,7.7419,7.7322,7.6099,7.6063,7.9251,7.9834,8.0944,8.4116,8.3964,8.3186,8.2475,8.0454,7.8551,7.7029,7.6115,7.4762,7.2597,7.2394,7.2056,7.1323,7.1289,7.0939,7.0251,7.015,6.9755,6.9045,6.8233,6.8199,6.8977,6.7455,6.7523,6.8944,6.8166,6.8233,5.5359,0.0,6.4126,6.8764,7.2235,7.5587,7.9806,8.1931,8.3547,8.5312,8.4983,8.4474,8.4752,8.4633,8.5162,8.7317,8.8634,8.986,9.1416,9.1057,8.9172,8.5192,8.5881,0.0,0.0,0.0,0.0,8.989,9.0399,9.0597,9.0597,9.0597,9.0597,9.0597,9.0597,9.0597,9.0597,9.0597,9.0597,9.0597,8.9531,8.9063,8.9003,8.6928,8.5791,8.5312,8.4444,8.3696,8.3008,8.238,8.1878,8.1392,8.0734,8.0195,7.9892,8.0573,8.1491,8.2396,8.2416,8.3892,8.5682,8.485,8.4614,8.4614,8.4614,8.4614,8.4614,8.4614,8.4614,8.4614,8.4614,8.4614,8.4339,8.3282,8.2572,8.1589,7.9403,7.8092,7.6996,7.5899,7.5282,7.593,7.922,7.9803,8.0885,8.4116,8.3964,8.305,8.1832,8.0581,7.9261,7.7773,7.6454,7.5202,7.3984,7.3409,7.28,7.209,7.2022,7.1718,7.0973,7.0939,7.0567,6.9823,6.9553,6.9316,6.9113,6.8571,6.8605,6.9079,6.8808,6.8842,6.0296,6.5323,7.053,7.4958,7.819,8.1063,8.4085,8.5821,8.6539,8.5791,8.4055,8.226,8.0883,7.9148,7.9387,8.3906,8.5342,8.7137,9.0758,9.0459,8.8514,8.4863,8.5312,8.5043,0.0,0.0,0.0,8.9183,8.992,9.0489,9.0926,9.0717,9.0717,9.0926,9.0717,9.0597,9.0597,9.0597,9.0597,9.0597,8.9801,8.9142,8.8634,8.7347,8.6359,8.5671,8.5252,8.4684,8.3987,8.3367,8.2858,8.238,8.1482,8.0883,8.0582,8.1238,8.1598,8.181,8.2234,8.3673,8.5247,8.5061,8.4817,8.4614,8.4614,8.4614,8.4614,8.4614,8.4614,8.4614,8.4614,8.417,8.3476,8.2458,8.1297,7.9861,7.7772,7.6833,7.6166,7.5078,7.4903,7.5963,7.9251,8.0766,8.223,8.4278,8.42,8.3355,8.1866,8.1054,8.004,7.8551,7.7266,7.6115,7.51,7.4086,7.3172,7.2462,7.2157,7.1785,7.1323,7.1289,7.1075,7.0601,7.0601,7.0364,6.9891,6.9891,6.9891,6.9891,6.9891,6.9891,6.7119,7.1876,7.5677,8.0764,8.3457,8.5192,8.6479,8.7616,8.7437,8.4106,8.1661,7.9267,0.0,0.0,7.3343,8.113,8.1691,8.3397,8.9849,8.8604,8.6689,0.0,0.0,0.0,0.0,0.0,0.0,8.8544,0.0,9.0249,9.1536,9.1016,9.0986,9.1656,9.0986,9.0657,9.0657,9.0627,9.0597,9.0597,9.0567,8.995,8.8723,8.8663,8.7586,8.5791,8.5761,8.5342,8.4654,8.3987,8.3718,8.3508,8.232,8.1781,8.1572,8.0345,8.0836,8.2495,8.452,8.482,8.451,8.5386,8.5229,8.4647,8.4614,8.4614,8.4614,8.4614,8.4526,8.4473,8.4473,8.3282,8.2087,8.1968,7.962,7.735,7.7224,7.5996,7.4963,7.4933,7.4971,7.6033,7.925,8.234,8.4419,8.4587,8.4526,8.3993,8.2618,8.1799,8.0784,7.9304,7.845,7.7367,7.5879,7.4424,7.3297,7.2496,7.1819,7.1357,7.1289,7.1289,7.1289,7.1289,7.1289,7.1289,7.1289,7.1289,7.1289,7.1289,7.1289,7.1289,7.3163,7.8274,8.2499,8.4833,8.618,8.7167,8.7975,8.6189,8.3495,8.0644,7.4958,6.9542,0.0,0.0,0.0,7.61,8.1991,0.0,9.2165,9.1835,0.0,0.0,0.0,8.6659,8.5312,8.624,0.0,0.0,8.9602,9.0249,9.1536,9.1925,9.2165,9.2344,9.1674,9.1345,9.1345,9.0836,9.0597,9.0597,9.013,8.9741,8.9423,8.8394,8.7676,8.7167,8.6659,8.5761,8.4714,8.4534,8.3906,8.3016,8.2687,8.1901,8.1003,8.0674,8.0188,7.9981,8.1766,8.3575,8.4994,8.4151,8.459,8.5384,8.4783,8.4614,8.4614,8.4614,8.3756,8.283,8.283,8.1952,8.0656,7.8941,7.8681,7.8195,7.5974,7.5571,7.5497,7.5023,7.5866,7.7322,7.9435,8.0495,8.182,8.4224,8.3558,8.2888,8.3189,8.2577,8.1562,8.0073,7.8754,7.7604,7.6657,7.5709,7.4593,7.3297,7.3037,7.2462,7.1323,7.1289,7.1289,7.1289,7.1289,7.1289,7.1289,7.1289,7.1289,7.1289,7.1289,7.1289,7.9208,8.3726,8.7137,8.8155,8.8693,8.8394,8.618,8.3038,7.8705,7.1966,6.634,0.0,5.8351,0.0,0.0,0.0,0.0,0.0,9.2374,9.2583,9.1746,0.0,8.989,0.0,8.7975,8.8544,8.9412,0.0,9.0249,9.0788,9.2404,9.2554,9.2613,9.2613,9.1955,9.1434,9.1135,9.0776,9.0597,9.0597,9.0279,8.995,8.9692,8.8903,8.8394,8.8095,0.0,8.6718,8.597,8.5402,8.4714,8.4034,8.3397,8.2739,8.202,8.1452,8.0584,7.9772,8.0457,8.199,8.3574,8.3159,8.398,8.5002,8.4205,8.4205,8.4406,8.4071,8.3037,8.1972,8.1972,8.1049,7.976,7.8478,7.8208,7.7665,7.5768,7.5856,7.6125,7.5467,7.6382,7.7612,7.8534,7.9312,8.0406,8.2198,8.2345,8.2383,8.288,8.2622,8.1832,8.0344,7.916,7.8179,7.7435,7.6352,7.5202,7.4052,7.3375,7.2631,7.1819,7.1458,7.1289,7.1289,7.0699,7.0666,7.1289,7.0699,7.0722,7.1289,7.1289,7.1289,8.4983,8.8245,9.016,9.0597,9.0477,8.8653,8.2739,7.8729,7.3013,6.1642,0.0,5.47,5.2037,5.4999,6.1166,7.1398,0.0,8.4384,9.1835,9.2314,9.2165,9.2913,9.1985,9.1225,9.1135,9.1195,9.1464,9.1985,9.1434,9.1865,9.3481,9.3122,9.2793,9.2613,9.2045,9.1386,9.0597,9.0597,9.0597,9.0597,9.0597,9.0339,8.9842,8.9752,8.9393,8.8783,0.0,0.0,8.7467,8.612,8.5521,8.5312,8.4085,8.3508,8.3299,8.22,8.1302,8.0584,8.0016,8.0345,8.1219,8.2167,8.3208,8.3956,8.3205,8.3464,8.3825,8.3172,8.2234,8.1379,8.1379,8.0222,7.9056,7.8963,7.7988,7.6868,7.6185,7.642,7.6629,7.6125,7.6608,7.7185,7.7412,7.8376,7.9281,7.9742,8.0796,8.1643,8.2009,8.2348,8.2035,8.0648,7.9735,7.8957,7.8213,7.6724,7.554,7.4772,7.3443,7.2665,7.2563,7.1921,7.1492,7.131,7.0097,6.9978,7.1025,6.9778,6.9931,7.131,7.131,7.1334,8.9711,9.1327,9.1985,9.1566,8.983,8.6659,8.0674,7.3462,0.0,0.0,5.102,4.7519,4.8057,5.2725,6.0296,7.1846,7.825,8.4714,0.0,0.0,9.3691,0.0,0.0,0.0,0.0,0.0,0.0,0.0,0.0,9.381,9.3601,9.402,9.375,9.2643,9.2494,9.1865,9.0597,9.0597,9.0597,9.0597,9.0597,9.0537,9.0417,8.992,8.9662,8.9482,8.8215,0.0,8.6748,8.5432,8.4564,8.3957,8.3217,8.2589,8.208,8.1871,8.1003,7.9986,7.9866,7.9575,7.9395,8.0403,8.1786,8.2932,8.2195,8.2066,8.213,8.2002,8.0903,7.9699,7.9699,7.8886,7.7931,7.7359,7.7864,7.813,7.6933,7.6719,7.6749,7.6659,7.6369,7.6543,7.7893,7.6801,7.6665,7.9374,7.8847,7.8904,8.1033,8.2475,8.2983,8.2137,8.0818,7.9701,7.8991,7.7536,7.6352,7.5574,7.4695,7.395,7.3331,7.3172,7.2526,7.1324,7.1079,7.0441,6.9466,6.9232,6.9884,7.1299,7.1299,7.1613,9.0806,9.2613,9.393,9.2913,8.989,8.4714,7.5322,0.0,0.0,0.0,4.3688,4.1893,4.2551,4.9247,0.0,6.4934,7.2355,8.0165,8.8753,9.0279,0.0,0.0,0.0,0.0,0.0,0.0,0.0,0.0,0.0,9.4977,9.4648,9.396,9.3272,9.2613,9.1925,9.1225,9.0597,9.0597,9.0597,9.0597,9.0597,9.0597,9.0597,9.0309,8.998,8.9662,8.8634,0.0,8.7137,8.615,8.5551,8.5162,8.4175,8.3576,8.3187,8.217,8.1153,8.0285,7.9889,7.9357,7.8873,7.937,8.0678,8.1932,8.1206,8.1237,8.1457,8.108,8.004,7.9042,7.9042,7.865,7.825,7.7921,7.8071,7.819,7.7921,7.7287,7.6898,7.7227,7.6779,7.6489,7.6959,7.6142,7.5844,7.7056,7.7288,7.7712,7.8987,8.1267,8.2703,8.2431,8.1426,8.0479,7.9735,7.8686,7.757,7.6386,7.5608,7.483,7.4086,7.2978,7.2014,7.1317,7.0208,6.9468,6.9085,6.8771,6.9521,7.1317,7.1317,7.1721,9.1464,9.3481,9.5187,9.3571,8.9352,8.2447,7.0173,6.1373,0.0,0.0,3.7871,3.7871,3.8859,4.5415,5.263,0.0,6.5772,7.4001,8.3696,8.6599,8.986,0.0,0.0,0.0,0.0,0.0,0.0,0.0,0.0,0.0,9.5396,9.39,9.2913,9.2613,9.1596,9.0866,9.0597,9.0597,9.0597,9.0597,9.0597,9.0597,9.0597,9.0597,9.0279,8.9662,8.9003,0.0,0.0,8.6808,8.6389,8.615,8.4953,8.4414,8.4085,8.2409,8.1362,8.0734,8.0225,7.9477,7.8819,7.8968,7.9819,8.0733,8.0145,8.036,8.0702,8.0145,7.941,7.8789,7.8789,7.8789,7.8789,7.8789,7.84,7.816,7.8669,7.7981,7.7377,7.7921,7.7502,7.6808,7.6215,7.6006,7.5677,7.5023,7.5966,7.6898,7.7257,7.9862,8.1887,8.2315,8.1854,8.1224,8.0479,7.9634,7.8619,7.7435,7.6623,7.5793,7.4873,7.3177,7.1927,7.1279,6.9619,6.8893,6.9083,6.8553,6.942,7.152,7.152,7.2026,9.378,9.4917,9.4977,9.2434,8.6988,7.9267,6.7897,0.0,4.9022,3.9451,3.6104,3.6134,4.0355,4.1882,4.6552,5.8919,6.2151,6.7747,8.119,8.5731,8.9681,9.5037,0.0,0.0,0.0,0.0,0.0,0.0,0.0,0.0,9.4768,9.4528,9.387,9.2643,9.2494,9.1835,9.0597,9.0597,9.0597,9.0597,9.0597,9.0597,9.0597,9.0597,9.0279,8.9662,8.9003,0.0,0.0,8.6299,8.5432,8.4833,8.4077,8.3457,8.2896,8.2118,8.1362,8.0794,8.0734,7.9866,7.8878,7.9507,7.9406,7.9046,7.895,7.9016,7.9011,7.895,7.8873,7.8789,7.8789,7.8789,7.8789,7.8789,7.8729,7.8699,7.8789,7.8699,7.8639,7.8699,7.816,7.7502,7.6808,7.6275,7.5677,7.5023,7.504,7.5628,7.7095,7.8878,8.0585,8.2061,8.2255,8.2002,8.1283,7.9904,7.9034,7.8898,7.8213,7.7128,7.5653,7.5404,7.4025,7.1257,7.1024,7.0279,6.8991,6.8957,7.0092,7.2293,7.2293,7.305,9.1566,9.4738,9.6623,9.3571,8.6958,7.8041,6.6011,0.0,4.683,3.7554,3.4727,3.4578,3.6823,3.8529,4.2073,4.9763,5.2905,5.8677,7.0949,7.5856,8.1482,9.0369,9.411,0.0,0.0,0.0,0.0,0.0,0.0,0.0,9.4678,9.384,9.3152,9.2613,9.1835,9.1135,9.0597,9.0597,9.0597,9.0597,9.0597,9.0597,9.0597,9.0597,9.007,8.9052,8.8813,0.0,0.0,8.6509,8.591,8.5252,8.4564,8.3936,8.3217,8.217,8.1601,8.1332,8.0943,8.0195,7.9447,7.9716,7.9357,7.8789,7.8789,7.8789,7.8789,7.8789,7.8789,7.8789,7.8789,7.8789,7.8878,7.9327,7.9088,7.8789,7.8789,7.8789,7.8789,7.8789,7.8579,7.819,7.7532,7.6868,7.6245,7.5587,7.5172,7.5112,7.5762,7.8155,8.0046,8.0674,8.2123,8.278,8.2035,8.1021,8.004,7.916,7.7941,7.6786,7.574,7.3974,7.2417,7.1216,7.071,6.9995,6.9004,6.9393,7.0587,7.2388,7.2388,7.3181,8.8623,9.3139,9.6114,9.3391,8.5821,7.5976,0.0,0.0,4.4526,3.6464,3.4083,3.3769,3.4637,3.6464,3.911,4.309,4.6702,5.2779,6.3617,6.9213,7.5647,0.0,0.0,0.0,0.0,0.0,0.0,0.0,0.0,0.0,0.0,9.3631,9.2883,9.2883,9.1805,9.1075,9.0896,9.0687,9.0597,9.0597,9.0597,9.0507,9.0339,9.0339,8.9621,8.8394,0.0,0.0,0.0,8.6519,8.6,8.5342,8.4684,8.4025,8.3307,8.22,8.1818,8.1721,8.1242,8.0524,7.9896,8.0285,7.9806,7.9088,7.9088,7.8938,7.8789,7.8789,7.8789,7.8789,7.8789,7.8789,7.8908,7.9387,7.9148,7.8789,7.8789,7.8789,7.8789,7.8789,7.8789,7.8579,7.7921,7.7442,7.6868,7.6275,7.5617,7.5198,7.5198,7.7864,7.9803,7.9802,8.2221,8.3524,8.278,8.2035,8.0875,7.9185,7.8252,7.6922,7.5067,7.3309,7.2089,7.1415,7.0837,7.032,6.9842,7.0111,7.0953,7.2319,7.2803,7.3834,8.5761,9.016,9.2344,9.0956,8.2739,7.2358,0.0,5.1439,4.1874,3.6596,3.4442,3.3903,3.525,3.6058,3.7811,4.1782,4.5744,5.1791,6.1731,6.8764,7.4629,0.0,0.0,0.0,0.0,0.0,0.0,0.0,0.0,0.0,0.0,9.4289,9.3571,9.3571,9.2913,9.2254,9.1626,9.0926,9.0597,9.0597,9.0597,9.0309,8.9722,8.9722,8.9003,0.0,0.0,0.0,0.0,8.597,8.5312,8.4654,8.3957,8.3337,8.2717,8.2058,8.1818,8.1818,8.1818,8.0913,8.0045,8.1332,8.0883,7.977,7.977,7.9327,7.8789,7.8789,7.8789,7.8789,7.8789,7.8789,7.8789,7.8789,7.8789,7.8789,7.8789,7.8789,7.8789,7.8789,7.8789,7.8579,7.7921,7.7801,7.7562,7.6868,7.6305,7.5886,7.5886,7.8176,7.9803,7.9802,8.2684,8.4275,8.3558,8.2813,8.1428,7.9133,7.9628,7.7981,7.3506,7.45,7.411,7.1942,7.1879,7.1909,7.1879,7.1218,7.1301,7.2147,7.3718,7.5337,7.3791,7.7981,8.0225,7.6155,6.9901,6.2689,5.4546,4.751,4.1074,3.531,3.4158,3.4308,3.4727,3.537,3.7853,4.4077,4.6501,5.093,6.0416,0.0,0.0,8.1063,9.053,0.0,0.0,0.0,0.0,0.0,0.0,0.0,0.0,9.4499,9.408,9.3601,9.2494,9.1835,9.1626,9.0926,9.0597,9.0597,9.0597,9.0279,8.9722,8.9722,0.0,0.0,0.0,0.0,0.0,8.6449,8.5701,8.4684,8.4474,8.3726,8.2776,8.2567,8.2477,8.2477,8.2477,8.1639,8.0644,8.1512,8.0584,7.9208,7.9686,7.9656,7.9387,7.8938,7.8789,7.8908,7.9357,7.9148,7.8908,7.9387,7.9118,7.8789,7.8789,7.8789,7.8789,7.8789,7.8789,7.8729,7.8519,7.81,7.7741,7.7532,7.6928,7.6395,7.5946,7.7593,7.8592,7.8154,8.0014,8.1471,8.1824,8.1641,8.0479,7.8132,7.7174,7.6083,7.4687,7.3973,7.3307,7.2595,7.2595,7.2595,7.2595,7.1906,7.2327,7.3779,7.4831,7.6161,6.4366,6.9034,7.1427,6.8375,6.2718,0.0,0.0,4.4187,3.9038,3.507,3.4787,3.5236,3.5236,3.6207,3.8524,4.328,4.5672,4.9823,0.0,0.0,0.0,8.1459,0.0,0.0,0.0,0.0,0.0,0.0,0.0,0.0,0.0,9.4738,9.4289,9.3601,9.2554,9.1985,9.1985,9.1046,9.0597,9.0597,9.0399,8.992,8.9333,8.9052,0.0,0.0,0.0,0.0,0.0,8.615,8.5462,8.4654,8.4175,8.3525,8.2806,8.2806,8.2806,8.2806,8.2806,8.2088,8.1272,8.1968,8.101,7.9627,8.0045,7.9836,7.9387,7.9238,7.8998,7.8998,7.9956,7.9477,7.8968,7.9656,7.9297,7.8789,7.8789,7.8789,7.8789,7.8789,7.8789,7.8789,7.8789,7.846,7.819,7.819,7.7622,7.7053,7.6664,7.7579,7.8156,7.7722,7.8942,7.9763,7.9671,8.0233,7.9586,7.7202,7.6369,7.5483,7.441,7.391,7.3552,7.3283,7.3283,7.3283,7.3283,7.2595,7.3315,7.5295,7.5779,7.6875,0.0,6.1852,6.4485,6.4814,5.886,5.1798,4.7459,4.1294,0.0,3.5579,3.5998,3.6553,3.6673,3.8093,3.966,4.0846,0.0,0.0,0.0,6.3287,0.0,0.0,0.0,0.0,0.0,0.0,0.0,0.0,0.0,0.0,0.0,9.4888,9.4229,9.3601,9.2883,9.2524,9.2524,9.1225,9.0597,9.0597,8.998,8.9363,8.8663,8.8005,0.0,0.0,0.0,0.0,0.0,8.5282,8.4714,8.4534,8.3345,8.2836,8.2806,8.2806,8.2806,8.2806,8.2806,8.2357,8.1871,8.2477,8.1848,8.0794,8.0734,7.9836,7.8938,7.9567,7.9327,7.9148,8.0345,7.9776,7.9028,7.9656,7.9327,7.8849,7.8849,7.8849,7.8849,7.8789,7.8789,7.8789,7.8789,7.8789,7.8789,7.8789,7.828,7.7861,7.7801,7.8026,7.8206,7.8144,7.8943,7.8815,7.7257,7.8659,7.8656,7.6327,7.6788,7.5885,7.317,7.424,7.4634,7.3971,7.3971,7.3941,7.3881,7.3283,7.4201,7.6494,7.655,7.7502,4.2203,0.0,4.7997,4.5095,4.2491,4.0247,0.0,3.7345,0.0,0.0,0.0,3.6956,3.8434,3.8255,3.9918,0.0,0.0,0.0,0.0,0.0,0.0,0.0,0.0,0.0,0.0,0.0,0.0,0.0,0.0,9.5366,9.4858,9.4199,9.375,9.3571,9.2464,9.1865,9.1865,9.0986,9.0597,9.0597,8.998,8.9363,8.8663,8.8005,0.0,0.0,0.0,0.0,8.591,8.5581,8.4863,8.3897,8.3636,8.3217,8.2806,8.2806,8.2806,8.2806,8.2806,8.2357,8.1759,8.1392,8.1063,8.0704,8.0195,7.9477,7.8819,7.8998,7.9297,7.9537,7.9327,7.9417,7.9627,7.974,7.9686,7.9567,7.9567,7.9567,7.9417,7.8878,7.8789,7.8789,7.8789,7.8789,7.8789,7.8789,7.8669,7.837,7.7861,7.7405,7.699,7.6508,7.622,7.5896,7.5489,7.6931,7.7129,7.5349,7.5365,7.5166,7.4454,7.4753,7.4843,7.4693,7.4663,7.439,7.3881,7.3732,7.4317,7.5558,7.6839,7.8265,3.5699,3.8512,4.1055,3.8853,3.7853,3.7122,3.6178,3.5998,3.5745,0.0,0.0,3.7135,3.7943,3.896,0.0,0.0,0.0,0.0,0.0,0.0,0.0,0.0,0.0,0.0,0.0,0.0,0.0,0.0,0.0,9.4858,9.4169,9.378,9.3302,9.2703,9.1985,9.1626,9.1626,9.0926,9.0447,9.019,8.9531,8.8873,8.8215,8.7556,8.7018,0.0,0.0,0.0,8.5671,8.5372,8.4654,8.3658,8.3397,8.3068,8.2806,8.2806,8.2806,8.2806,8.2806,8.2567,8.2208,8.1848,8.1512,8.1123,8.0464,8.0016,7.9716,7.9716,7.9776,7.9926,8.0464,8.0434,8.0345,8.0644,8.0494,8.0195,7.9896,7.977,7.9627,7.8938,7.8789,7.8789,7.8789,7.8789,7.8789,7.8789,7.8789,7.8669,7.831,7.7682,7.7023,7.6395,7.5736,7.5228,7.4933,7.5695,7.5829,7.4971,7.4903,7.4903,7.4903,7.4903,7.4903,7.4903,7.4903,7.4723,7.436,7.436,7.4816,7.5676,7.6588,7.8101,3.4069,3.6477,3.8973,3.8464,3.8153,3.7674,3.6596,3.6058,3.5609,0.0,0.0,3.7644,3.7943,4.0894,0.0,0.0,0.0,0.0,0.0,0.0,0.0,0.0,0.0,0.0,0.0,0.0,0.0,0.0,0.0,9.4139,9.3451,9.3332,9.2763,9.1656,9.1506,9.1416,9.1327,9.0836,9.0309,8.9692,8.8993,8.8334,8.7676,8.6988,8.6728,0.0,0.0,0.0,8.5492,8.4833,8.4136,8.3517,8.3016,8.2806,8.2806,8.2806,8.2806,8.2806,8.2806,8.2806,8.2806,8.2806,8.2357,8.1661,8.1003,8.0794,8.0794,8.0794,8.0464,8.0464,8.2088,8.1759,8.1093,8.1631,8.1362,8.0764,8.0105,7.9956,7.9776,7.9088,7.8849,7.8819,7.8938,7.8849,7.8789,7.8789,7.8789,7.8789,7.8789,7.822,7.7592,7.6988,7.6335,7.5677,7.5113,7.4963,7.4903,7.4903,7.4903,7.4903,7.4903,7.4903,7.4903,7.4903,7.4903,7.4903,7.4903,7.4903,7.5288,7.6001,7.6229,7.7522,3.5775,3.6866,3.7028,3.4247,3.4755,3.5908,3.5699,3.6417,3.6926,3.6314,0.0,0.0,0.0,4.6232,0.0,0.0,0.0,0.0,0.0,0.0,0.0,0.0,0.0,0.0,0.0,0.0,0.0,0.0,0.0,0.0,9.2793,9.2224,9.1835,9.1626,9.1046,9.0519,9.0021,9.0429,9.0309,8.9692,8.8993,8.8334,8.7676,8.6988,8.6728,0.0,0.0,8.5462,8.4803,8.4106,8.3487,8.2926,8.2836,8.2806,8.2806,8.2806,8.2806,8.2806,8.2806,8.2806,8.2806,8.2806,8.2357,8.1661,8.1003,8.0794,8.0794,8.0794,8.1123,8.1422,8.1153,8.1362,8.1661,8.1789,8.1691,8.1452,8.0794,8.0644,8.0464,7.9806,7.9178,7.8968,7.9567,7.9178,7.8789,7.8789,7.8789,7.8789,7.8789,7.822,7.7771,7.7682,7.6604,7.5856,7.5766,7.5232,7.4903,7.4903,7.4903,7.4903,7.4903,7.4903,7.4903,7.4903,7.4903,7.4903,7.4903,7.4903,7.498,7.5132,7.6513,7.733,3.5699,3.6178,3.6716,3.8063,3.908,3.9589,3.8841,3.914,3.9469,0.0,0.0,0.0,0.0,0.0,0.0,0.0,0.0,0.0,0.0,0.0,0.0,0.0,0.0,0.0,0.0,0.0,0.0,0.0,0.0,0.0,9.2135,9.1776,9.1404,9.1046,9.0746,9.0339,8.9722,8.998,8.9591,8.8604,8.8304,8.7796,8.7137,8.6449,8.615,8.612,0.0,8.4803,8.4136,8.4196,8.3876,8.3277,8.3277,8.3277,8.3247,8.2926,8.2806,8.2806,8.2806,8.2806,8.2806,8.2806,8.2597,8.2148,8.1093,8.1302,8.1759,8.1003,8.1272,8.1781,8.1878,8.2118,8.2357,8.2357,8.2357,8.2178,8.1482,8.1332,8.1123,8.0464,7.9806,7.9447,7.9776,7.9238,7.8789,7.8789,7.8789,7.8789,7.8789,7.8519,7.819,7.7861,7.6963,7.6275,7.5946,7.5288,7.4903,7.4903,7.4903,7.4903,7.4903,7.4903,7.4903,7.4903,7.4903,7.4903,7.4903,7.4903,7.4903,7.4903,7.5661,7.6469,3.5878,3.6178,3.7315,4.2002,4.3169,4.3379,4.4217,4.4157,4.4127,0.0,0.0,0.0,0.0,0.0,0.0,0.0,0.0,0.0,0.0,0.0,0.0,0.0,0.0,0.0,0.0,0.0,0.0,0.0,0.0,0.0,9.1446,9.1237,9.0938,9.0429,9.0208,8.986,8.9243,8.9243,8.8693,8.7706,8.7706,8.7347,8.6698,8.6,8.5701,8.5641,8.4833,8.4256,8.3927,8.4175,8.4055,8.3688,8.3508,8.3517,8.3427,8.2986,8.2806,8.2776,8.2627,8.2657,8.2776,8.2627,8.2567,8.2357,8.1153,8.1512,8.2118,8.1093,8.1272,8.1968,8.2627,8.2806,8.2806,8.2806,8.2806,8.2627,8.1931,8.1818,8.1631,8.1123,8.0375,7.9829,8.0016,7.9357,7.8789,7.8789,7.8789,7.8789,7.8789,7.8789,7.8579,7.81,7.7407,7.6719,7.5976,7.5437,7.5083,7.4933,7.4903,7.4903,7.4903,7.4903,7.4903,7.4903,7.4903,7.4903,7.4903,7.4903,7.4903,7.4903,7.4903,7.5557,3.7511,3.8182,3.8888,4.1752,4.247,4.4367,5.1618,5.2306,5.2127,5.4606,0.0,0.0,0.0,0.0,0.0,0.0,0.0,0.0,0.0,0.0,0.0,0.0,0.0,0.0,0.0,0.0,0.0,0.0,0.0,0.0,9.0717,9.013,8.9812,8.9782,8.9142,8.8514,8.7856,8.7856,8.7796,8.7706,8.7706,8.7347,8.6698,8.6,8.5701,8.5611,8.4316,8.4077,8.4564,8.3405,8.3217,8.3628,8.3068,8.2866,8.2866,8.2806,8.2806,8.2717,8.2088,8.2297,8.2687,8.2088,8.1841,8.1759,8.1003,8.0853,8.0913,8.0823,8.1272,8.1968,8.2627,8.2806,8.2806,8.2806,8.2806,8.2627,8.1931,8.1818,8.1818,8.1759,8.0674,8.0016,8.0614,7.9656,7.8789,7.8789,7.8789,7.8789,7.8789,7.8789,7.8759,7.8729,7.813,7.7233,7.6006,7.5856,7.5557,7.4963,7.4903,7.4903,7.4903,7.4903,7.4903,7.4903,7.4903,7.4903,7.4903,7.4903,7.4903,7.4903,7.4903,7.4971,3.793,4.0187,4.309,4.7399,4.8798,4.9905,5.2899,5.5388,5.7962,6.1044,6.2181,0.0,0.0,0.0,0.0,0.0,0.0,0.0,0.0,0.0,0.0,0.0,0.0,0.0,0.0,0.0,0.0,0.0,0.0,0.0,0.0,9.001,8.9722,8.9722,8.9063,8.8364,8.7706,8.7706,8.7287,8.6449,8.6449,8.6299,8.603,8.4953,8.4435,8.4414,8.3517,8.3277,8.3487,8.3397,8.3517,8.3688,8.3457,8.3128,8.2806,8.2806,8.2806,8.2687,8.2058,8.1968,8.2088,8.1392,8.1452,8.1572,8.0524,8.0764,8.1242,8.0405,8.0674,8.1422,8.2507,8.2806,8.2806,8.2806,8.2806,8.2717,8.2477,8.2417,8.2417,8.2417,8.1661,8.1123,8.1362,8.0644,7.9896,7.9477,7.9417,7.9267,7.8849,7.8789,7.8789,7.8789,7.7831,7.6844,7.5976,7.5527,7.5172,7.4933,7.4903,7.4903,7.4903,7.4903,7.4903,7.4903,7.4903,7.4903,7.4903,7.4903,7.4903,7.4903,7.4903,7.4903,3.7451,4.0217,4.3818,4.8297,5.1947,5.5029,5.736,6.0174,6.3498,6.7836,6.9453,0.0,0.0,0.0,0.0,0.0,0.0,0.0,0.0,0.0,0.0,0.0,0.0,0.0,0.0,0.0,0.0,0.0,0.0,0.0,0.0,8.9501,8.9003,8.8764,8.8095,8.7437,8.6778,8.6748,8.6299,8.5372,8.5162,8.5192,8.5342,8.4196,8.3688,8.3658,8.3038,8.2926,8.3098,8.3337,8.3307,8.3128,8.3337,8.3038,8.2507,8.2717,8.2657,8.2387,8.1729,8.1482,8.1392,8.0943,8.0973,8.1033,8.0345,8.0464,8.0704,8.0016,8.0135,8.0794,8.2148,8.2477,8.2537,8.2747,8.2806,8.2806,8.2806,8.2806,8.2806,8.2806,8.2088,8.1542,8.1751,8.0883,8.0075,7.9866,7.9627,7.9327,7.8849,7.8789,7.8789,7.8789,7.7981,7.7203,7.6544,7.6066,7.5617,7.5228,7.5232,7.5108,7.4933,7.4903,7.4903,7.4903,7.4903,7.4903,7.4903,7.5078,7.5232,7.5198,7.5407,7.5377,3.6194,3.8003,4.0139,4.2781,5.0345,5.9102,6.6401,6.7537,6.8882,7.5458,7.7885,7.8001,0.0,0.0,0.0,0.0,0.0,0.0,0.0,0.0,0.0,0.0,0.0,0.0,0.0,0.0,0.0,0.0,0.0,0.0,0.0,8.8394,8.7377,8.6728,8.603,8.5372,8.4714,8.4714,8.4714,8.4684,8.3987,8.4017,8.4684,8.3987,8.3688,8.3658,8.3038,8.3128,8.3628,8.3046,8.2417,8.1841,8.2537,8.2387,8.1908,8.2537,8.2357,8.1691,8.1033,8.0794,8.0794,8.0794,8.0345,7.9889,8.0584,7.9866,7.8938,7.9627,7.977,8.0105,8.1422,8.1818,8.1968,8.2627,8.2806,8.2806,8.2806,8.2806,8.2806,8.2776,8.1729,8.1003,8.1661,8.0135,7.9028,7.9716,7.9238,7.8789,7.8789,7.8789,7.8789,7.8789,7.8789,7.8519,7.7861,7.7801,7.7263,7.6006,7.5916,7.5617,7.4933,7.4903,7.4903,7.4903,7.4933,7.4933,7.4933,7.5587,7.5916,7.5916,7.6509,7.645,3.9966,4.4077,0.0,5.2247,5.7876,0.0,0.0,7.1297,7.1474,0.0,7.9257,8.0863,0.0,0.0,0.0,0.0,0.0,0.0,0.0,0.0,0.0,0.0,0.0,0.0,0.0,0.0,0.0,0.0,0.0,0.0,0.0,8.7467,8.6689,8.6,8.5342,8.4923,8.4714,8.4226,8.3786,8.3375,8.2679,8.2948,8.3957,8.3337,8.3068,8.3038,8.2896,8.2657,8.235,8.2178,8.2268,8.2477,8.2208,8.2268,8.2417,8.1699,8.1542,8.1631,8.0494,8.0105,8.0045,7.9537,7.9597,7.9776,7.9477,7.9447,7.9447,7.9178,7.9088,7.9297,8.0165,8.0734,8.1362,8.2537,8.2806,8.2806,8.2806,8.2806,8.2657,8.2208,8.1789,8.1392,8.1123,8.0584,8.0105,7.9866,7.9656,7.9327,7.8849,7.8789,7.8789,7.8789,7.837,7.8011,7.7831,7.7382,7.6928,7.6539,7.6509,7.6036,7.4963,7.4903,7.4903,7.4903,7.5347,7.5587,7.5587,7.6245,7.6509,7.6539,7.6719,7.645,4.1613,4.6501,0.0,5.6825,6.2143,6.7557,7.2278,0.0,0.0,0.0,0.0,0.0,0.0,0.0,0.0,0.0,0.0,0.0,0.0,0.0,0.0,0.0,0.0,0.0,0.0,0.0,0.0,0.0,0.0,0.0,0.0,8.6389,8.5611,8.4923,8.4295,8.3816,8.3547,8.2888,8.238,8.2028,8.1572,8.1811,8.2559,8.217,8.2028,8.2028,8.2028,8.1789,8.1392,8.1392,8.1482,8.1572,8.1452,8.1482,8.1512,8.1003,8.0883,8.0883,8.0105,7.9627,7.9387,7.9238,7.9297,7.9387,7.9238,7.9297,7.9327,7.8908,7.8789,7.8938,7.9627,8.0105,8.0734,8.2088,8.2597,8.2806,8.2806,8.2806,8.2597,8.1938,8.1572,8.1272,8.0883,8.0345,7.9956,7.9836,7.9597,7.9267,7.8849,7.8789,7.8789,7.8789,7.843,7.819,7.819,7.7831,7.7502,7.7197,7.7197,7.6754,7.5707,7.5647,7.5527,7.5288,7.5946,7.6275,7.6275,7.6868,7.7197,7.7197,7.7502,7.7113,4.2331,4.686,0.0,5.862,6.4903,0.0,0.0,0.0,0.0,0.0,0.0,0.0,0.0,0.0,0.0,0.0,0.0,0.0,0.0,0.0,0.0,0.0,0.0,0.0,0.0,0.0,0.0,0.0,0.0,0.0,0.0,8.5222,8.4235,8.3538,8.2918,8.2327,8.1691,8.1033,8.0704,8.0704,8.0644,8.0614,8.0614,8.0734,8.0794,8.0794,8.0734,8.0734,8.0794,8.0734,8.0405,7.9956,8.0494,8.0375,7.9956,8.0434,8.0285,7.977,7.971,7.9327,7.8878,7.9507,7.9297,7.8908,7.9537,7.9297,7.8789,7.8789,7.8789,7.8938,7.9567,7.974,8.0135,8.1332,8.2148,8.2627,8.2687,8.2657,8.2447,8.1848,8.1153,8.0704,8.0614,7.9597,7.8998,7.9627,7.9178,7.8789,7.8789,7.8789,7.8789,7.8789,7.8789,7.8789,7.8789,7.8789,7.8519,7.7921,7.7891,7.7592,7.6898,7.6838,7.6539,7.6006,7.6569,7.6868,7.6868,7.7562,7.7891,7.7921,7.8519,7.81,4.7377,5.1648,0.0,0.0,7.3784,7.9839,8.2469,0.0,0.0,0.0,0.0,0.0,0.0,0.0,0.0,0.0,0.0,0.0,0.0,0.0,0.0,0.0,0.0,0.0,0.0,0.0,0.0,0.0,0.0,0.0,8.4444,8.3606,8.2926,8.223,8.1572,8.1153,8.1003,8.0345,8.0045,0.0,7.9477,7.9238,7.9267,8.0315,8.0794,8.0764,8.0255,8.0315,8.0764,8.0255,8.0255,8.0554,8.0165,8.0255,8.0464,7.9567,7.9477,7.9746,7.9208,7.8908,7.8819,7.8968,7.8908,7.8819,7.8968,7.8908,7.8789,7.8789,7.8789,7.8819,7.8968,7.9417,7.9859,8.0165,8.0734,8.1362,8.1908,8.1572,8.1183,8.1033,8.0464,7.9866,7.9327,7.8968,7.8849,7.8998,7.8878,7.8789,7.8789,7.8789,7.8789,7.8789,7.8789,7.8789,7.8789,7.8789,7.8729,7.8579,7.8579,7.828,7.7622,7.7078,7.6719,7.6599,7.7263,7.7592,7.7592,7.825,7.8579,7.8579,7.8729,7.81,4.965,5.4229,0.0,6.9519,0.0,8.1656,8.2753,8.2247,0.0,0.0,0.0,0.0,0.0,0.0,0.0,0.0,0.0,0.0,0.0,0.0,0.0,0.0,0.0,0.0,0.0,0.0,0.0,0.0,0.0,8.4243,8.2858,8.217,8.1661,8.1332,8.0674,8.0345,8.0345,7.9656,7.9327,7.9327,7.8968,7.8789,7.8819,7.9507,7.9836,7.9806,7.9477,7.9537,7.9806,7.9477,7.9537,7.9806,7.9477,7.9537,7.9746,7.9058,7.9028,7.9267,7.8908,7.8789,7.8789,7.8789,7.8789,7.8789,7.8789,7.8789,7.8789,7.8789,7.8789,7.8789,7.8789,7.9058,7.9327,7.9327,8.0075,8.0883,8.1242,8.1033,8.0794,8.0794,8.0285,7.9716,7.9357,7.8998,7.8789,7.8789,7.8789,7.8789,7.8789,7.8789,7.8789,7.8789,7.8789,7.8789,7.8789,7.8789,7.8789,7.8789,7.8789,7.8639,7.828,7.7951,7.7622,7.7287,7.7951,7.828,7.828,7.8609,7.8789,7.8789,7.8789,7.825,4.9733,5.5808,6.2422,7.1525,7.69,0.0,7.9773,7.9392,7.9084,0.0,0.0,0.0,0.0,0.0,0.0,0.0,0.0,0.0,0.0,0.0,0.0,0.0,0.0,0.0,0.0,0.0,0.0,0.0,0.0,8.2327,8.1631,8.0973,8.0584,8.0464,7.9806,7.9417,7.9261,7.8729,7.846,7.846,7.846,7.846,7.846,7.846,7.8579,7.8789,7.8789,7.8789,7.8789,7.8789,7.8789,7.8789,7.8789,7.8789,7.8789,7.8789,7.8789,7.8789,7.8789,7.8789,7.8789,7.8789,7.8789,7.8789,7.8789,7.8789,7.8789,7.8789,7.8789,7.8789,7.8789,7.8789,7.8789,7.8789,7.9656,8.0494,8.0614,8.0554,8.0494,8.0614,8.0105,7.9627,7.9627,7.9178,7.8789,7.8789,7.8789,7.8789,7.8789,7.8789,7.8789,7.8789,7.8789,7.8789,7.8789,7.8789,7.8789,7.8789,7.8789,7.8789,7.8789,7.8789,7.8519,7.7981,7.8519,7.8789,7.8789,7.8789,7.8789,7.8789,7.8789,7.843,4.7031,5.7439,6.8081,0.0,7.7076,7.7929,0.0,0.0,7.6572,0.0,0.0,0.0,0.0,0.0,0.0,0.0,0.0,0.0,0.0,0.0,0.0,0.0,0.0,0.0,0.0,0.0,0.0,0.0,8.2417,8.1631,8.0973,8.0315,7.9686,7.9088,7.843,7.7801,7.7197,7.7108,7.7048,7.7048,7.7048,7.7048,7.7048,7.7048,7.7711,7.8789,7.8789,7.8789,7.8789,7.8789,7.8789,7.8789,7.8789,7.8789,7.8789,7.8789,7.8789,7.8789,7.8789,7.8789,7.8789,7.8789,7.8789,7.8789,7.8789,7.8789,7.8789,7.8789,7.8789,7.8789,7.8789,7.8789,7.8789,7.8789,7.8938,7.9238,7.9806,7.9477,7.9238,7.9836,7.9387,7.8938,7.8938,7.8849,7.8789,7.8789,7.8789,7.8789,7.8789,7.8789,7.8789,7.8789,7.8789,7.8789,7.8789,7.8789,7.8789,7.8789,7.8789,7.8789,7.8789,7.8789,7.8759,7.8669,7.8729,7.8789,7.8789,7.8789,7.8789,7.8789,7.8789,7.843,4.8425,5.7505,6.5898,7.0675,7.3857,7.6279,7.8293,7.7901,7.7145,7.7145,7.607,0.0,0.0,0.0,0.0,0.0,0.0,0.0,0.0,0.0,0.0,0.0,0.0,0.0,0.0,0.0,0.0,0.0,8.1063,8.0375,7.9716,7.9387,7.8938,7.825,7.7951,7.7502,7.6808,7.6779,7.6779,7.6779,7.6779,7.6779,7.6779,7.6779,7.7108,7.7682,7.7682,7.7891,7.825,7.825,7.846,7.8789,7.8789,7.8789,7.8789,7.8789,7.8789,7.8789,7.8789,7.8789,7.8789,7.8789,7.8789,7.8789,7.8789,7.8789,7.8789,7.8789,7.8789,7.8789,7.8789,7.8789,7.8789,7.8789,7.8789,7.8878,7.9178,7.8998,7.8878,7.9178,7.9597,7.9686,7.8908,7.9118,7.9238,7.8849,7.8789,7.8789,7.8789,7.8789,7.8789,7.8789,7.8789,7.8789,7.8789,7.8789,7.8789,7.8789,7.8789,7.8789,7.8789,7.8789,7.8789,7.8789,7.8789,7.8789,7.8789,7.8789,7.8789,7.8789,7.8789,7.8639,4.8321,5.4778,6.0443,6.4662,6.9109,7.3212,0.0,0.0,7.694,0.0,7.5538,7.4297,0.0,0.0,0.0,0.0,0.0,0.0,0.0,0.0,0.0,0.0,0.0,0.0,0.0,0.0,0.0,0.0,7.9627,7.8908,7.8549,7.837,7.7981,7.7352,7.7322,7.7023,7.6335,7.6335,7.6335,7.6335,7.6335,7.6335,7.6335,7.6335,7.6335,7.6365,7.6659,7.7078,7.7562,7.7562,7.7861,7.828,7.828,7.828,7.828,7.828,7.84,7.8519,7.834,7.8519,7.8759,7.8579,7.8639,7.8789,7.8789,7.8789,7.8789,7.8789,7.8789,7.8789,7.8789,7.8789,7.8789,7.8789,7.8789,7.8789,7.8789,7.8789,7.8789,7.8789,7.9597,7.9956,7.8968,7.9208,7.9387,7.8878,7.8789,7.8789,7.8789,7.8789,7.8789,7.8789,7.8789,7.8789,7.8789,7.8789,7.8789,7.8789,7.8789,7.8789,7.8789,7.8789,7.8789,7.8789,7.8789,7.8789,7.8789,7.8789,7.8789,7.8789,7.8789,7.8789,4.3905,4.7947,5.2539,5.8462,6.3256,6.7517,0.0,0.0,7.3961,7.449,7.4092,7.3468,7.2919,0.0,0.0,0.0,0.0,0.0,0.0,0.0,0.0,0.0,0.0,0.0,0.0,0.0,0.0,0.0,7.8035,7.7197,7.7831,7.7227,7.6629,7.6036,7.6006,7.5677,7.5023,7.5023,7.5023,7.5023,7.5023,7.5023,7.5023,7.5023,7.5023,7.5083,7.6305,7.6808,7.6838,7.6838,7.6868,7.6898,7.6898,7.6898,7.6898,7.6898,7.7287,7.7771,7.7108,7.7741,7.8699,7.8071,7.828,7.8789,7.8789,7.8789,7.8789,7.8789,7.8789,7.8789,7.8789,7.8789,7.8789,7.8789,7.8789,7.8789,7.8789,7.8789,7.8789,7.8789,7.8849,7.8878,7.8789,7.8819,7.8819,7.8789,7.8789,7.8789,7.8789,7.8789,7.8789,7.8789,7.8789,7.8789,7.8789,7.8789,7.8789,7.8789,7.8789,7.8789,7.8789,7.8789,7.8789,7.8789,7.8789,7.8789,7.8789,7.8789,7.8789,7.8789,7.8789,7.8789,4.1625,4.4744,4.8416,5.3064,5.7273,6.1115,6.4304,6.7267,6.9501,7.0054,7.0581,7.0983,7.1108,7.1887,0.0,0.0,0.0,0.0,0.0,0.0,0.0,0.0,0.0,0.0,0.0,0.0,0.0,0.0,0.0,7.6898,7.7137,7.6928,7.6509,7.5916,7.5916,7.5587,7.4933,7.4903,7.4903,7.4903,7.4903,7.4903,7.4903,7.4903,7.4903,7.4933,7.5377,7.5826,7.6245,7.6245,7.645,7.6779,7.6779,7.6779,7.6779,7.6779,7.7197,7.7771,7.7532,7.8041,7.8669,7.8011,7.825,7.8699,7.828,7.846,7.8789,7.8789,7.8789,7.8789,7.8789,7.8789,7.8789,7.8789,7.8789,7.8789,7.8789,7.8789,7.8789,7.8789,7.9148,7.9297,7.8878,7.9148,7.9297,7.8849,7.8789,7.8789,7.8789,7.8789,7.8789,7.8789,7.8789,7.8789,7.8789,7.8789,7.8789,7.8789,7.8789,7.8789,7.8789,7.8789,7.8789,7.8789,7.8789,7.8789,7.8789,7.8789,7.8789,7.8789,7.8789,7.8789,3.9536,4.1791,4.4822,4.9091,5.2068,5.5164,5.9608,6.3443,6.6221,6.6862,6.8517,6.9847,6.9737,7.0154,7.0928,0.0,0.0,0.0,0.0,0.0,0.0,0.0,0.0,0.0,0.0,0.0,0.0,0.0,0.0,0.0,7.6479,7.6305,7.5976,7.5587,7.5557,7.5347,7.4903,7.4903,7.4903,7.4903,7.4903,7.4903,7.4903,7.4903,7.4903,7.4903,7.4903,7.5138,7.5557,7.5557,7.5796,7.6185,7.6185,7.6185,7.6185,7.6185,7.6604,7.7143,7.6904,7.7382,7.8011,7.7382,7.7741,7.837,7.7951,7.828,7.8789,7.8789,7.8789,7.8789,7.8789,7.8789,7.8729,7.8519,7.8639,7.8729,7.8519,7.8639,7.8789,7.8789,7.9148,7.9387,7.9178,7.9327,7.9387,7.9178,7.8938,7.8789,7.8789,7.8789,7.8789,7.8789,7.8789,7.8789,7.8789,7.8789,7.8789,7.8789,7.8789,7.8789,7.8789,7.8789,7.8789,7.8789,7.8789,7.8789,7.8789,7.8789,7.8789,7.8789,7.8789,7.8789,0.0,0.0,0.0,0.0,4.7649,4.9723,5.7349,0.0,6.3985,6.4939,6.7953,7.0038,6.8726,6.807,6.8045,6.908,0.0,0.0,0.0,0.0,0.0,0.0,0.0,0.0,0.0,0.0,0.0,0.0,7.5587,7.5168,7.5826,7.5228,7.4903,7.4903,7.4903,7.4903,7.4903,7.4903,7.4903,7.4903,7.4903,7.4903,7.4903,7.4903,7.4903,7.4903,7.4903,7.4903,7.4903,7.4903,7.4903,7.4903,7.4903,7.4903,7.4903,7.4903,7.5318,7.5826,7.5172,7.5736,7.6689,7.6096,7.6754,7.7771,7.7771,7.822,7.8729,7.8729,7.8729,7.8729,7.8759,7.8759,7.8609,7.7951,7.828,7.8549,7.7951,7.831,7.8759,7.8789,7.8789,7.8998,7.9686,7.9238,7.9028,7.965,7.9238,7.8789,7.8789,7.8789,7.8789,7.8789,7.8789,7.8789,7.8789,7.8789,7.8789,7.8789,7.8789,7.8789,7.8789,7.8789,7.8789,7.8789,7.8789,7.8789,7.8789,7.8789,7.8789,7.8789,7.8789,7.8789,3.5861,0.0,0.0,0.0,0.0,0.0,0.0,0.0,5.4056,5.9901,6.1287,6.2462,6.5637,6.576,6.5484,6.5785,6.7124,6.7885,0.0,0.0,0.0,0.0,0.0,0.0,0.0,0.0,0.0,0.0,7.5113,7.4993,7.5172,7.5023,7.4903,7.4903,7.4903,7.4903,7.4903,7.4903,7.4903,7.4903,7.4903,7.4903,7.4903,7.4903,7.4903,7.4903,7.4903,7.4903,7.4903,7.4903,7.4903,7.4903,7.4903,7.4903,7.4903,7.4903,7.5318,7.5886,7.5677,7.6155,7.6689,7.6096,7.6455,7.6988,7.6574,7.6874,7.7382,7.7382,7.7382,7.7472,7.7951,7.8071,7.8041,7.7861,7.7592,7.7442,7.7741,7.7951,7.822,7.8699,7.8789,7.8849,7.9028,7.8908,7.8849,7.9058,7.8908,7.8789,7.8789,7.8789,7.8789,7.8789,7.8789,7.8789,7.8789,7.8789,7.8789,7.8789,7.8789,7.8789,7.8789,7.8789,7.8789,7.8789,7.8789,7.8789,7.8789,7.8789,7.8789,7.8789,7.8789,7.8789,0.0,0.0,0.0,0.0,0.0,0.0,4.3689,4.6178,4.9143,0.0,5.6768,5.8115,6.1576,6.1567,6.1391,6.2546,6.3751,6.4655,6.4906,0.0,0.0,0.0,0.0,0.0,0.0,7.318,7.4016,7.4834,7.4903,7.4903,7.4903,7.4903,7.4903,7.4903,7.4903,7.4903,7.4903,7.4903,7.4903,7.4903,7.4903,7.4903,7.4903,7.4903,7.4903,7.4903,7.4903,7.4903,7.4903,7.4903,7.4903,7.4903,7.4903,7.4903,7.4903,7.4903,7.5172,7.5467,7.5467,7.5707,7.5946,7.5587,7.5916,7.633,7.6006,7.6335,7.6779,7.6779,7.6779,7.6868,7.7257,7.7377,7.7322,7.7083,7.6904,7.6898,7.7287,7.7622,7.8011,7.8669,7.8789,7.8878,7.9178,7.8998,7.8878,7.9178,7.8968,7.8789,7.8789,7.8789,7.8789,7.8789,7.8789,7.8789,7.8789,7.8789,7.8789,7.8789,7.8789,7.8789,7.8789,7.8789,7.8789,7.8789,7.8789,7.8789,7.8789,7.8789,7.8789,7.8789,7.8789,7.8789,0.0,0.0,0.0,0.0,0.0,0.0,4.1907,4.4527,4.6895,0.0,5.3151,5.5172,5.6937,5.6495,5.662,5.9006,6.0236,6.1758,6.4094,6.4605,0.0,0.0,0.0,0.0,7.1596,7.2071,7.2953,7.4646,7.4723,7.4753,7.4903,7.4843,7.4843,7.4903,7.4843,7.4843,7.4903,7.4843,7.471,7.4564,7.48,7.48,7.4564,7.48,7.4903,7.4903,7.4903,7.4903,7.4903,7.4903,7.4903,7.4903,7.4903,7.4903,7.4903,7.4903,7.4903,7.4903,7.4903,7.4903,7.4903,7.4903,7.5288,7.5796,7.5796,7.6185,7.6569,7.6569,7.6629,7.6689,7.6689,7.6689,7.6539,7.6036,7.6275,7.6629,7.6749,7.7293,7.7921,7.8639,7.8789,7.8998,7.9597,7.9208,7.8998,7.9627,7.9178,7.8789,7.8789,7.8789,7.8789,7.8789,7.8789,7.8789,7.8789,7.8789,7.8789,7.8789,7.8789,7.8789,7.8789,7.8789,7.8789,7.8789,7.8789,7.8789,7.8789,7.8789,7.8789,7.8789,7.8789,7.8789,0.0,0.0,0.0,0.0,0.0,0.0,3.8768,3.9449,4.1176,0.0,4.7111,4.8125,5.242,5.3406,5.3573,5.3683,5.6771,6.03,6.34,6.5246,6.621,6.6002,0.0,0.0,7.182,7.3363,7.4223,7.4121,7.3612,7.3762,7.4843,7.436,7.433,7.4903,7.436,7.433,7.4903,7.436,7.3552,7.2492,7.412,7.405,7.2528,7.4154,7.4903,7.4903,7.4903,7.4903,7.4903,7.4903,7.4903,7.4903,7.4903,7.4903,7.4903,7.4903,7.4903,7.4903,7.4903,7.4903,7.4903,7.4903,7.4993,7.5113,7.5113,7.5168,7.5258,7.5258,7.5647,7.6096,7.6096,7.6096,7.6066,7.5946,7.5587,7.5557,7.6569,7.6898,7.7382,7.8549,7.8789,7.8819,7.8968,7.8878,7.8819,7.8968,7.8878,7.8789,7.8789,7.8789,7.8789,7.8789,7.8789,7.8789,7.8789,7.8789,7.8789,7.8789,7.8789,7.8789,7.8789,7.8789,7.8789,7.8789,7.8789,7.8789,7.8789,7.8789,7.8789,7.8789,7.8789,7.8789,0.0,0.0,0.0,3.6828,0.0,0.0,0.0,3.7338,3.8166,4.3212,4.2459,4.2283,4.6728,4.7104,4.735,4.9282,5.1699,5.4561,5.8202,6.1961,6.4607,6.5292,6.7779,0.0,7.0905,7.2768,7.3762,7.3432,7.3103,7.3193,7.3851,7.3582,7.3117,7.2532,7.3083,7.3117,7.2527,7.2169,7.1802,7.1395,7.143,7.161,7.1927,7.2946,7.3951,7.4903,7.4903,7.4903,7.4903,7.4903,7.4903,7.4903,7.4903,7.4903,7.4903,7.4903,7.4903,7.4903,7.4903,7.4903,7.4903,7.4903,7.4903,7.4903,7.4903,7.4903,7.4903,7.4903,7.5138,7.5377,7.5377,7.5377,7.5377,7.5377,7.5138,7.5228,7.6509,7.6779,7.7197,7.8519,7.8789,7.8789,7.8789,7.8789,7.8789,7.8789,7.8789,7.8789,7.8789,7.8789,7.8789,7.8789,7.8789,7.8789,7.8789,7.8789,7.8789,7.8789,7.8789,7.8789,7.8789,7.8789,7.8789,7.8789,7.8789,7.8789,7.8789,7.846,7.846,7.8789,7.846,7.846,0.0,0.0,0.0,0.0,0.0,3.6911,0.0,0.0,0.0,4.0537,3.907,0.0,0.0,0.0,0.0,0.0,0.0,0.0,0.0,5.6703,0.0,6.3107,6.4863,6.6813,6.9212,7.1057,7.2385,7.2864,7.2325,7.207,7.2365,7.2574,7.1909,7.0158,7.1439,7.1677,7.0639,6.977,6.9875,7.087,6.9193,6.964,7.1927,7.2169,7.3245,7.4903,7.4903,7.4843,7.4723,7.4873,7.4843,7.4723,7.4873,7.4903,7.4903,7.4903,7.4903,7.4903,7.4903,7.4903,7.4903,7.4903,7.4903,7.4903,7.4903,7.4903,7.4903,7.4903,7.4903,7.4903,7.4903,7.4903,7.4903,7.4903,7.4903,7.5232,7.6395,7.6629,7.7023,7.834,7.8489,7.8489,7.8759,7.8789,7.8789,7.8789,7.8789,7.8789,7.8789,7.8789,7.8789,7.8789,7.8789,7.8789,7.8789,7.8789,7.8789,7.8789,7.8789,7.8789,7.8789,7.8789,7.8789,7.8789,7.8789,7.8789,7.8789,7.813,7.8071,7.8579,7.8041,7.81,0.0,0.0,0.0,0.0,4.0125,0.0,0.0,0.0,3.8361,3.7774,0.0,0.0,0.0,0.0,0.0,0.0,0.0,0.0,4.8026,5.0244,5.3181,5.7165,6.003,6.3116,6.6726,6.853,7.041,7.2744,7.0201,6.9109,7.0326,7.1432,7.144,7.0129,6.9713,7.0497,7.2529,6.8611,6.8072,7.087,7.0188,7.0597,7.1934,7.3152,7.413,7.4903,7.4903,7.454,7.4061,7.4663,7.4574,7.4061,7.4693,7.4903,7.4903,7.4903,7.4903,7.4903,7.4903,7.4903,7.4903,7.4903,7.4903,7.4903,7.4903,7.4903,7.4903,7.4903,7.4903,7.4903,7.4903,7.4903,7.4903,7.4903,7.4903,7.5113,7.5856,7.6006,7.6395,7.7682,7.7407,7.7412,7.8579,7.8789,7.8789,7.8789,7.8789,7.8789,7.8789,7.8789,7.8789,7.8789,7.8789,7.8789,7.8789,7.8789,7.8789,7.8789,7.8789,7.8789,7.8789,7.8789,7.8789,7.8789,7.8789,7.8789,7.8789,7.813,7.7861,7.7921,7.7861,7.7861,0.0,0.0,0.0,0.0,0.0,0.0,0.0,0.0,3.7169,0.0,0.0,0.0,0.0,0.0,0.0,0.0,3.9848,0.0,0.0,0.0,4.7293,0.0,0.0,0.0,6.35,6.3921,6.4904,0.0,6.646,6.6125,6.7064,6.9456,7.0045,6.8416,6.9537,7.0145,7.0106,6.7122,6.7008,6.9706,6.7265,6.7744,7.0761,7.1336,7.2355,7.3732,7.3732,7.3582,7.3343,7.3612,7.3582,7.3402,7.4061,7.454,7.4903,7.4903,7.4903,7.4903,7.4903,7.4903,7.4903,7.4903,7.4903,7.4903,7.4903,7.4903,7.4903,7.4903,7.4903,7.4903,7.4903,7.4903,7.4903,7.4903,7.4903,7.5078,7.5766,7.5916,7.6185,7.7048,7.6988,7.6958,7.7562,7.7981,7.822,7.822,7.8549,7.8789,7.8789,7.8789,7.8789,7.8789,7.8789,7.8789,7.8789,7.8789,7.8789,7.8789,7.8789,7.8789,7.8789,7.8789,7.8789,7.8789,7.8789,7.8789,7.8789,7.813,7.7801,7.7801,7.7801,7.7801,4.3991,0.0,0.0,0.0,0.0,0.0,0.0,0.0,0.0,0.0,0.0,0.0,0.0,0.0,0.0,0.0,0.0,3.8896,0.0,4.006,0.0,0.0,0.0,0.0,0.0,5.9757,6.0296,6.275,0.0,6.2399,6.3623,6.6811,6.806,6.6849,6.898,6.9715,6.8885,6.6412,6.6721,6.968,6.6203,6.6715,7.0708,7.0534,7.1346,7.2924,7.2924,7.2804,7.2654,7.2834,7.2804,7.2684,7.3373,7.4031,7.4663,7.4843,7.4903,7.4903,7.4903,7.4903,7.4903,7.4903,7.4903,7.4903,7.4903,7.4903,7.4903,7.4903,7.4903,7.4903,7.4903,7.4903,7.4903,7.4903,7.4903,7.5053,7.5527,7.5617,7.5826,7.642,7.639,7.6365,7.6509,7.7078,7.7592,7.7771,7.822,7.8579,7.8759,7.8789,7.8789,7.8789,7.8789,7.8789,7.8789,7.8789,7.8789,7.8789,7.8789,7.8789,7.8789,7.8789,7.8789,7.8789,7.8789,7.8789,7.8789,7.831,7.8071,7.8071,7.7891,7.7711,0.0,0.0,0.0,4.5091,0.0,0.0,0.0,0.0,3.879,0.0,0.0,0.0,0.0,0.0,0.0,0.0,0.0,0.0,0.0,0.0,0.0,0.0,0.0,0.0,0.0,5.6859,5.8025,0.0,5.7869,0.0,6.0213,6.3413,6.5454,6.6124,6.7454,6.9052,7.0791,6.7072,6.7419,7.1778,6.9205,6.9651,7.2794,7.2139,7.2199,7.2924,7.2924,7.2535,7.1966,7.2624,7.2535,7.1996,7.2684,7.3343,7.4001,7.4663,7.4903,7.4903,7.4903,7.4903,7.4903,7.4903,7.4903,7.4903,7.4903,7.4903,7.4903,7.4903,7.4903,7.4903,7.4903,7.4903,7.4903,7.4903,7.4903,7.4933,7.4933,7.4933,7.5108,7.5796,7.5377,7.5172,7.5826,7.642,7.7048,7.7711,7.7831,7.8071,7.8699,7.8789,7.8789,7.8789,7.8789,7.8789,7.8789,7.8789,7.8789,7.8789,7.8789,7.8789,7.8789,7.8789,7.8789,7.8789,7.8789,7.8789,7.8789,7.8759,7.8759,7.8729,7.81,7.7472,0.0,0.0,5.1599,4.8661,0.0,0.0,0.0,0.0,0.0,0.0,0.0,0.0,0.0,0.0,0.0,0.0,0.0,0.0,0.0,3.8312,3.917,0.0,0.0,0.0,0.0,0.0,0.0,0.0,0.0,0.0,5.7898,6.1718,6.4636,6.6636,6.8439,6.9471,6.9662,6.795,6.8301,7.062,6.8931,6.932,7.1577,7.1338,7.1368,7.1577,7.1577,7.1457,7.1248,7.1487,7.1427,7.1308,7.1966,7.2385,7.2714,7.3821,7.451,7.4903,7.4903,7.4903,7.4903,7.4903,7.4903,7.4903,7.4903,7.4903,7.4903,7.4903,7.4903,7.4903,7.4903,7.4903,7.4903,7.4903,7.4903,7.4903,7.4903,7.4903,7.4993,7.5168,7.5083,7.4993,7.5198,7.5766,7.6425,7.7018,7.7532,7.8041,7.8699,7.8789,7.8789,7.8789,7.84,7.813,7.813,7.813,7.834,7.8759,7.8789,7.8789,7.8789,7.8789,7.8789,7.8789,7.837,7.813,7.813,7.7711,7.7502,7.7502,7.7227,7.7018,5.2703,5.3793,0.0,5.1934,4.9665,0.0,4.3291,0.0,0.0,0.0,0.0,0.0,0.0,0.0,0.0,0.0,0.0,0.0,0.0,3.7292,3.8123,0.0,0.0,0.0,0.0,0.0,0.0,0.0,0.0,0.0,0.0,5.8441,6.2269,6.5802,6.8137,6.9215,6.9004,6.8828,6.8741,6.8705,6.8281,6.8186,6.8319,6.9145,6.9441,6.9299,6.9943,7.0231,7.026,7.047,7.0173,6.9683,7.1019,7.1424,7.1461,7.3226,7.43,7.4903,7.4903,7.4903,7.4903,7.4903,7.4903,7.4903,7.4903,7.4903,7.4903,7.4903,7.4903,7.4903,7.4903,7.4903,7.4903,7.4903,7.4903,7.4903,7.4903,7.4903,7.4903,7.4903,7.4903,7.4903,7.4903,7.5258,7.5826,7.6659,7.7347,7.7951,7.84,7.843,7.834,7.81,7.7711,7.7437,7.7437,7.7437,7.7741,7.84,7.843,7.8549,7.8789,7.8789,7.8998,7.9507,7.84,7.8041,7.8519,7.7347,7.6779,7.6779,7.6569,7.6479]},{"header":{"parameterUnit":"m.s-1","parameterCategory":1,"la1":30.6,"la2":29.2853,"lo1":-89.7004,"lo2":-87.6739,"dy":0.0162,"dx":0.0183,"nx":112,"ny":82,"refTime":"2023-04-24T06:00:00:Z","depth":0,"parameterNumber":3,"parameterNumberName":"V-component_of_WINDS"},"data":[0.0,0.0,0.0,0.0,0.0,0.0,0.0,0.0,0.0,0.0,0.0,0.0,0.0,0.0,0.0,0.0,0.0,0.0,0.0,0.0,0.0,0.0,0.0,0.0,0.0,0.0,0.0,0.0,0.0,0.0,0.0,0.0,0.0,0.0,0.0,0.0,0.0,0.0,0.0,0.0,0.0,0.0,0.0,0.0,0.0,0.0,0.0,0.0,0.0,0.0,0.0,0.0,0.0,0.0,0.0,0.0,0.0,0.0,0.0,0.0,0.0,0.0,0.0,0.0,0.0,0.0,0.0,0.0,0.0,0.0,0.0,0.0,0.0,0.0,0.0,0.0,0.0,0.0,0.0,0.0,0.0,0.0,0.0,0.0,0.0,0.0,0.0,0.0,0.0,0.0,0.0,2.6407,2.9689,3.2309,3.3646,3.2653,3.0717,2.7768,0.0,0.0,0.0,0.0,0.0,0.0,0.0,0.0,0.0,0.0,0.0,0.0,0.0,0.0,0.0,0.0,0.0,0.0,0.0,0.0,0.0,0.0,0.0,0.0,0.0,0.0,0.0,0.0,0.0,0.0,0.0,0.0,0.0,0.0,0.0,0.0,0.0,0.0,0.0,0.0,0.0,0.0,0.0,0.0,0.0,0.0,0.0,0.0,0.0,0.0,0.0,0.0,0.0,0.0,0.0,0.0,0.0,0.0,0.0,0.0,0.0,0.0,0.0,0.0,0.0,0.0,0.0,0.0,0.0,0.0,0.0,0.0,0.0,0.0,0.0,0.0,0.0,0.0,0.0,0.0,0.0,0.0,0.0,0.0,0.0,0.0,0.0,0.0,0.0,0.0,0.0,0.0,0.0,0.0,0.0,0.0,0.0,0.0,0.0,0.0,0.0,0.0,0.0,0.0,2.4894,3.1261,3.3264,3.4713,3.615,3.5206,3.2393,2.7404,0.0,0.0,0.0,0.0,0.0,0.0,0.0,0.0,0.0,0.0,0.0,0.0,0.0,0.0,0.0,0.0,0.0,0.0,0.0,0.0,0.0,0.0,0.0,0.0,0.0,0.0,0.0,0.0,0.0,0.0,0.0,0.0,0.0,0.0,0.0,0.0,0.0,0.0,0.0,0.0,0.0,0.0,0.0,0.0,0.0,0.0,0.0,0.0,0.0,0.0,0.0,0.0,0.0,0.0,0.0,0.0,0.0,0.0,0.0,0.0,0.0,0.0,0.0,0.0,0.0,0.0,0.0,0.0,0.0,0.0,0.0,0.0,0.0,0.0,0.0,0.0,0.0,0.0,0.0,0.0,0.0,0.0,0.0,0.0,0.0,0.0,0.0,0.0,0.0,0.0,0.0,0.0,0.0,0.0,0.0,0.0,0.0,0.0,0.0,0.0,0.0,0.0,0.0,2.4595,2.8377,3.3543,3.5863,3.7492,3.8701,3.6944,3.439,3.1048,2.9708,0.0,0.0,0.0,0.0,0.0,0.0,0.0,0.0,0.0,0.0,0.0,0.0,0.0,0.0,0.0,0.0,0.0,0.0,0.0,0.0,0.0,0.0,0.0,0.0,0.0,0.0,0.0,0.0,0.0,0.0,0.0,0.0,0.0,0.0,0.0,0.0,0.0,0.0,0.0,0.0,0.0,0.0,0.0,0.0,0.0,0.0,0.0,0.0,0.0,0.0,0.0,0.0,0.0,0.0,0.0,0.0,0.0,0.0,0.0,0.0,0.0,0.0,0.0,0.0,0.0,0.0,0.0,0.0,0.0,0.0,0.0,0.0,0.0,0.0,0.0,0.0,0.0,0.0,0.0,0.0,0.0,0.0,0.0,0.0,0.0,0.0,0.0,0.0,0.0,0.0,0.0,0.0,0.0,0.0,0.0,0.0,0.0,0.0,0.0,0.0,0.0,0.0,2.8491,3.2253,3.6189,3.8535,4.0173,4.1178,3.804,3.5357,3.3827,3.1268,0.0,0.0,0.0,0.0,0.0,0.0,0.0,0.0,0.0,0.0,0.0,0.0,0.0,0.0,0.0,0.0,0.0,0.0,0.0,0.0,0.0,0.0,0.0,0.0,0.0,0.0,0.0,0.0,0.0,0.0,0.0,0.0,0.0,0.0,0.0,0.0,0.0,0.0,0.0,0.0,0.0,0.0,0.0,0.0,0.0,0.0,0.0,0.0,0.0,0.0,0.0,0.0,0.0,0.0,0.0,0.0,0.0,0.0,0.0,0.0,0.0,0.0,0.0,0.0,0.0,0.0,0.0,0.0,0.0,0.0,0.0,0.0,0.0,0.0,0.0,0.0,0.0,0.0,0.0,0.0,0.0,0.0,0.0,0.0,0.0,0.0,0.0,0.0,0.0,0.0,0.0,0.0,0.0,0.0,0.0,0.0,0.0,0.0,0.0,0.0,0.0,0.0,3.1037,3.5605,4.109,4.1987,4.2535,4.341,3.8217,3.4258,3.2703,2.8965,0.0,0.0,0.0,0.0,0.0,0.0,0.0,0.0,0.0,0.0,0.0,0.0,0.0,0.0,0.0,0.0,0.0,0.0,0.0,0.0,0.0,0.0,0.0,0.0,0.0,0.0,0.0,0.0,0.0,0.0,0.0,0.0,0.0,0.0,0.0,0.0,0.0,0.0,0.0,0.0,0.0,0.0,0.0,0.0,0.0,0.0,0.0,0.0,0.0,0.0,0.0,0.0,0.0,0.0,0.0,0.0,0.0,0.0,0.0,0.0,0.0,0.0,0.0,0.0,0.0,0.0,0.0,0.0,0.0,0.0,0.0,0.0,0.0,0.0,0.0,0.0,0.0,0.0,0.0,0.0,0.0,0.0,0.0,0.0,0.0,0.0,0.0,0.0,0.0,0.0,0.0,0.0,0.0,0.0,0.0,0.0,0.0,0.0,0.0,0.0,0.0,0.0,3.1827,3.6492,0.0,4.3651,4.4224,4.3745,3.9893,3.6617,3.4432,0.0,0.0,0.0,0.0,0.0,0.0,0.0,0.0,0.0,0.0,0.0,0.0,0.0,0.0,0.0,0.0,0.0,0.0,0.0,0.0,0.0,0.0,0.0,0.0,0.0,0.0,0.0,0.0,0.0,0.0,0.0,0.0,0.0,0.0,0.0,0.0,0.0,0.0,0.0,0.0,0.0,0.0,0.0,0.0,0.0,0.0,0.0,0.0,0.0,0.0,0.0,0.0,0.0,0.0,0.0,0.0,0.0,0.0,0.0,0.0,0.0,0.0,0.0,0.0,0.0,0.0,0.0,0.0,0.0,0.0,0.0,0.0,0.0,0.0,0.0,0.0,0.0,0.0,0.0,0.0,0.0,0.0,0.0,0.0,0.0,0.0,0.0,0.0,0.0,0.0,0.0,0.0,0.0,0.0,0.0,0.0,0.0,0.0,0.0,0.0,0.0,0.0,2.8913,3.3809,3.8577,0.0,4.4922,4.5137,4.3808,3.9834,3.6839,3.5474,0.0,0.0,0.0,0.0,0.0,0.0,0.0,0.0,0.0,0.0,0.0,0.0,0.0,0.0,0.0,0.0,0.0,0.0,0.0,0.0,0.0,0.0,0.0,0.0,0.0,0.0,0.0,0.0,0.0,0.0,0.0,0.0,0.0,0.0,0.0,0.0,0.0,0.0,0.0,0.0,0.0,0.0,0.0,0.0,0.0,0.0,0.0,0.0,0.0,0.0,0.0,0.0,0.0,0.0,0.0,0.0,0.0,0.0,0.0,0.0,0.0,0.0,0.0,0.0,0.0,0.0,0.0,0.0,0.0,0.0,0.0,0.0,0.0,0.0,0.0,0.0,0.0,0.0,0.0,0.0,0.0,0.0,0.0,0.0,0.0,0.0,0.0,0.0,0.0,0.0,0.0,0.0,0.0,0.0,0.0,0.0,0.0,0.0,0.0,0.0,0.0,0.0,3.1853,3.7476,4.242,4.5934,4.5918,4.5137,4.3808,3.7438,3.409,0.0,0.0,0.0,0.0,0.0,0.0,0.0,0.0,0.0,0.0,0.0,0.0,0.0,0.0,0.0,0.0,0.0,0.0,0.0,0.0,0.0,0.0,0.0,0.0,0.0,0.0,0.0,0.0,0.0,0.0,0.0,0.0,0.0,0.0,0.0,0.0,0.0,0.0,0.0,0.0,0.0,0.0,0.0,0.0,0.0,0.0,0.0,0.0,0.0,0.0,0.0,0.0,0.0,0.0,0.0,0.0,0.0,0.0,0.0,0.0,0.0,0.0,0.0,0.0,0.0,0.0,0.0,0.0,0.0,0.0,0.0,0.0,0.0,0.0,0.0,0.0,0.0,0.0,0.0,0.0,0.0,0.0,0.0,0.0,0.0,0.0,0.0,0.0,0.0,0.0,0.0,0.0,0.0,0.0,0.0,0.0,0.0,0.0,0.0,0.0,0.0,0.0,0.0,0.0,3.7244,4.2124,4.5915,4.5644,4.4805,4.3789,3.933,3.6259,3.5435,0.0,0.0,0.0,0.0,0.0,0.0,0.0,0.0,0.0,0.0,0.0,0.0,0.0,0.0,0.0,0.0,0.0,0.0,0.0,0.0,0.0,0.0,0.0,0.0,0.0,0.0,0.0,0.0,0.0,0.0,0.0,0.0,0.0,0.0,0.0,0.0,0.0,0.0,0.0,0.0,0.0,0.0,0.0,0.0,0.0,0.0,0.0,0.0,0.0,0.0,0.0,0.0,0.0,0.0,0.0,0.0,0.0,0.0,0.0,0.0,0.0,0.0,0.0,0.0,0.0,0.0,0.0,0.0,0.0,0.0,0.0,0.0,0.0,0.0,0.0,0.0,0.0,0.0,0.0,0.0,0.0,0.0,0.0,0.0,0.0,0.0,0.0,0.0,0.0,0.0,0.0,0.0,0.0,0.0,0.0,0.0,0.0,0.0,0.0,0.0,0.0,0.0,3.2967,3.831,4.289,4.5749,4.5293,4.4414,4.3535,3.9902,3.709,3.5723,0.0,0.0,0.0,0.0,0.0,0.0,0.0,0.0,0.0,0.0,0.0,0.0,0.0,0.0,0.0,0.0,0.0,0.0,0.0,0.0,0.0,0.0,0.0,0.0,0.0,0.0,0.0,0.0,0.0,0.0,0.0,0.0,0.0,0.0,0.0,0.0,0.0,0.0,0.0,0.0,0.0,0.0,0.0,0.0,0.0,0.0,0.0,0.0,0.0,0.0,0.0,0.0,0.0,0.0,0.0,0.0,0.0,0.0,0.0,0.0,0.0,0.0,0.0,0.0,0.0,0.0,0.0,0.0,0.0,0.0,0.0,0.0,0.0,0.0,0.0,0.0,0.0,0.0,0.0,0.0,0.0,0.0,0.0,0.0,0.0,0.0,0.0,0.0,0.0,0.0,0.0,0.0,0.0,0.0,0.0,0.0,0.0,0.0,0.0,0.0,0.0,0.0,3.466,4.0141,4.4199,4.559,4.4902,4.4043,4.3144,3.957,3.6953,3.5982,0.0,0.0,0.0,0.0,0.0,0.0,0.0,0.0,0.0,0.0,0.0,0.0,0.0,0.0,0.0,0.0,0.0,0.0,0.0,0.0,0.0,0.0,0.0,0.0,0.0,0.0,0.0,0.0,0.0,0.0,0.0,0.0,0.0,0.0,0.0,0.0,0.0,0.0,0.0,0.0,0.0,0.0,0.0,0.0,0.0,0.0,0.0,0.0,0.0,0.0,0.0,0.0,0.0,0.0,0.0,0.0,0.0,0.0,0.0,0.0,2.6092,0.0,0.0,0.0,0.0,0.0,0.0,0.0,0.0,0.0,0.0,0.0,0.0,0.0,0.0,0.0,0.0,0.0,0.0,0.0,0.0,0.0,0.0,0.0,0.0,0.0,0.0,0.0,0.0,0.0,0.0,0.0,0.0,0.0,0.0,0.0,0.0,0.0,0.0,0.0,0.0,0.0,3.4822,4.0141,4.4199,4.559,4.4902,4.4043,4.3144,3.9824,3.7148,3.5625,0.0,0.0,0.0,0.0,0.0,0.0,0.0,0.0,0.0,0.0,0.0,0.0,0.0,0.0,0.0,0.0,0.0,0.0,0.0,0.0,0.0,0.0,0.0,0.0,0.0,0.0,0.0,0.0,0.0,0.0,0.0,0.0,0.0,0.0,0.0,0.0,0.0,0.0,0.0,0.0,0.0,0.0,0.0,0.0,0.0,0.0,0.0,0.0,0.0,0.0,0.0,0.0,0.0,0.0,0.0,0.0,0.0,0.0,0.0,0.0,0.0,2.77,0.0,0.0,0.0,0.0,0.0,0.0,0.0,0.0,0.0,0.0,0.0,0.0,0.0,0.0,0.0,0.0,0.0,0.0,0.0,0.0,0.0,0.0,0.0,0.0,0.0,0.0,0.0,0.0,0.0,0.0,0.0,0.0,0.0,0.0,0.0,0.0,0.0,0.0,0.0,0.0,3.6665,4.0801,4.3906,4.5215,4.4414,4.3496,4.2812,3.998,3.7598,3.6128,3.3379,0.0,0.0,0.0,0.0,0.0,0.0,0.0,0.0,0.0,0.0,0.0,0.0,0.0,0.0,0.0,0.0,0.0,0.0,0.0,0.0,0.0,0.0,0.0,0.0,0.0,0.0,0.0,0.0,0.0,0.0,0.0,0.0,0.0,0.0,0.0,0.0,0.0,0.0,0.0,0.0,0.0,0.0,0.0,0.0,0.0,0.0,0.0,0.0,0.0,0.0,0.0,0.0,0.0,3.3449,3.386,3.4896,3.4896,3.4407,3.3528,3.2969,3.2168,3.123,0.0,0.0,0.0,0.0,0.0,0.0,0.0,0.0,0.0,0.0,0.0,0.0,0.0,0.0,0.0,0.0,0.0,0.0,0.0,0.0,0.0,0.0,0.0,0.0,0.0,3.1991,3.1999,0.0,0.0,0.0,0.0,0.0,0.0,0.0,0.0,0.0,0.0,0.0,0.0,3.8603,4.1484,4.3633,4.4785,4.3808,4.2871,4.2363,4.0078,3.818,3.689,3.4192,3.2226,0.0,0.0,0.0,0.0,0.0,0.0,0.0,0.0,0.0,0.0,0.0,0.0,0.0,0.0,0.0,0.0,0.0,0.0,0.0,0.0,0.0,0.0,0.0,0.0,0.0,0.0,0.0,0.0,0.0,0.0,0.0,0.0,2.563,2.733,0.0,0.0,0.0,0.0,0.0,0.0,0.0,0.0,0.0,0.0,0.0,0.0,0.0,0.0,3.5234,3.5625,3.6309,3.7211,3.7578,3.7848,3.8024,3.8024,3.8337,3.8828,3.8008,0.0,3.2539,3.2539,0.0,0.0,0.0,0.0,0.0,0.0,0.0,0.0,0.0,0.0,0.0,0.0,0.0,0.0,0.0,0.0,0.0,0.0,0.0,0.0,0.0,0.0,3.0984,3.3123,3.4303,3.4752,0.0,3.228,3.0781,3.0156,0.0,0.0,0.0,0.0,0.0,0.0,0.0,0.0,3.8516,4.1562,4.3848,4.4414,4.3633,4.2754,4.1953,4.0176,3.8574,3.7285,3.543,3.3984,3.3125,3.0849,0.0,0.0,0.0,0.0,0.0,0.0,0.0,0.0,0.0,0.0,0.0,0.0,0.0,0.0,0.0,0.0,0.0,0.0,0.0,0.0,0.0,0.0,0.0,0.0,0.0,0.0,0.0,0.0,0.0,2.6406,2.8367,2.8359,2.9551,2.9737,0.0,0.0,0.0,0.0,0.0,0.0,0.0,0.0,0.0,3.4681,3.5098,3.6016,3.7441,3.865,3.9629,4.043,4.1133,4.1719,4.2207,4.2207,4.2402,4.2734,4.2109,4.0605,3.8379,3.601,3.4394,3.3449,0.0,0.0,0.0,0.0,0.0,3.0664,3.0309,3.0394,0.0,0.0,0.0,0.0,0.0,0.0,0.0,0.0,0.0,0.0,0.0,0.0,0.0,3.5845,3.6719,3.7129,3.6949,3.5625,3.3867,0.0,3.1191,3.0713,2.9622,0.0,0.0,0.0,0.0,0.0,4.0098,4.2129,4.3516,4.3965,4.3027,4.2207,4.1836,4.0449,3.9043,3.7734,3.6269,3.4824,3.3445,3.2578,3.2042,0.0,0.0,0.0,0.0,0.0,0.0,0.0,0.0,0.0,0.0,0.0,0.0,0.0,0.0,0.0,0.0,0.0,0.0,0.0,0.0,0.0,0.0,0.0,0.0,0.0,0.0,0.0,0.0,2.8594,3.0273,2.9512,3.125,3.1699,0.0,0.0,0.0,0.0,0.0,0.0,3.3867,3.4896,3.623,3.8086,3.8555,3.9238,4.0215,4.1621,4.2695,4.3437,4.418,4.4922,4.5683,4.5683,4.5683,4.5644,4.5234,4.4609,4.3574,3.9394,3.6871,3.5502,3.459,3.3945,3.3567,3.4062,3.4258,3.4297,3.4662,3.4974,3.5078,3.4355,0.0,3.275,3.0658,0.0,0.0,0.0,0.0,3.0824,3.2629,3.4784,3.6762,3.7933,3.8672,3.9043,3.8945,3.8496,3.7168,0.0,3.3476,3.3281,3.2226,0.0,0.0,0.0,0.0,3.8826,4.1465,4.2539,4.3203,4.3516,4.25,4.1758,4.1641,4.0566,3.9434,3.8284,3.6953,3.5508,3.3952,3.3906,3.3359,0.0,0.0,0.0,0.0,0.0,0.0,0.0,0.0,0.0,0.0,0.0,0.0,0.0,0.0,0.0,0.0,0.0,0.0,0.0,0.0,0.0,0.0,0.0,0.0,0.0,0.0,0.0,0.0,0.0,0.0,3.0703,3.3398,0.0,0.0,0.0,0.0,3.2003,3.3926,3.5703,3.6992,3.8262,3.9922,4.203,4.2558,4.3398,4.4687,4.5195,4.5664,4.6113,4.6562,4.7012,4.7461,4.7461,4.7461,4.7422,4.6992,4.6543,4.584,4.1933,4.0039,3.9394,3.7359,3.6719,3.6992,3.6675,3.6538,3.6538,3.6558,3.6597,3.6734,3.7422,3.7601,3.7094,3.4602,3.3501,0.0,0.0,3.2927,3.3674,3.4907,3.6513,3.8011,3.8926,3.9805,4.0312,3.9922,4.0117,3.959,0.0,3.6133,3.5703,3.5254,0.0,3.6816,3.6675,3.9119,4.1152,4.1719,4.2539,4.3127,4.3146,4.2324,4.1641,4.1269,4.041,3.9687,3.916,3.7559,3.623,3.5332,3.4121,3.3613,3.3977,3.1523,0.0,0.0,0.0,0.0,0.0,0.0,0.0,0.0,0.0,0.0,0.0,0.0,0.0,0.0,0.0,0.0,0.0,0.0,0.0,0.0,0.0,0.0,0.0,0.0,0.0,0.0,0.0,0.0,3.4844,3.6699,0.0,0.0,3.4922,3.5156,3.582,3.7617,3.9375,4.0937,4.2519,4.3965,4.525,4.6289,4.7076,4.748,4.8203,4.8516,4.8379,4.8808,4.9101,4.9258,4.9258,4.9101,4.8808,4.8359,4.793,4.7383,4.5406,4.3574,4.1797,4.0233,3.9492,3.9394,3.9549,3.9784,4.0039,4.0644,4.043,3.9746,3.8343,3.7328,3.6489,3.5605,3.5447,3.5659,3.5981,3.6611,3.7515,3.8815,3.9766,4.0566,4.1094,4.1523,4.166,4.1562,4.1426,4.1152,4.0508,3.8691,3.7172,3.7016,3.6953,3.75,3.9334,4.0723,4.1933,4.291,4.3281,4.3262,4.2715,4.1894,4.1387,4.123,4.0391,3.959,3.8848,3.7496,3.6152,3.5,3.3965,3.3496,3.3652,3.2207,3.1103,0.0,0.0,0.0,0.0,0.0,0.0,0.0,0.0,0.0,0.0,0.0,0.0,0.0,0.0,0.0,0.0,0.0,0.0,0.0,0.0,0.0,0.0,0.0,0.0,0.0,0.0,3.6934,3.8223,3.9766,4.0156,3.875,3.8476,3.8867,4.0019,4.1699,4.3359,4.4984,4.645,4.7519,4.8203,4.9199,4.9668,4.9558,5.0098,5.0176,4.9746,5.0039,5.0176,5.0176,5.0176,5.0019,4.9726,4.9277,4.8926,4.8594,4.7871,4.6484,4.4668,4.3283,4.2422,4.209,4.2539,4.2911,4.3164,4.3594,4.3066,4.1914,4.0021,3.883,3.8128,3.8008,3.8379,3.8982,3.9512,4.0176,4.0879,4.166,4.2031,4.2266,4.2362,4.2539,4.2598,4.2421,4.2324,4.2324,4.2598,4.0801,3.9141,3.8811,3.8457,3.8845,4.0684,4.1191,4.1777,4.291,4.3066,4.2793,4.207,4.1641,4.1269,4.0976,4.0039,3.9141,3.8398,3.6875,3.5625,3.4726,3.373,3.3203,3.3203,3.1953,3.0908,3.0048,0.0,0.0,0.0,0.0,0.0,0.0,0.0,0.0,0.0,0.0,0.0,0.0,0.0,0.0,0.0,0.0,0.0,0.0,0.0,0.0,0.0,0.0,0.0,3.3473,3.7391,4.0327,4.0856,4.278,4.3408,4.1798,4.2681,4.3698,4.4599,4.6205,4.7668,4.8894,4.984,5.0525,5.0859,5.1269,5.1289,5.0879,5.0879,5.0664,5.0254,5.0254,5.0254,5.0254,5.0254,5.0234,5.0195,4.9766,4.9523,4.9512,4.9109,4.8633,4.8086,4.6406,4.5488,4.5156,4.5586,4.5785,4.5664,4.5215,4.4219,4.3086,4.2637,4.244,4.2362,4.1992,4.2461,4.3144,4.3144,4.3437,4.3672,4.3262,4.3185,4.3027,4.2617,4.2832,4.3027,4.2598,4.2832,4.3125,4.3185,4.2461,4.1621,4.0762,4.0996,4.1133,4.0723,4.0626,0.0,4.1816,4.1894,4.1719,4.1289,4.1582,4.1484,4.0605,3.9336,3.8398,3.7894,3.5859,3.4648,3.4648,3.3418,3.2754,3.2754,3.0732,3.0087,3.0918,0.0,0.0,0.0,0.0,0.0,0.0,0.0,0.0,0.0,0.0,0.0,0.0,0.0,0.0,0.0,0.0,0.0,0.0,0.0,0.0,0.0,0.0,4.0221,4.0654,4.3122,4.6263,4.9925,5.1223,5.1596,5.105,4.9808,4.9369,5.0213,5.1394,5.1514,5.0329,5.2863,5.3696,5.2217,5.2305,5.2461,5.2656,5.2344,5.2129,5.2012,5.2012,5.2012,5.2012,5.2012,5.168,5.1074,5.0909,5.0566,4.9961,4.9531,4.9277,4.9016,4.7949,4.7246,4.6894,4.7012,4.7095,4.6953,4.6211,4.5508,4.4886,4.4101,4.3633,4.334,4.3223,4.3789,4.4492,4.4492,4.4805,4.5098,4.5,4.4726,4.4453,4.4336,4.4352,4.4453,4.4294,4.416,4.4121,4.4433,4.4062,4.3496,4.293,4.3203,4.3574,4.3728,4.4062,0.0,4.459,4.4062,4.3281,4.2187,4.2461,4.2129,4.0606,3.9609,3.8594,0.0,3.5137,3.3633,3.334,3.2383,3.1875,3.1875,3.1289,3.125,0.0,0.0,0.0,0.0,0.0,0.0,0.0,0.0,0.0,0.0,0.0,0.0,0.0,0.0,0.0,0.0,0.0,0.0,0.0,0.0,0.0,0.0,4.3994,4.7898,5.064,5.0894,5.2072,5.5464,5.54,5.549,5.6477,5.4601,5.3932,5.5421,5.5493,5.5351,5.5216,5.545,5.5512,5.5244,5.4457,5.4023,5.3977,5.3476,5.3164,5.2988,5.2793,5.2715,5.2715,5.2715,5.2441,0.0,5.1533,5.1152,5.0664,5.0039,4.9687,0.0,0.0,0.0,0.0,0.0,4.8008,4.7734,4.707,4.6445,4.582,4.5156,4.4863,4.4805,4.4805,4.541,4.6094,4.6094,4.6269,4.6426,4.625,4.5879,4.5508,4.5332,4.5293,4.5254,4.5016,4.5117,4.5215,4.5293,4.5391,0.0,4.4863,4.4414,4.4141,4.4199,4.4277,4.4316,4.4316,4.4043,4.334,4.2051,4.2441,4.2187,4.0606,3.9375,0.0,0.0,0.0,3.3066,3.2285,3.1777,0.0,0.0,0.0,3.1094,3.1894,0.0,0.0,0.0,3.0517,2.9941,0.0,0.0,0.0,0.0,0.0,0.0,0.0,0.0,0.0,0.0,0.0,0.0,0.0,0.0,0.0,0.0,5.0304,5.5136,6.1494,5.9886,5.8371,5.9246,5.7918,5.7763,6.0023,5.8416,5.8111,6.0403,5.9291,5.9452,6.1562,0.0,0.0,0.0,0.0,5.5566,5.4824,5.4394,5.4118,5.406,5.3665,5.3418,5.3418,5.3418,5.3229,5.2812,5.1992,5.1553,5.1445,5.0586,5.0,4.9551,4.9109,4.8913,4.8913,4.8913,4.8659,4.8223,4.7793,0.0,0.0,4.6079,4.6133,4.6445,4.6445,4.7012,4.7656,4.7656,4.7656,4.7539,4.7109,4.6699,4.6269,4.584,4.5781,4.5703,4.5312,4.5879,4.6328,4.5957,4.6484,4.6894,4.6504,4.5117,4.3926,4.3496,4.3105,4.283,4.283,4.3125,4.2812,4.1621,0.0,0.0,4.0703,3.9006,3.7715,3.691,3.4726,3.2949,3.1719,3.166,3.1465,3.1035,3.0341,3.0508,3.166,3.1328,3.1758,3.2832,3.1699,3.1348,0.0,0.0,0.0,0.0,0.0,0.0,0.0,0.0,0.0,0.0,0.0,0.0,0.0,0.0,0.0,5.3497,5.7819,6.208,6.7171,6.8098,6.7703,6.6182,6.6399,6.6724,6.6758,6.5054,6.4297,6.5235,6.5399,6.4954,6.3855,6.3234,0.0,6.0442,5.7483,5.5859,5.5703,5.5273,5.6099,5.8165,0.0,0.0,5.804,5.804,5.6477,5.375,5.3223,5.2598,5.1894,5.1035,5.043,4.998,4.9226,4.8913,4.8913,4.8913,4.8855,4.8718,4.8242,4.7969,4.7773,4.7344,4.7266,4.7324,4.7324,4.7676,0.0,4.8086,4.8086,4.7988,4.7558,4.7129,4.6699,4.6289,4.6445,4.6616,4.6538,4.6973,4.7305,4.7226,4.7344,4.7422,4.7344,4.6758,4.6128,4.5742,4.5605,4.5547,4.5547,4.5019,4.4277,4.332,4.3359,4.2812,4.1191,3.9766,3.8594,3.7734,3.5332,3.3535,3.2578,3.2539,3.2344,3.1964,3.209,3.2285,3.2559,3.2812,3.3035,3.3269,3.3016,3.2793,0.0,0.0,0.0,0.0,0.0,0.0,0.0,0.0,0.0,0.0,0.0,4.1106,0.0,0.0,5.4597,6.0087,6.4254,6.769,7.0293,7.1636,7.1711,7.0054,6.9471,6.9562,7.0543,6.8911,6.8276,6.9559,6.9214,6.8919,6.9016,6.7021,6.5772,6.5627,6.2903,6.1359,6.1127,6.0716,6.1204,6.2488,6.2009,6.1741,6.1719,6.148,5.9504,5.6305,5.5959,5.4614,5.2637,5.1562,5.0879,5.043,4.9832,4.9394,4.916,4.8991,4.8913,4.8835,4.8359,4.8203,4.8144,4.7715,4.7715,4.7891,4.7891,4.8203,4.8535,4.8535,4.8535,4.8476,4.8327,4.7891,4.7519,4.7305,4.7246,4.7246,4.7246,4.7598,4.8173,4.9167,4.8748,4.8474,4.9231,4.8345,4.7299,4.6719,4.6621,4.6465,4.6035,4.543,4.4687,4.3789,4.332,4.2637,4.1582,4.0078,3.8828,3.7969,3.6328,3.5078,3.4434,3.3984,3.3652,3.3469,3.3469,3.3535,3.375,3.3965,3.4062,3.4062,3.4062,3.3848,0.0,0.0,0.0,0.0,0.0,0.0,0.0,0.0,4.1662,4.4761,4.5871,4.8325,5.5143,5.8444,6.1556,6.5864,6.9376,7.1811,7.2464,7.3343,7.3619,7.2816,7.1098,7.0786,7.2804,7.1589,7.1346,7.3052,7.2054,7.2151,7.4,7.0167,6.8724,7.0509,6.8227,6.6789,6.6272,6.5993,6.6096,6.6603,6.5642,6.521,6.5187,6.4687,6.2668,5.9521,5.8845,5.7017,5.4492,5.3346,5.2663,5.2301,5.1906,5.1504,5.1002,4.9531,4.8972,4.8855,4.8457,4.834,4.8281,4.793,4.8066,4.834,4.834,4.8574,4.8913,4.8913,4.8913,4.8894,4.8796,4.8476,4.8183,4.8105,4.7891,4.7695,4.7695,4.839,4.9497,5.105,5.0743,5.0488,5.1224,5.0054,4.8571,4.7232,4.7051,4.6777,4.6016,4.5547,4.4941,4.4062,4.3125,4.2285,4.1601,4.0254,3.9082,3.8223,3.7539,3.6894,3.6289,3.5586,3.5137,3.4961,3.4583,3.4531,3.4961,3.4785,3.4785,3.4961,3.4961,3.4726,4.0129,3.9308,0.0,4.0227,4.1035,4.2665,0.0,0.0,4.7774,5.3516,5.4719,5.6367,6.1671,6.488,6.7693,7.0661,7.2364,7.3669,7.4675,7.4926,7.5176,7.5602,7.4531,7.3932,7.4173,7.403,7.4182,7.4876,7.4757,7.5007,7.5803,7.2937,7.1227,7.1083,6.8462,6.6789,6.6272,6.6279,6.7433,6.9874,6.9233,6.8876,6.8901,6.8332,6.6138,6.2583,6.0804,5.9642,5.8875,5.8207,5.7942,5.7854,5.7369,5.7194,5.6494,5.1347,4.9199,4.8894,4.8855,4.8835,4.8815,4.8776,4.8796,4.8835,4.8835,4.8855,4.8913,4.8913,4.8913,4.8815,4.8379,4.8242,4.8105,4.7734,4.7891,4.8144,4.8144,5.0145,5.1968,5.224,5.3794,5.45,5.2597,5.2082,5.0936,4.7976,4.75,4.7324,4.6855,4.6426,4.584,4.4961,4.375,4.2363,4.0762,4.0488,4.0,3.9121,3.8965,3.8379,3.7207,3.7051,3.6641,3.5845,3.5469,3.5449,3.5845,3.5078,3.5098,3.5845,3.5845,3.5644,4.2585,0.0,0.0,0.0,4.6326,4.8466,5.2126,5.3417,5.499,5.9178,6.1344,6.3556,6.733,6.9727,7.1661,0.0,7.4297,7.5075,7.5177,7.5502,7.5452,7.4699,7.5075,7.5377,7.5377,7.5377,7.5452,7.5703,7.5703,7.5804,7.6104,7.4937,7.424,7.4093,7.2918,7.222,7.2003,7.2003,7.2579,7.3724,7.3084,7.2667,7.2323,7.1807,6.9383,6.538,6.2398,6.0878,6.0409,5.9914,5.9486,5.9218,5.8725,5.8344,5.7715,5.476,5.2706,5.1377,5.1066,5.0048,4.8913,4.8913,4.8913,4.8913,4.8913,4.8913,4.8913,4.8913,4.8913,4.8855,4.8679,4.864,4.8535,4.8405,4.8503,4.8987,5.0337,5.1588,5.3193,5.5877,5.6117,5.5574,5.461,5.3304,5.1453,4.877,4.7891,4.7422,4.6948,4.6348,4.5508,4.4375,4.332,4.2305,4.1348,4.1035,4.0742,4.0371,4.0117,3.9726,3.9199,3.8691,3.8125,3.7519,3.709,3.6836,3.6758,3.6387,3.6406,3.6758,3.6758,3.6797,4.4016,0.0,0.0,4.8761,5.1197,5.3658,5.6746,5.9031,6.1341,6.4279,6.6714,6.9074,7.156,7.3117,7.4272,7.4975,7.5628,7.6029,7.5728,7.5653,7.505,7.3544,7.4146,7.4798,7.4948,7.5652,7.6104,7.6104,7.6104,7.6104,7.6104,7.6104,7.6104,7.6104,7.6104,7.6104,7.6104,7.6104,7.6104,7.6104,7.5502,7.4976,7.4623,7.3745,7.1493,6.8104,6.5117,6.3569,6.313,6.2596,6.2156,6.1807,6.1275,6.0834,6.046,5.9438,5.6621,5.3184,5.2019,5.0503,4.907,4.8952,4.8913,4.8913,4.8913,4.8913,4.8913,4.8913,4.8913,4.8913,4.8913,4.8913,4.8913,4.8913,4.938,5.0322,5.2027,5.3416,5.5267,5.8649,5.8502,5.7392,5.6096,5.4477,5.2321,4.9335,4.8223,4.7598,4.7168,4.6269,4.5215,4.4023,4.3223,4.2519,4.1855,4.1523,4.1348,4.1211,4.0879,4.0644,4.0489,3.9902,3.9375,3.8982,3.8496,3.8184,3.8008,3.7773,3.7773,3.8008,3.7871,3.8066,4.4166,0.0,4.7431,5.2302,5.5178,5.7838,6.1677,6.3902,6.6036,6.9396,7.0958,7.2288,7.3996,7.4751,7.5552,7.6632,7.6431,7.628,7.6808,7.5452,7.4046,7.2844,7.1861,7.1435,0.0,7.4521,7.6104,7.6104,7.6104,7.6104,7.6104,7.6104,7.6104,7.6104,7.6104,7.6104,7.6104,7.6104,7.6104,7.6104,7.5502,7.5177,7.5102,7.3471,7.2091,7.0915,6.9676,6.8855,6.8349,6.7799,6.7548,6.7473,6.6966,6.6741,6.6591,6.5464,6.025,5.3391,5.0544,4.9558,4.9433,4.905,4.8913,4.8913,4.8913,4.8913,4.8913,4.8913,4.8913,4.8913,4.8913,4.8913,4.8913,4.8913,5.0621,5.2297,5.2366,5.5921,5.9138,5.9264,6.1076,6.1184,5.666,5.5835,5.4213,4.961,4.8476,4.8027,4.7617,4.6509,4.5351,4.4473,4.3945,4.3164,4.1914,4.1797,4.1601,4.123,4.1211,4.0957,4.0508,4.045,4.0273,3.9863,3.9394,3.9375,3.9824,3.8945,3.8984,3.9805,3.9355,3.9394,4.6451,0.0,5.3808,5.77,6.0613,6.3425,6.6965,6.8748,7.0104,7.1585,7.1309,7.0882,7.1037,7.0937,7.146,7.3268,7.4372,7.5402,7.6707,7.6406,7.4824,7.1485,7.2062,0.0,0.0,0.0,0.0,7.5427,7.5854,7.6104,7.6104,7.6104,7.6104,7.6104,7.6104,7.6104,7.6104,7.6104,7.6104,7.6104,7.5126,7.465,7.46,7.2941,7.1987,7.1585,7.0857,7.0229,6.9652,6.9125,6.8628,6.8296,6.7744,6.7292,6.6741,6.4739,6.2108,5.9044,5.5525,5.2167,4.9406,4.905,4.8913,4.8913,4.8913,4.8913,4.8913,4.8913,4.8913,4.8913,4.8913,4.8913,4.9308,5.0848,5.1847,5.3238,5.6311,5.8181,5.9751,6.1325,6.2265,6.135,5.6703,5.5879,5.4301,4.961,4.8476,4.7949,4.7246,4.6523,4.5762,4.4902,4.4141,4.3418,4.2715,4.2383,4.2031,4.1621,4.1582,4.1406,4.0976,4.0957,4.0742,4.0312,4.0156,4.0019,3.9902,3.959,3.9609,3.9883,3.9726,3.9746,5.0594,5.4813,5.9182,6.2898,6.5609,6.802,7.0556,7.2012,7.2615,7.1987,7.0531,6.9024,6.7869,6.6413,6.6614,7.0405,7.161,7.3117,7.6155,7.5904,7.4272,7.1209,7.1585,7.1359,0.0,0.0,0.0,7.4751,7.5452,7.5929,7.638,7.6205,7.6205,7.638,7.6205,7.6104,7.6104,7.6104,7.6104,7.6104,7.5352,7.4799,7.4372,7.3293,7.2464,7.1887,7.1535,7.1058,7.0551,6.9953,6.9526,6.9125,6.8371,6.7869,6.7317,6.5346,6.3823,6.214,5.7514,5.3756,5.0843,4.9544,4.9031,4.8913,4.8913,4.8913,4.8913,4.8913,4.8913,4.8913,4.8913,4.9518,5.053,5.2027,5.3682,5.566,5.8672,5.9961,6.0993,6.2511,6.2781,6.1308,5.666,5.4477,5.2387,4.9335,4.8613,4.8125,4.7266,4.6797,4.6211,4.5351,4.4609,4.3945,4.3359,4.2773,4.2246,4.1836,4.166,4.1445,4.123,4.1211,4.1035,4.0762,4.0762,4.0625,4.0351,4.0351,4.0351,4.0351,4.0351,4.0351,5.6319,6.0311,6.35,6.7769,7.0029,7.1485,7.2565,7.3519,7.3368,7.0652,6.8522,6.6513,0.0,0.0,6.1542,6.8001,6.8547,6.9978,7.5476,7.4347,7.274,0.0,0.0,0.0,0.0,0.0,0.0,7.4297,0.0,7.5728,7.6808,7.6456,7.6431,7.6908,7.6431,7.6154,7.6154,7.6129,7.6104,7.6104,7.6079,7.5477,7.4448,7.4397,7.3494,7.1987,7.1962,7.161,7.1033,7.0551,7.0325,7.0149,6.9074,6.8622,6.8447,6.7417,6.5533,6.266,5.6875,5.4427,5.3387,5.061,4.9331,4.8933,4.8913,4.8913,4.8913,4.8913,4.8986,4.9078,4.9078,5.0848,5.2611,5.2724,5.614,5.942,5.9457,6.1267,6.2832,6.2807,6.27,6.1159,5.6594,5.2141,4.917,4.8959,4.8986,4.8738,4.776,4.7226,4.6641,4.5844,4.5293,4.4668,4.3808,4.2969,4.2265,4.1855,4.1465,4.125,4.1211,4.1211,4.1211,4.1211,4.1211,4.1211,4.1211,4.1211,4.1211,4.1211,4.1211,4.1211,6.1391,6.5753,6.9225,7.1184,7.2313,7.3142,7.382,7.2241,6.9983,6.7668,6.2898,5.8353,0.0,0.0,0.0,6.3785,6.8798,0.0,7.7335,7.7059,0.0,0.0,0.0,7.2715,7.1585,7.2364,0.0,0.0,7.5102,7.5728,7.6808,7.7134,7.7335,7.7486,7.7009,7.6732,7.6732,7.6305,7.6104,7.6104,7.5628,7.5301,7.4951,7.4171,7.3569,7.3142,7.2715,7.1962,7.1083,7.0932,7.0405,6.9582,6.9306,6.8723,6.797,6.7693,6.6691,6.4912,6.1615,5.7776,5.4082,5.2711,5.0952,4.9297,4.9011,4.8913,4.8913,4.8913,5.0139,5.1507,5.1507,5.3539,5.5953,5.7223,5.9089,6.0818,6.1729,6.2712,6.335,6.2882,6.1366,5.9264,5.6334,5.4807,5.2881,4.9426,5.0393,5.0669,4.8332,4.7676,4.709,4.623,4.5469,4.4805,4.4258,4.3711,4.3066,4.2265,4.2168,4.1836,4.123,4.1211,4.1211,4.1211,4.1211,4.1211,4.1211,4.1211,4.1211,4.1211,4.1211,4.1211,6.6463,7.0255,7.3117,7.3971,7.4423,7.4171,7.2313,6.9677,6.5968,6.0387,5.5666,0.0,4.8962,0.0,0.0,0.0,0.0,0.0,7.7511,7.7687,7.6984,0.0,7.5427,0.0,7.382,7.4297,7.5025,0.0,7.5728,7.618,7.7536,7.7662,7.7712,7.7712,7.7159,7.6808,7.6556,7.6255,7.6104,7.6104,7.5753,7.5477,7.5177,7.4598,7.4171,7.392,0.0,7.2765,7.2138,7.1661,7.1083,7.0435,6.9978,6.9426,6.8823,6.8346,6.7618,6.6641,6.5007,6.1644,5.7708,5.596,5.3566,5.1327,5.0909,5.0909,5.103,5.0828,5.2646,5.4643,5.4643,5.6619,5.8817,5.9811,6.1309,6.2682,6.3086,6.3651,6.3877,6.3324,6.1098,5.8884,5.7583,5.6507,5.4939,5.2366,5.2207,5.1854,5.0231,4.8607,4.7246,4.6387,4.5703,4.5137,4.4707,4.4082,4.3418,4.2754,4.2363,4.1933,4.1465,4.1308,4.1211,4.1211,4.2062,4.2042,4.1211,4.2062,4.2023,4.1211,4.1211,4.1211,7.1309,7.4046,7.5653,7.6104,7.6004,7.4471,6.9426,6.6061,6.1266,5.1724,0.0,4.5899,4.3664,4.615,5.1381,5.991,0.0,7.0807,7.7059,7.7461,7.7335,7.7963,7.7185,7.6632,7.6556,7.6607,7.6833,7.7185,7.6808,7.7084,7.844,7.8139,7.7862,7.7712,7.7235,7.6682,7.6104,7.6104,7.6104,7.6104,7.6104,7.5804,7.5303,7.5227,7.4926,7.4498,0.0,0.0,7.3393,7.2263,7.1761,7.1585,7.0556,7.0149,6.9974,6.8974,6.8221,6.7618,6.7141,6.5207,6.2463,5.9561,5.6654,5.4326,5.3905,5.4008,5.4242,5.3884,5.5794,5.798,5.798,5.9768,6.1557,6.1485,6.3153,6.4572,6.3927,6.4195,6.4371,6.3877,6.1691,5.9763,5.9468,5.7929,5.655,5.5966,5.4433,5.3083,5.2371,4.9602,4.7363,4.6562,4.6035,4.5586,4.5156,4.4297,4.3613,4.3224,4.2402,4.1953,4.1894,4.1523,4.1484,4.1796,4.343,4.3621,4.2203,4.3867,4.3698,4.1796,4.1796,4.1601,7.5276,7.6632,7.7185,7.6833,7.5377,7.2715,6.7693,6.1642,0.0,0.0,4.2811,3.9873,4.0325,4.4242,5.0594,6.0286,6.566,7.1083,0.0,0.0,7.8616,0.0,0.0,0.0,0.0,0.0,0.0,0.0,0.0,7.8716,7.854,7.8892,7.8666,7.7737,7.7611,7.7084,7.6104,7.6104,7.6104,7.6104,7.6104,7.6054,7.5953,7.5452,7.5152,7.5002,7.4021,0.0,7.2791,7.1686,7.0958,7.0526,6.9828,6.93,6.8874,6.8698,6.797,6.7116,6.7015,6.6329,6.5013,6.2114,5.9421,5.7264,5.6888,5.6799,5.6843,5.6754,5.851,6.0399,6.0399,6.2468,6.4456,6.3983,6.4903,6.5559,6.4555,6.4446,6.4471,6.4396,6.3586,6.233,6.0379,6.0886,6.0302,5.6486,5.7154,5.6607,5.2372,4.9617,4.791,4.7422,4.666,4.6016,4.5605,4.4766,4.4082,4.3633,4.3125,4.2695,4.2284,4.2246,4.3041,4.4785,4.5173,4.6018,4.7408,4.7749,4.686,4.4824,4.4824,4.3724,7.628,7.7712,7.8817,7.7963,7.5427,7.1083,6.3133,0.0,0.0,0.0,3.6659,3.5152,3.5705,4.1277,0.0,5.4486,6.0713,6.7267,7.4473,7.5753,0.0,0.0,0.0,0.0,0.0,0.0,0.0,0.0,0.0,7.9695,7.9419,7.8842,7.8264,7.7712,7.7134,7.6632,7.6104,7.6104,7.6104,7.6104,7.6104,7.6104,7.6104,7.5778,7.5502,7.5152,7.4372,0.0,7.3117,7.2288,7.1786,7.146,7.0631,7.0129,6.9803,6.8949,6.8095,6.7367,6.7109,6.6589,6.5889,6.4488,6.2397,6.0281,5.9884,5.9907,6.0069,5.9791,6.1625,6.3651,6.3651,6.469,6.566,6.5383,6.5509,6.5609,6.5383,6.4923,6.4597,6.4873,6.4496,6.3686,6.2251,6.2697,6.2382,5.9865,5.9372,5.8428,5.5952,5.2586,4.9693,4.7772,4.7012,4.6465,4.6035,4.543,4.4785,4.4101,4.3652,4.3203,4.2773,4.3579,4.4564,4.5598,4.7915,4.8981,4.8711,5.0022,4.8906,4.5598,4.5598,4.422,7.6833,7.844,7.9871,7.8515,7.4975,6.9105,5.8817,5.1498,0.0,0.0,3.1742,3.1742,3.257,3.8065,4.4113,0.0,5.5189,6.2094,7.0229,7.2665,7.5402,0.0,0.0,0.0,0.0,0.0,0.0,0.0,0.0,0.0,8.0047,7.8792,7.7963,7.7712,7.6858,7.633,7.6104,7.6104,7.6104,7.6104,7.6104,7.6104,7.6104,7.6104,7.5753,7.5152,7.46,0.0,0.0,7.2841,7.2489,7.2288,7.1284,7.0832,7.0556,6.915,6.8271,6.7744,6.7317,6.6689,6.6137,6.6262,6.4925,6.3217,6.2828,6.2996,6.3193,6.2828,6.4376,6.6112,6.6112,6.6112,6.6112,6.6112,6.5785,6.5584,6.6011,6.5434,6.4999,6.5383,6.5032,6.4521,6.3952,6.3776,6.35,6.2882,6.1242,5.9877,5.9349,5.5726,5.198,4.8972,4.7676,4.6894,4.6465,4.5976,4.5391,4.4707,4.4238,4.4035,4.4214,4.5504,4.6599,4.7515,5.1047,5.2151,5.0654,5.2662,5.1251,4.6723,4.6723,4.5062,7.8691,7.9645,7.9695,7.7561,7.2991,6.6513,5.6972,0.0,4.118,3.314,3.0262,3.0287,3.3825,3.5104,3.9019,4.9439,5.2151,5.6846,6.8051,7.1937,7.5251,7.9746,0.0,0.0,0.0,0.0,0.0,0.0,0.0,0.0,7.952,7.9319,7.8766,7.7737,7.7611,7.7059,7.6104,7.6104,7.6104,7.6104,7.6104,7.6104,7.6104,7.6104,7.5753,7.5152,7.46,0.0,0.0,7.2414,7.1686,7.1184,7.0627,7.0029,6.9481,6.8829,6.8271,6.7794,6.7744,6.7015,6.6187,6.6714,6.6409,6.5742,6.5735,6.5717,6.5785,6.5735,6.5889,6.6112,6.6112,6.6112,6.6112,6.6112,6.6061,6.6036,6.6112,6.6036,6.5986,6.6036,6.5584,6.5032,6.4521,6.4002,6.35,6.2882,6.2618,6.1722,5.9559,5.7111,5.4676,5.2216,4.9302,4.7344,4.687,4.6133,4.5688,4.5609,4.5156,4.5772,4.7733,4.798,4.9872,5.3818,5.4253,5.5341,5.7062,5.7287,5.4947,5.0327,5.0327,4.7666,7.6833,7.9495,8.1076,7.8515,7.2966,6.5484,5.539,0.0,3.9295,3.1512,2.9107,2.8982,3.0864,3.2294,3.5303,4.1756,4.4392,4.9181,5.9533,6.3651,6.8371,7.5829,7.8967,0.0,0.0,0.0,0.0,0.0,0.0,0.0,7.9444,7.8741,7.8164,7.7712,7.7059,7.6556,7.6104,7.6104,7.6104,7.6104,7.6104,7.6104,7.6104,7.6104,7.5578,7.4724,7.4523,0.0,0.0,7.259,7.2087,7.1535,7.0958,7.043,6.9828,6.8949,6.8472,6.8246,6.7919,6.7292,6.6664,6.689,6.6589,6.6112,6.6112,6.6112,6.6112,6.6112,6.6112,6.6112,6.6112,6.6112,6.6187,6.6564,6.6363,6.6112,6.6112,6.6112,6.6112,6.6112,6.5936,6.5609,6.5057,6.4572,6.3977,6.3425,6.3007,6.247,6.1556,5.8162,5.553,5.4544,5.0572,4.7793,4.7363,4.6777,4.6211,4.5703,4.6774,4.769,4.8252,5.0781,5.2977,5.4646,5.6308,5.7379,5.7901,5.8227,5.5771,5.0805,5.0805,4.8037,7.4446,7.824,8.065,7.8365,7.2012,6.3751,0.0,0.0,3.7362,3.0563,2.8599,2.8304,2.9032,3.0563,3.2817,3.6157,3.9144,4.4238,5.3381,5.8077,6.3475,0.0,0.0,0.0,0.0,0.0,0.0,0.0,0.0,0.0,0.0,7.8566,7.7938,7.7938,7.7034,7.6506,7.6355,7.6179,7.6104,7.6104,7.6104,7.6029,7.5804,7.5804,7.5201,7.4171,0.0,0.0,0.0,7.2517,7.2163,7.161,7.1058,7.0506,6.9903,6.8974,6.8578,6.8572,6.817,6.7568,6.7041,6.7367,6.6965,6.6363,6.6363,6.6237,6.6112,6.6112,6.6112,6.6112,6.6112,6.6112,6.6212,6.6614,6.6413,6.6112,6.6112,6.6112,6.6112,6.6112,6.6112,6.5936,6.5383,6.4982,6.4572,6.4002,6.345,6.3099,6.3099,5.8875,5.5879,5.5813,5.1377,4.8223,4.7793,4.7363,4.7106,4.7052,4.8661,4.9953,5.0633,5.3875,5.588,5.6362,5.8199,5.9006,5.8604,5.883,5.6629,5.2182,5.1571,4.8466,7.1962,7.5653,7.7486,7.6406,6.9426,6.0649,0.0,4.3162,3.5175,3.0708,2.89,2.8448,2.9578,3.0256,3.1692,3.4981,3.8341,4.341,5.1741,5.77,6.2621,0.0,0.0,0.0,0.0,0.0,0.0,0.0,0.0,0.0,0.0,7.9118,7.8515,7.8515,7.7963,7.7411,7.6883,7.638,7.6104,7.6104,7.6104,7.5778,7.5202,7.5202,7.46,0.0,0.0,0.0,0.0,7.2138,7.1585,7.1033,7.0526,6.9928,6.9331,6.8779,6.8578,6.8578,6.8578,6.7894,6.7166,6.8246,6.7869,6.7009,6.7009,6.6564,6.6112,6.6112,6.6112,6.6112,6.6112,6.6112,6.6112,6.6112,6.6112,6.6112,6.6112,6.6112,6.6112,6.6112,6.6112,6.5936,6.5383,6.5283,6.5082,6.4572,6.4028,6.3676,6.3676,5.911,5.5879,5.5813,5.1667,4.8718,4.8242,4.7812,4.8324,5.005,5.0729,5.2599,5.5959,5.7231,5.8621,6.0233,6.0247,6.0272,6.0247,5.9759,5.8126,5.5485,5.3314,4.9452,6.1918,6.5434,6.7317,6.3902,5.8654,5.2544,4.5719,3.9822,3.4427,2.9628,2.8631,2.8756,2.9107,2.9679,3.1763,3.6985,3.9019,4.2735,5.0695,0.0,0.0,6.802,7.588,0.0,0.0,0.0,0.0,0.0,0.0,0.0,0.0,7.9294,7.8942,7.854,7.7611,7.7059,7.6883,7.638,7.6104,7.6104,7.6104,7.5753,7.5202,7.5202,0.0,0.0,0.0,0.0,0.0,7.2539,7.1912,7.1058,7.0882,7.0255,6.9381,6.9205,6.913,6.913,6.913,6.8427,6.7668,6.8396,6.7618,6.6463,6.6865,6.684,6.6614,6.6237,6.6112,6.6212,6.6589,6.6413,6.6212,6.6614,6.6388,6.6112,6.6112,6.6112,6.6112,6.6112,6.6112,6.6061,6.5886,6.5534,6.5233,6.5057,6.4622,6.4103,6.3726,6.0827,5.8687,5.8228,5.5508,5.2845,5.0758,5.046,5.1209,5.3073,5.4794,5.6234,5.7309,5.917,6.0362,6.0914,6.0914,6.0914,6.0914,6.0337,5.7725,5.3297,5.0772,4.788,5.4009,5.7926,5.9935,5.7374,5.2569,0.0,0.0,3.7037,3.2721,2.9428,2.9157,2.9534,2.9534,3.0382,3.2361,3.6356,3.8366,4.1806,0.0,0.0,0.0,6.8277,0.0,0.0,0.0,0.0,0.0,0.0,0.0,0.0,0.0,7.9495,7.9118,7.854,7.7662,7.7185,7.7185,7.6481,7.6104,7.6104,7.5854,7.5452,7.4876,7.4724,0.0,0.0,0.0,0.0,0.0,7.2288,7.1711,7.1033,7.0631,7.0008,6.9406,6.9406,6.9406,6.9406,6.9406,6.8804,6.8196,6.8703,6.79,6.6815,6.7166,6.699,6.6614,6.6488,6.6287,6.6287,6.7091,6.6689,6.6262,6.684,6.6538,6.6112,6.6112,6.6112,6.6112,6.6112,6.6112,6.6112,6.6112,6.5835,6.5609,6.5609,6.5132,6.4655,6.4329,6.1916,6.0039,5.9706,5.7355,5.5527,5.4629,5.38,5.4061,5.5962,5.7548,5.8643,5.9122,6.0859,6.1718,6.1492,6.1492,6.1492,6.1492,6.0914,5.7926,5.2783,5.1114,4.8505,0.0,5.19,5.411,5.4386,4.9389,4.3463,3.9823,3.465,0.0,2.9854,3.0206,3.0638,3.0738,3.1964,3.3316,3.4274,0.0,0.0,0.0,5.3046,0.0,0.0,0.0,0.0,0.0,0.0,0.0,0.0,0.0,0.0,0.0,7.962,7.9068,7.854,7.7938,7.7637,7.7637,7.6632,7.6104,7.6104,7.5502,7.4901,7.4397,7.3845,0.0,0.0,0.0,0.0,0.0,7.156,7.1083,7.0932,6.9858,6.9431,6.9406,6.9406,6.9406,6.9406,6.9406,6.9029,6.8698,6.913,6.8603,6.7794,6.7744,6.699,6.6237,6.6764,6.6564,6.6413,6.7417,6.694,6.6312,6.684,6.6564,6.6162,6.6162,6.6162,6.6162,6.6112,6.6112,6.6112,6.6112,6.6112,6.6112,6.6112,6.5685,6.5333,6.5283,6.2483,6.0485,6.0438,5.795,5.7197,5.9349,5.7478,5.6885,5.87,5.9255,6.0092,6.1261,6.2295,6.2556,6.2069,6.2069,6.2044,6.1994,6.1492,5.8758,5.3998,5.385,5.0994,3.5452,0.0,4.0275,3.7839,3.5655,3.3771,0.0,3.1336,0.0,0.0,0.0,3.1009,3.2286,3.2135,3.3495,0.0,0.0,0.0,0.0,0.0,0.0,0.0,0.0,0.0,0.0,0.0,0.0,0.0,0.0,8.0022,7.9595,7.9043,7.8666,7.8515,7.7586,7.7084,7.7084,7.6431,7.6104,7.6104,7.5502,7.4901,7.4397,7.3845,0.0,0.0,0.0,0.0,7.2087,7.1811,7.1209,7.0476,7.0179,6.9828,6.9406,6.9406,6.9406,6.9406,6.9406,6.9029,6.8528,6.8296,6.802,6.7719,6.7292,6.6689,6.6137,6.6287,6.6538,6.6739,6.6564,6.6639,6.6815,6.6984,6.6865,6.6764,6.6764,6.6764,6.6639,6.6187,6.6112,6.6112,6.6112,6.6112,6.6112,6.6112,6.6011,6.576,6.5333,6.4234,6.3325,6.2928,6.186,6.1391,6.1952,5.9835,5.9451,6.1631,6.1919,6.21,6.2405,6.2656,6.2731,6.2606,6.2581,6.2421,6.1994,6.1868,6.0114,5.6873,5.5062,5.2667,2.9955,3.2315,3.4449,3.2638,3.1763,3.1115,3.0357,3.0206,2.996,0.0,0.0,3.116,3.1838,3.2692,0.0,0.0,0.0,0.0,0.0,0.0,0.0,0.0,0.0,0.0,0.0,0.0,0.0,0.0,0.0,7.9595,7.9018,7.8691,7.8289,7.7787,7.7185,7.6883,7.6883,7.638,7.5978,7.5678,7.5126,7.4573,7.4021,7.3468,7.3016,0.0,0.0,0.0,7.1887,7.1636,7.1033,7.0275,6.9978,6.9702,6.9406,6.9406,6.9406,6.9406,6.9406,6.9205,6.8904,6.8603,6.8396,6.807,6.7518,6.7141,6.689,6.689,6.694,6.7066,6.7518,6.7493,6.7417,6.7668,6.7543,6.7292,6.7041,6.7009,6.6815,6.6237,6.6112,6.6112,6.6112,6.6112,6.6112,6.6112,6.6112,6.6011,6.571,6.5183,6.463,6.4103,6.355,6.3124,6.2807,6.1639,6.1474,6.27,6.2781,6.2781,6.2781,6.2781,6.2781,6.2781,6.2781,6.2631,6.2395,6.2395,6.0924,5.8265,5.6931,5.4496,2.8555,3.0608,3.2738,3.2311,3.2014,3.1612,3.0708,3.0256,2.988,0.0,0.0,3.1587,3.1838,3.4276,0.0,0.0,0.0,0.0,0.0,0.0,0.0,0.0,0.0,0.0,0.0,0.0,0.0,0.0,0.0,7.8992,7.8415,7.8314,7.7837,7.6908,7.6783,7.6707,7.6632,7.6305,7.5778,7.5177,7.4674,7.4121,7.3569,7.2991,7.2693,0.0,0.0,0.0,7.1736,7.1184,7.0677,7.0079,6.9582,6.9406,6.9406,6.9406,6.9406,6.9406,6.9406,6.9406,6.9406,6.9406,6.9029,6.8522,6.797,6.7794,6.7794,6.7794,6.7518,6.7518,6.8804,6.8528,6.8045,6.8497,6.8271,6.7769,6.7216,6.7091,6.694,6.6363,6.6162,6.6137,6.6237,6.6162,6.6112,6.6112,6.6112,6.6112,6.6112,6.5634,6.5107,6.4672,6.4053,6.35,6.2957,6.2832,6.2781,6.2781,6.2781,6.2781,6.2781,6.2781,6.2781,6.2781,6.2781,6.2781,6.2781,6.2781,6.1581,5.9312,5.8956,5.6452,2.9986,3.0934,3.1105,2.8768,2.9195,3.0131,2.9955,3.0557,3.0984,3.0437,0.0,0.0,0.0,3.8793,0.0,0.0,0.0,0.0,0.0,0.0,0.0,0.0,0.0,0.0,0.0,0.0,0.0,0.0,0.0,0.0,7.7862,7.7385,7.7059,7.6883,7.6481,7.5954,7.5453,7.5879,7.5778,7.5177,7.4674,7.4121,7.3569,7.2991,7.2693,0.0,0.0,7.1711,7.1158,7.0652,7.0054,6.9506,6.9431,6.9406,6.9406,6.9406,6.9406,6.9406,6.9406,6.9406,6.9406,6.9406,6.9029,6.8522,6.797,6.7794,6.7794,6.7794,6.807,6.8321,6.8095,6.8271,6.8522,6.8553,6.8547,6.8346,6.7794,6.7668,6.7518,6.6965,6.6438,6.6262,6.6764,6.6438,6.6112,6.6112,6.6112,6.6112,6.6112,6.5634,6.5258,6.5183,6.4279,6.3651,6.3576,6.3057,6.2781,6.2781,6.2781,6.2781,6.2781,6.2781,6.2781,6.2781,6.2781,6.2781,6.2781,6.2781,6.2568,6.2141,6.0115,5.8803,2.9955,3.0357,3.0809,3.1938,3.2792,3.3219,3.2591,3.2842,3.3119,0.0,0.0,0.0,0.0,0.0,0.0,0.0,0.0,0.0,0.0,0.0,0.0,0.0,0.0,0.0,0.0,0.0,0.0,0.0,0.0,0.0,7.731,7.7009,7.6782,7.6481,7.623,7.5804,7.5202,7.5502,7.5176,7.4347,7.4096,7.3669,7.3117,7.2539,7.2288,7.2263,0.0,7.1158,7.0677,7.0727,7.038,6.9878,6.9878,6.9878,6.9853,6.9506,6.9406,6.9406,6.9406,6.9406,6.9406,6.9406,6.923,6.8854,6.8045,6.8221,6.8528,6.797,6.8196,6.8622,6.8628,6.8829,6.9029,6.9029,6.9029,6.8879,6.8371,6.8246,6.807,6.7518,6.6965,6.6664,6.694,6.6488,6.6112,6.6112,6.6112,6.6112,6.6112,6.5886,6.5609,6.5333,6.458,6.4002,6.3726,6.3174,6.2781,6.2781,6.2781,6.2781,6.2781,6.2781,6.2781,6.2781,6.2781,6.2781,6.2781,6.2781,6.2781,6.2781,6.168,6.0487,3.0105,3.0357,3.1311,3.5205,3.6183,3.6359,3.7062,3.7011,3.6986,0.0,0.0,0.0,0.0,0.0,0.0,0.0,0.0,0.0,0.0,0.0,0.0,0.0,0.0,0.0,0.0,0.0,0.0,0.0,0.0,0.0,7.6733,7.6557,7.6306,7.5879,7.5777,7.5402,7.4801,7.4801,7.4423,7.3594,7.3594,7.3293,7.2668,7.2163,7.1912,7.1861,7.1184,7.0778,7.0501,7.0631,7.0531,7.03,7.0149,7.0079,7.0003,6.9556,6.9406,6.9381,6.9255,6.928,6.9381,6.9255,6.9205,6.9029,6.8095,6.8396,6.8829,6.8045,6.8196,6.8703,6.9255,6.9406,6.9406,6.9406,6.9406,6.9255,6.8748,6.8578,6.8497,6.807,6.7442,6.7059,6.7141,6.6589,6.6112,6.6112,6.6112,6.6112,6.6112,6.6112,6.5936,6.5534,6.5024,6.4446,6.3751,6.3299,6.2932,6.2807,6.2781,6.2781,6.2781,6.2781,6.2781,6.2781,6.2781,6.2781,6.2781,6.2781,6.2781,6.2781,6.2781,6.187,3.1441,3.2039,3.2595,3.4956,3.5558,3.7187,4.3313,4.389,4.374,4.5769,0.0,0.0,0.0,0.0,0.0,0.0,0.0,0.0,0.0,0.0,0.0,0.0,0.0,0.0,0.0,0.0,0.0,0.0,0.0,0.0,7.6205,7.5628,7.5278,7.5252,7.4799,7.4272,7.372,7.372,7.3669,7.3594,7.3594,7.3293,7.2668,7.2163,7.1912,7.1836,7.0828,7.0627,7.0958,6.9908,6.9828,7.025,6.9702,6.9456,6.9456,6.9406,6.9406,6.9331,6.8804,6.8979,6.9306,6.8804,6.8673,6.8528,6.797,6.7844,6.7894,6.7819,6.8196,6.8703,6.9255,6.9406,6.9406,6.9406,6.9406,6.9255,6.8748,6.8578,6.8578,6.8528,6.7693,6.7141,6.7643,6.684,6.6112,6.6112,6.6112,6.6112,6.6112,6.6112,6.6086,6.6061,6.5559,6.4806,6.3776,6.3651,6.34,6.2832,6.2781,6.2781,6.2781,6.2781,6.2781,6.2781,6.2781,6.2781,6.2781,6.2781,6.2781,6.2781,6.2781,6.27,3.1792,3.3721,3.6157,3.9772,4.0901,4.1829,4.4338,4.6476,4.8636,5.1222,5.2176,0.0,0.0,0.0,0.0,0.0,0.0,0.0,0.0,0.0,0.0,0.0,0.0,0.0,0.0,0.0,0.0,0.0,0.0,0.0,0.0,7.5527,7.5202,7.5202,7.465,7.4146,7.3594,7.3594,7.3242,7.2539,7.2539,7.2414,7.2188,7.1284,7.0928,7.0832,7.0079,6.9878,7.0054,6.9978,7.0079,7.03,7.0029,6.9752,6.9406,6.9406,6.9406,6.9306,6.8779,6.8703,6.8804,6.8296,6.8346,6.8447,6.7568,6.7769,6.817,6.7467,6.7693,6.8321,6.9155,6.9406,6.9406,6.9406,6.9406,6.9331,6.913,6.908,6.908,6.908,6.8522,6.807,6.8271,6.7668,6.7041,6.6689,6.6639,6.6513,6.6162,6.6112,6.6112,6.6112,6.5308,6.4479,6.3751,6.3375,6.3007,6.2807,6.2781,6.2781,6.2781,6.2781,6.2781,6.2781,6.2781,6.2781,6.2781,6.2781,6.2781,6.2781,6.2781,6.2781,3.1391,3.3746,3.6808,4.0526,4.3589,4.6175,4.8077,5.0436,5.3281,5.6984,5.8278,0.0,0.0,0.0,0.0,0.0,0.0,0.0,0.0,0.0,0.0,0.0,0.0,0.0,0.0,0.0,0.0,0.0,0.0,0.0,0.0,7.5101,7.46,7.4399,7.392,7.3368,7.2816,7.2791,7.2414,7.1636,7.146,7.1485,7.161,7.0727,7.03,7.0275,6.9677,6.9506,6.9727,6.9928,6.9903,6.9752,6.9928,6.9677,6.9155,6.9331,6.928,6.9055,6.8503,6.8371,6.8296,6.7919,6.7945,6.7995,6.7417,6.7518,6.7719,6.7141,6.7241,6.7794,6.8854,6.913,6.918,6.9356,6.9406,6.9406,6.9406,6.9406,6.9406,6.9406,6.8804,6.8422,6.8597,6.7869,6.7191,6.7015,6.6815,6.6564,6.6162,6.6112,6.6112,6.6112,6.5434,6.4781,6.4228,6.3827,6.345,6.3124,6.3057,6.3023,6.2807,6.2781,6.2781,6.2781,6.2781,6.2781,6.2781,6.2998,6.3057,6.3099,6.3274,6.3249,3.0337,3.1888,3.3718,3.5977,4.2338,4.9647,5.5655,5.6671,5.7863,6.3457,6.5426,6.6619,0.0,0.0,0.0,0.0,0.0,0.0,0.0,0.0,0.0,0.0,0.0,0.0,0.0,0.0,0.0,0.0,0.0,0.0,0.0,7.4171,7.3318,7.2693,7.2188,7.1636,7.1083,7.1083,7.1083,7.1058,7.0551,7.0577,7.1058,7.0551,7.03,7.0275,6.9677,6.9752,7.025,6.9607,6.908,6.8673,6.918,6.9055,6.8653,6.918,6.9029,6.8547,6.7995,6.7794,6.7794,6.7794,6.7417,6.7109,6.7618,6.7015,6.6237,6.6815,6.7009,6.7216,6.8321,6.8578,6.8703,6.9255,6.9406,6.9406,6.9406,6.9406,6.9406,6.9381,6.8503,6.797,6.8522,6.7241,6.6312,6.689,6.6488,6.6112,6.6112,6.6112,6.6112,6.6112,6.6112,6.5886,6.5333,6.5283,6.4831,6.3776,6.3701,6.345,6.2807,6.2781,6.2781,6.2781,6.2807,6.2807,6.2807,6.3425,6.3701,6.3701,6.427,6.422,3.3498,3.6985,0.0,4.384,4.8617,0.0,0.0,6.1773,6.4638,0.0,7.0352,7.0061,0.0,0.0,0.0,0.0,0.0,0.0,0.0,0.0,0.0,0.0,0.0,0.0,0.0,0.0,0.0,0.0,0.0,0.0,0.0,7.3393,7.274,7.2163,7.161,7.1259,7.1083,7.0752,7.0305,6.9883,6.9376,6.9602,7.0526,6.9928,6.9702,6.9677,6.9481,6.928,6.91,6.8879,6.8954,6.913,6.8904,6.8954,6.908,6.8477,6.8422,6.8497,6.7543,6.7216,6.7166,6.6739,6.6789,6.694,6.6689,6.6664,6.6664,6.6438,6.6363,6.6538,6.7267,6.7744,6.8271,6.918,6.9406,6.9406,6.9406,6.9406,6.928,6.8904,6.8553,6.8296,6.807,6.7618,6.7216,6.7015,6.684,6.6564,6.6162,6.6112,6.6112,6.6112,6.576,6.5459,6.5308,6.4931,6.4622,6.4295,6.427,6.3802,6.2832,6.2781,6.2781,6.2781,6.3224,6.3425,6.3425,6.3977,6.427,6.4295,6.4446,6.422,3.4879,3.9019,0.0,4.7682,5.3487,6.0231,6.74,0.0,0.0,0.0,0.0,0.0,0.0,0.0,0.0,0.0,0.0,0.0,0.0,0.0,0.0,0.0,0.0,0.0,0.0,0.0,0.0,0.0,0.0,0.0,0.0,7.2489,7.1836,7.1259,7.0732,7.033,7.0104,6.9551,6.9125,6.8753,6.8447,6.8648,6.9275,6.8949,6.8753,6.8753,6.8753,6.8553,6.8296,6.8296,6.8371,6.8447,6.8346,6.8371,6.8396,6.797,6.7869,6.7869,6.7216,6.6815,6.6614,6.6488,6.6538,6.6614,6.6488,6.6538,6.6564,6.6212,6.6112,6.6237,6.6815,6.7216,6.7744,6.8804,6.923,6.9406,6.9406,6.9406,6.923,6.8678,6.8447,6.8196,6.7869,6.7417,6.7091,6.699,6.6789,6.6513,6.6162,6.6112,6.6112,6.6112,6.581,6.5609,6.5609,6.5308,6.5032,6.4848,6.4848,6.4404,6.3525,6.3475,6.3375,6.3174,6.3726,6.4002,6.4002,6.4572,6.4848,6.4848,6.5032,6.4705,3.5481,3.932,0.0,4.9188,5.7865,0.0,0.0,0.0,0.0,0.0,0.0,0.0,0.0,0.0,0.0,0.0,0.0,0.0,0.0,0.0,0.0,0.0,0.0,0.0,0.0,0.0,0.0,0.0,0.0,0.0,0.0,7.151,7.0681,7.0175,6.9577,6.9004,6.8547,6.7995,6.7719,6.7719,6.7668,6.7643,6.7643,6.7744,6.7794,6.7794,6.7744,6.7744,6.7794,6.7744,6.7467,6.7091,6.7543,6.7442,6.7091,6.7493,6.7367,6.7009,6.6959,6.6564,6.6187,6.6714,6.6538,6.6212,6.6739,6.6538,6.6112,6.6112,6.6112,6.6237,6.6764,6.6984,6.7241,6.8246,6.8854,6.9255,6.9306,6.928,6.9105,6.8603,6.8095,6.7719,6.7643,6.6789,6.6287,6.6815,6.6438,6.6112,6.6112,6.6112,6.6112,6.6112,6.6112,6.6112,6.6112,6.6112,6.5886,6.5383,6.5358,6.5107,6.4597,6.4547,6.4295,6.3776,6.432,6.4572,6.4572,6.5082,6.5358,6.5383,6.5886,6.5534,3.9798,4.3338,0.0,0.0,6.5278,7.4126,7.8175,0.0,0.0,0.0,0.0,0.0,0.0,0.0,0.0,0.0,0.0,0.0,0.0,0.0,0.0,0.0,0.0,0.0,0.0,0.0,0.0,0.0,0.0,0.0,7.0857,7.0154,6.9506,6.8999,6.8447,6.8095,6.797,6.7417,6.7166,0.0,6.6689,6.6488,6.6513,6.7392,6.7794,6.7769,6.7342,6.7392,6.7769,6.7342,6.7342,6.7593,6.7267,6.7342,6.7518,6.6764,6.6689,6.6915,6.6463,6.6212,6.6137,6.6262,6.6212,6.6137,6.6262,6.6212,6.6112,6.6112,6.6112,6.6137,6.6262,6.6639,6.7084,6.7267,6.7744,6.8271,6.8653,6.8447,6.812,6.7995,6.7518,6.7015,6.6564,6.6262,6.6162,6.6287,6.6187,6.6112,6.6112,6.6112,6.6112,6.6112,6.6112,6.6112,6.6112,6.6112,6.6061,6.5936,6.5936,6.5685,6.5132,6.4748,6.4446,6.4346,6.4831,6.5107,6.5107,6.566,6.5936,6.5936,6.6061,6.5534,4.1708,4.6933,0.0,6.6623,0.0,7.8854,8.2034,8.3969,0.0,0.0,0.0,0.0,0.0,0.0,0.0,0.0,0.0,0.0,0.0,0.0,0.0,0.0,0.0,0.0,0.0,0.0,0.0,0.0,0.0,7.061,6.9526,6.8949,6.8522,6.8246,6.7693,6.7417,6.7417,6.684,6.6564,6.6564,6.6262,6.6112,6.6137,6.6714,6.699,6.6965,6.6689,6.6739,6.6965,6.6689,6.6739,6.6965,6.6689,6.6739,6.6915,6.6338,6.6312,6.6513,6.6212,6.6112,6.6112,6.6112,6.6112,6.6112,6.6112,6.6112,6.6112,6.6112,6.6112,6.6112,6.6112,6.6338,6.6564,6.6564,6.7191,6.7869,6.817,6.7995,6.7794,6.7794,6.7367,6.689,6.6589,6.6287,6.6112,6.6112,6.6112,6.6112,6.6112,6.6112,6.6112,6.6112,6.6112,6.6112,6.6112,6.6112,6.6112,6.6112,6.6112,6.5986,6.5685,6.5409,6.5132,6.4923,6.5409,6.5685,6.5685,6.5961,6.6112,6.6112,6.6112,6.566,4.1731,4.9811,6.0478,7.6283,8.077,0.0,8.611,8.7308,8.764,0.0,0.0,0.0,0.0,0.0,0.0,0.0,0.0,0.0,0.0,0.0,0.0,0.0,0.0,0.0,0.0,0.0,0.0,0.0,0.0,6.9004,6.8497,6.7945,6.7618,6.7518,6.6965,6.6639,6.6582,6.6061,6.5835,6.5835,6.5835,6.5835,6.5835,6.5835,6.5936,6.6112,6.6112,6.6112,6.6112,6.6112,6.6112,6.6112,6.6112,6.6112,6.6112,6.6112,6.6112,6.6112,6.6112,6.6112,6.6112,6.6112,6.6112,6.6112,6.6112,6.6112,6.6112,6.6112,6.6112,6.6112,6.6112,6.6112,6.6112,6.6112,6.684,6.7543,6.7643,6.7593,6.7543,6.7643,6.7216,6.6815,6.6815,6.6438,6.6112,6.6112,6.6112,6.6112,6.6112,6.6112,6.6112,6.6112,6.6112,6.6112,6.6112,6.6112,6.6112,6.6112,6.6112,6.6112,6.6112,6.6112,6.5886,6.5434,6.5886,6.6112,6.6112,6.6112,6.6112,6.6112,6.6112,6.581,3.942,5.121,6.4395,0.0,8.0602,8.4303,0.0,0.0,9.0151,0.0,0.0,0.0,0.0,0.0,0.0,0.0,0.0,0.0,0.0,0.0,0.0,0.0,0.0,0.0,0.0,0.0,0.0,0.0,6.908,6.8497,6.7945,6.7392,6.6865,6.6363,6.581,6.5283,6.4848,6.4773,6.4722,6.4722,6.4722,6.4722,6.4722,6.4722,6.5208,6.6112,6.6112,6.6112,6.6112,6.6112,6.6112,6.6112,6.6112,6.6112,6.6112,6.6112,6.6112,6.6112,6.6112,6.6112,6.6112,6.6112,6.6112,6.6112,6.6112,6.6112,6.6112,6.6112,6.6112,6.6112,6.6112,6.6112,6.6112,6.6112,6.6237,6.6488,6.6965,6.6689,6.6488,6.699,6.6614,6.6237,6.6237,6.6162,6.6112,6.6112,6.6112,6.6112,6.6112,6.6112,6.6112,6.6112,6.6112,6.6112,6.6112,6.6112,6.6112,6.6112,6.6112,6.6112,6.6112,6.6112,6.6086,6.6011,6.6061,6.6112,6.6112,6.6112,6.6112,6.6112,6.6112,6.581,4.5554,5.5897,6.6186,7.654,8.0778,8.3062,8.5349,8.6708,8.7485,8.7485,8.8576,0.0,0.0,0.0,0.0,0.0,0.0,0.0,0.0,0.0,0.0,0.0,0.0,0.0,0.0,0.0,0.0,0.0,6.802,6.7442,6.689,6.6614,6.6237,6.566,6.5409,6.5032,6.4521,6.4496,6.4496,6.4496,6.4496,6.4496,6.4496,6.4496,6.4773,6.5183,6.5183,6.5358,6.566,6.566,6.5835,6.6112,6.6112,6.6112,6.6112,6.6112,6.6112,6.6112,6.6112,6.6112,6.6112,6.6112,6.6112,6.6112,6.6112,6.6112,6.6112,6.6112,6.6112,6.6112,6.6112,6.6112,6.6112,6.6112,6.6112,6.6187,6.6438,6.6287,6.6187,6.6438,6.6789,6.6865,6.6212,6.6388,6.6488,6.6162,6.6112,6.6112,6.6112,6.6112,6.6112,6.6112,6.6112,6.6112,6.6112,6.6112,6.6112,6.6112,6.6112,6.6112,6.6112,6.6112,6.6112,6.6112,6.6112,6.6112,6.6112,6.6112,6.6112,6.6112,6.6112,6.5986,4.8904,5.6848,6.4183,7.5459,7.9413,8.131,0.0,0.0,8.5733,0.0,8.7281,8.8544,0.0,0.0,0.0,0.0,0.0,0.0,0.0,0.0,0.0,0.0,0.0,0.0,0.0,0.0,0.0,0.0,6.6815,6.6212,6.5911,6.576,6.5434,6.4906,6.4881,6.463,6.4053,6.4053,6.4053,6.4053,6.4053,6.4053,6.4053,6.4053,6.4053,6.4078,6.4396,6.4748,6.5082,6.5082,6.5333,6.5685,6.5685,6.5685,6.5685,6.5685,6.5785,6.5886,6.5735,6.5886,6.6086,6.5936,6.5986,6.6112,6.6112,6.6112,6.6112,6.6112,6.6112,6.6112,6.6112,6.6112,6.6112,6.6112,6.6112,6.6112,6.6112,6.6112,6.6112,6.6112,6.6789,6.7091,6.6262,6.6463,6.6614,6.6187,6.6112,6.6112,6.6112,6.6112,6.6112,6.6112,6.6112,6.6112,6.6112,6.6112,6.6112,6.6112,6.6112,6.6112,6.6112,6.6112,6.6112,6.6112,6.6112,6.6112,6.6112,6.6112,6.6112,6.6112,6.6112,6.6112,4.4097,4.9923,5.628,6.8375,7.5219,8.0108,0.0,0.0,8.7754,8.8381,8.8104,8.7556,8.6998,0.0,0.0,0.0,0.0,0.0,0.0,0.0,0.0,0.0,0.0,0.0,0.0,0.0,0.0,0.0,6.5552,6.4848,6.5308,6.4873,6.4371,6.3802,6.3776,6.35,6.2882,6.2882,6.2882,6.2882,6.2882,6.2882,6.2882,6.2882,6.2882,6.2932,6.4028,6.4521,6.4547,6.4547,6.4572,6.4597,6.4597,6.4597,6.4597,6.4597,6.4923,6.5258,6.4773,6.5233,6.6036,6.5509,6.5685,6.6112,6.6112,6.6112,6.6112,6.6112,6.6112,6.6112,6.6112,6.6112,6.6112,6.6112,6.6112,6.6112,6.6112,6.6112,6.6112,6.6112,6.6162,6.6187,6.6112,6.6137,6.6137,6.6112,6.6112,6.6112,6.6112,6.6112,6.6112,6.6112,6.6112,6.6112,6.6112,6.6112,6.6112,6.6112,6.6112,6.6112,6.6112,6.6112,6.6112,6.6112,6.6112,6.6112,6.6112,6.6112,6.6112,6.6112,6.6112,6.6112,4.1625,4.6283,5.1524,6.1992,6.8256,7.2834,7.6634,8.0165,8.2828,8.3487,8.4115,8.4594,8.4743,8.5671,0.0,0.0,0.0,0.0,0.0,0.0,0.0,0.0,0.0,0.0,0.0,0.0,0.0,0.0,0.0,6.4597,6.4798,6.4622,6.427,6.3701,6.3701,6.3425,6.2807,6.2781,6.2781,6.2781,6.2781,6.2781,6.2781,6.2781,6.2781,6.2807,6.3249,6.3626,6.3977,6.3977,6.422,6.4496,6.4496,6.4496,6.4496,6.4496,6.4848,6.5258,6.5057,6.5484,6.6011,6.5459,6.566,6.6036,6.5685,6.5835,6.6112,6.6112,6.6112,6.6112,6.6112,6.6112,6.6112,6.6112,6.6112,6.6112,6.6112,6.6112,6.6112,6.6112,6.6413,6.6538,6.6187,6.6413,6.6538,6.6162,6.6112,6.6112,6.6112,6.6112,6.6112,6.6112,6.6112,6.6112,6.6112,6.6112,6.6112,6.6112,6.6112,6.6112,6.6112,6.6112,6.6112,6.6112,6.6112,6.6112,6.6112,6.6112,6.6112,6.6112,6.6112,6.6112,3.8347,4.2342,4.7181,5.6287,6.1506,6.5742,7.1038,7.4446,7.7108,7.9331,8.0489,8.151,8.2834,8.3606,8.3413,0.0,0.0,0.0,0.0,0.0,0.0,0.0,0.0,0.0,0.0,0.0,0.0,0.0,0.0,0.0,6.4245,6.4028,6.3751,6.3425,6.34,6.3224,6.2781,6.2781,6.2781,6.2781,6.2781,6.2781,6.2781,6.2781,6.2781,6.2781,6.2781,6.3048,6.34,6.34,6.3601,6.3927,6.3927,6.3927,6.3927,6.3927,6.4279,6.4731,6.453,6.4931,6.5459,6.4931,6.5233,6.576,6.5409,6.5685,6.6112,6.6112,6.6112,6.6112,6.6112,6.6112,6.6061,6.5886,6.5986,6.6061,6.5886,6.5986,6.6112,6.6112,6.6413,6.6614,6.6438,6.6564,6.6614,6.6438,6.6237,6.6112,6.6112,6.6112,6.6112,6.6112,6.6112,6.6112,6.6112,6.6112,6.6112,6.6112,6.6112,6.6112,6.6112,6.6112,6.6112,6.6112,6.6112,6.6112,6.6112,6.6112,6.6112,6.6112,6.6112,6.6112,0.0,0.0,0.0,0.0,5.5056,5.9192,6.8345,0.0,7.1063,7.6455,7.757,7.8385,8.1183,8.1123,8.1093,8.2417,0.0,0.0,0.0,0.0,0.0,0.0,0.0,0.0,0.0,0.0,0.0,0.0,6.3425,6.3073,6.3626,6.3124,6.2781,6.2781,6.2781,6.2781,6.2781,6.2781,6.2781,6.2781,6.2781,6.2781,6.2781,6.2781,6.2781,6.2781,6.2781,6.2781,6.2781,6.2781,6.2781,6.2781,6.2781,6.2781,6.2781,6.2781,6.3199,6.3626,6.3007,6.355,6.4421,6.3852,6.4404,6.5258,6.5258,6.5634,6.6061,6.6061,6.6061,6.6061,6.6086,6.6086,6.5961,6.5409,6.5685,6.5911,6.5409,6.571,6.6086,6.6112,6.6112,6.6287,6.6865,6.6488,6.6312,6.6908,6.6488,6.6112,6.6112,6.6112,6.6112,6.6112,6.6112,6.6112,6.6112,6.6112,6.6112,6.6112,6.6112,6.6112,6.6112,6.6112,6.6112,6.6112,6.6112,6.6112,6.6112,6.6112,6.6112,6.6112,6.6112,6.6112,3.6175,0.0,0.0,0.0,0.0,0.0,0.0,0.0,6.2943,7.115,7.2075,7.2972,7.7963,7.837,7.8041,7.84,7.8853,7.8871,0.0,0.0,0.0,0.0,0.0,0.0,0.0,0.0,0.0,0.0,6.2957,6.2857,6.3007,6.2882,6.2781,6.2781,6.2781,6.2781,6.2781,6.2781,6.2781,6.2781,6.2781,6.2781,6.2781,6.2781,6.2781,6.2781,6.2781,6.2781,6.2781,6.2781,6.2781,6.2781,6.2781,6.2781,6.2781,6.2781,6.3199,6.3676,6.35,6.3902,6.4421,6.3852,6.4153,6.4672,6.4254,6.4505,6.4931,6.4931,6.4931,6.5007,6.5409,6.5509,6.5484,6.5333,6.5107,6.4982,6.5233,6.5409,6.5634,6.6036,6.6112,6.6162,6.6312,6.6212,6.6162,6.6338,6.6212,6.6112,6.6112,6.6112,6.6112,6.6112,6.6112,6.6112,6.6112,6.6112,6.6112,6.6112,6.6112,6.6112,6.6112,6.6112,6.6112,6.6112,6.6112,6.6112,6.6112,6.6112,6.6112,6.6112,6.6112,6.6112,0.0,0.0,0.0,0.0,0.0,0.0,5.2067,5.3592,5.6346,0.0,6.6174,6.7075,7.3059,7.3373,7.3163,7.454,7.5976,7.7053,7.7352,0.0,0.0,0.0,0.0,0.0,0.0,6.4958,6.3706,6.2863,6.2781,6.2781,6.2781,6.2781,6.2781,6.2781,6.2781,6.2781,6.2781,6.2781,6.2781,6.2781,6.2781,6.2781,6.2781,6.2781,6.2781,6.2781,6.2781,6.2781,6.2781,6.2781,6.2781,6.2781,6.2781,6.2781,6.2781,6.2781,6.3007,6.3324,6.3324,6.3525,6.3726,6.3425,6.3701,6.4119,6.3776,6.4053,6.4496,6.4496,6.4496,6.4572,6.4898,6.4999,6.4881,6.468,6.453,6.4597,6.4923,6.5132,6.5459,6.6011,6.6112,6.6187,6.6438,6.6287,6.6187,6.6438,6.6262,6.6112,6.6112,6.6112,6.6112,6.6112,6.6112,6.6112,6.6112,6.6112,6.6112,6.6112,6.6112,6.6112,6.6112,6.6112,6.6112,6.6112,6.6112,6.6112,6.6112,6.6112,6.6112,6.6112,6.6112,6.6112,0.0,0.0,0.0,0.0,0.0,0.0,4.9942,5.0053,5.1177,0.0,6.0208,6.1074,6.7108,6.7328,6.7478,7.032,7.1787,7.3518,7.63,7.6483,0.0,0.0,0.0,0.0,6.6183,6.5608,6.4685,6.2844,6.2631,6.2656,6.2781,6.2731,6.2731,6.2781,6.2731,6.2731,6.2781,6.2731,6.2829,6.3123,6.2904,6.2904,6.3123,6.2904,6.2781,6.2781,6.2781,6.2781,6.2781,6.2781,6.2781,6.2781,6.2781,6.2781,6.2781,6.2781,6.2781,6.2781,6.2781,6.2781,6.2781,6.2781,6.3174,6.3601,6.3601,6.3927,6.432,6.432,6.4371,6.4421,6.4421,6.4421,6.4295,6.3802,6.4002,6.4371,6.4471,6.4856,6.5383,6.5986,6.6112,6.6287,6.6789,6.6463,6.6287,6.6815,6.6438,6.6112,6.6112,6.6112,6.6112,6.6112,6.6112,6.6112,6.6112,6.6112,6.6112,6.6112,6.6112,6.6112,6.6112,6.6112,6.6112,6.6112,6.6112,6.6112,6.6112,6.6112,6.6112,6.6112,6.6112,6.6112,0.0,0.0,0.0,0.0,0.0,0.0,4.6202,4.6342,4.8052,0.0,5.5466,5.6347,6.2333,6.3647,6.3916,6.3977,6.7657,7.1784,7.5557,7.4645,7.3212,7.2187,0.0,0.0,6.5883,6.4338,6.3043,6.2195,6.1768,6.1893,6.2731,6.2395,6.237,6.2781,6.2395,6.237,6.2781,6.2395,6.3167,6.5201,6.3584,6.3665,6.5161,6.3544,6.2781,6.2781,6.2781,6.2781,6.2781,6.2781,6.2781,6.2781,6.2781,6.2781,6.2781,6.2781,6.2781,6.2781,6.2781,6.2781,6.2781,6.2781,6.2857,6.2957,6.2957,6.3073,6.3149,6.3149,6.3475,6.3852,6.3852,6.3852,6.3827,6.3726,6.3425,6.34,6.432,6.4597,6.4931,6.5911,6.6112,6.6137,6.6262,6.6187,6.6137,6.6262,6.6187,6.6112,6.6112,6.6112,6.6112,6.6112,6.6112,6.6112,6.6112,6.6112,6.6112,6.6112,6.6112,6.6112,6.6112,6.6112,6.6112,6.6112,6.6112,6.6112,6.6112,6.6112,6.6112,6.6112,6.6112,6.6112,0.0,0.0,0.0,4.3648,0.0,0.0,0.0,4.4547,4.5535,5.1498,5.0601,5.0391,5.5688,5.6137,5.6492,5.8797,6.1613,6.5024,6.9363,7.1909,7.2865,7.1566,6.8448,0.0,6.4973,6.3117,6.1893,6.1617,6.1341,6.1416,6.1969,6.1743,6.2172,6.333,6.2212,6.2172,6.3395,6.3151,6.3804,6.5421,6.5382,6.5475,6.5765,6.4751,6.372,6.2781,6.2781,6.2781,6.2781,6.2781,6.2781,6.2781,6.2781,6.2781,6.2781,6.2781,6.2781,6.2781,6.2781,6.2781,6.2781,6.2781,6.2781,6.2781,6.2781,6.2781,6.2781,6.2781,6.3048,6.3249,6.3249,6.3249,6.3249,6.3249,6.3048,6.3124,6.427,6.4496,6.4848,6.5886,6.6112,6.6112,6.6112,6.6112,6.6112,6.6112,6.6112,6.6112,6.6112,6.6112,6.6112,6.6112,6.6112,6.6112,6.6112,6.6112,6.6112,6.6112,6.6112,6.6112,6.6112,6.6112,6.6112,6.6112,6.6112,6.6112,6.6112,6.5835,6.5835,6.6112,6.5835,6.5835,0.0,0.0,0.0,0.0,0.0,4.4038,0.0,0.0,0.0,4.7673,4.6203,0.0,0.0,0.0,0.0,0.0,0.0,0.0,0.0,6.7204,0.0,6.9171,6.6439,6.4309,6.3351,6.1633,6.0738,6.114,6.0688,6.0809,6.1669,6.1303,6.1961,6.3937,6.2444,6.217,6.3464,6.4072,6.4592,6.5011,6.6455,6.6666,6.5765,6.5267,6.4235,6.2781,6.2781,6.2731,6.2631,6.2756,6.2731,6.2631,6.2756,6.2781,6.2781,6.2781,6.2781,6.2781,6.2781,6.2781,6.2781,6.2781,6.2781,6.2781,6.2781,6.2781,6.2781,6.2781,6.2781,6.2781,6.2781,6.2781,6.2781,6.2781,6.2781,6.3057,6.4103,6.4371,6.463,6.5735,6.586,6.586,6.6086,6.6112,6.6112,6.6112,6.6112,6.6112,6.6112,6.6112,6.6112,6.6112,6.6112,6.6112,6.6112,6.6112,6.6112,6.6112,6.6112,6.6112,6.6112,6.6112,6.6112,6.6112,6.6112,6.6112,6.6112,6.5559,6.5509,6.5936,6.5484,6.5534,0.0,0.0,0.0,0.0,4.7766,0.0,0.0,0.0,4.5114,4.2415,0.0,0.0,0.0,0.0,0.0,0.0,0.0,0.0,5.3632,5.8183,6.1788,6.2112,5.8734,5.7456,6.0279,5.918,5.9081,6.104,5.8905,5.9286,6.3461,6.1618,6.1489,6.3911,6.3323,6.2508,6.1537,6.4402,6.5593,6.5011,6.4598,6.4903,6.5699,6.345,6.2548,6.2781,6.2781,6.2546,6.2144,6.2581,6.2505,6.2144,6.2606,6.2781,6.2781,6.2781,6.2781,6.2781,6.2781,6.2781,6.2781,6.2781,6.2781,6.2781,6.2781,6.2781,6.2781,6.2781,6.2781,6.2781,6.2781,6.2781,6.2781,6.2781,6.2781,6.2957,6.3651,6.3776,6.4103,6.5183,6.5024,6.4957,6.5936,6.6112,6.6112,6.6112,6.6112,6.6112,6.6112,6.6112,6.6112,6.6112,6.6112,6.6112,6.6112,6.6112,6.6112,6.6112,6.6112,6.6112,6.6112,6.6112,6.6112,6.6112,6.6112,6.6112,6.6112,6.5559,6.5333,6.5383,6.5333,6.5333,0.0,0.0,0.0,0.0,0.0,0.0,0.0,0.0,4.3615,0.0,0.0,0.0,0.0,0.0,0.0,0.0,4.5689,0.0,0.0,0.0,5.1555,0.0,0.0,0.0,5.5322,5.4293,5.4461,0.0,5.5767,5.6103,5.8426,5.906,6.0355,6.2486,6.1589,6.1313,6.1889,6.4326,6.5063,6.4084,6.6029,6.621,6.4841,6.374,6.2759,6.1868,6.1868,6.1743,6.1542,6.1768,6.1743,6.1592,6.2144,6.2546,6.2781,6.2781,6.2781,6.2781,6.2781,6.2781,6.2781,6.2781,6.2781,6.2781,6.2781,6.2781,6.2781,6.2781,6.2781,6.2781,6.2781,6.2781,6.2781,6.2781,6.2781,6.2998,6.3576,6.3701,6.3927,6.4722,6.4672,6.4647,6.5082,6.5434,6.5634,6.5634,6.5911,6.6112,6.6112,6.6112,6.6112,6.6112,6.6112,6.6112,6.6112,6.6112,6.6112,6.6112,6.6112,6.6112,6.6112,6.6112,6.6112,6.6112,6.6112,6.6112,6.6112,6.5559,6.5283,6.5283,6.5283,6.5283,5.2426,0.0,0.0,0.0,0.0,0.0,0.0,0.0,0.0,0.0,0.0,0.0,0.0,0.0,0.0,0.0,0.0,4.2401,0.0,4.1574,0.0,0.0,0.0,0.0,0.0,5.0142,5.0594,5.2653,0.0,5.2766,5.4821,5.6623,5.8709,6.1189,6.0627,6.0736,6.1617,6.3993,6.4292,6.2603,6.5771,6.592,6.3387,6.3231,6.2431,6.119,6.119,6.109,6.0964,6.1115,6.109,6.0989,6.1567,6.2119,6.2581,6.2731,6.2781,6.2781,6.2781,6.2781,6.2781,6.2781,6.2781,6.2781,6.2781,6.2781,6.2781,6.2781,6.2781,6.2781,6.2781,6.2781,6.2781,6.2781,6.2781,6.2907,6.3375,6.345,6.3626,6.4195,6.417,6.4078,6.427,6.4748,6.5107,6.5258,6.5634,6.5936,6.6086,6.6112,6.6112,6.6112,6.6112,6.6112,6.6112,6.6112,6.6112,6.6112,6.6112,6.6112,6.6112,6.6112,6.6112,6.6112,6.6112,6.6112,6.6112,6.571,6.5509,6.5509,6.5358,6.5208,0.0,0.0,0.0,5.3797,0.0,0.0,0.0,0.0,4.5518,0.0,0.0,0.0,0.0,0.0,0.0,0.0,0.0,0.0,0.0,0.0,0.0,0.0,0.0,0.0,0.0,4.7763,4.8743,0.0,4.8504,0.0,5.5478,5.5124,5.6586,6.0592,6.1743,6.1429,5.9599,6.3302,6.356,6.0429,6.1904,6.2166,6.1284,6.0666,6.0717,6.119,6.119,6.0864,6.0387,6.0939,6.0864,6.0412,6.0989,6.1542,6.2094,6.2581,6.2781,6.2781,6.2781,6.2781,6.2781,6.2781,6.2781,6.2781,6.2781,6.2781,6.2781,6.2781,6.2781,6.2781,6.2781,6.2781,6.2781,6.2781,6.2781,6.2807,6.2807,6.2807,6.3023,6.3601,6.3249,6.3007,6.3626,6.4195,6.4722,6.5208,6.5308,6.5509,6.6036,6.6112,6.6112,6.6112,6.6112,6.6112,6.6112,6.6112,6.6112,6.6112,6.6112,6.6112,6.6112,6.6112,6.6112,6.6112,6.6112,6.6112,6.6112,6.6086,6.6086,6.6061,6.5534,6.5007,0.0,0.0,6.1493,5.7992,0.0,0.0,0.0,0.0,0.0,0.0,0.0,0.0,0.0,0.0,0.0,0.0,0.0,0.0,0.0,3.48,3.5307,0.0,0.0,0.0,0.0,0.0,0.0,0.0,0.0,0.0,5.0275,5.2422,5.4779,5.7608,5.9166,5.9465,5.8453,6.1721,6.1973,5.9257,6.1389,6.1599,6.006,5.9859,5.9885,6.006,6.006,5.996,5.9784,5.9985,5.9935,5.9834,6.0387,6.0738,6.1014,6.1943,6.2521,6.2781,6.2781,6.2781,6.2781,6.2781,6.2781,6.2781,6.2781,6.2781,6.2781,6.2781,6.2781,6.2781,6.2781,6.2781,6.2781,6.2781,6.2781,6.2781,6.2781,6.2781,6.2857,6.3073,6.2932,6.2857,6.3099,6.3576,6.4128,6.4697,6.5057,6.5484,6.6036,6.6112,6.6112,6.6112,6.5785,6.5559,6.5559,6.5559,6.5735,6.6086,6.6112,6.6112,6.6112,6.6112,6.6112,6.6112,6.576,6.5559,6.5559,6.5208,6.5032,6.5032,6.4873,6.4697,6.281,6.4037,0.0,6.1824,5.9189,0.0,5.1535,0.0,0.0,0.0,0.0,0.0,0.0,0.0,0.0,0.0,0.0,0.0,0.0,3.2062,3.1989,0.0,0.0,0.0,0.0,0.0,0.0,0.0,0.0,0.0,0.0,4.9038,5.2192,5.5214,5.7111,5.8014,5.7901,6.0029,6.0484,5.9396,6.1413,6.1868,6.0843,6.0438,6.0098,5.9844,5.9211,5.893,5.8956,5.9131,5.9604,6.0176,6.0056,6.0666,6.1643,6.1922,6.2345,6.2781,6.2781,6.2781,6.2781,6.2781,6.2781,6.2781,6.2781,6.2781,6.2781,6.2781,6.2781,6.2781,6.2781,6.2781,6.2781,6.2781,6.2781,6.2781,6.2781,6.2781,6.2781,6.2781,6.2781,6.2781,6.2781,6.3149,6.3626,6.4396,6.4974,6.5409,6.5785,6.581,6.5735,6.5534,6.5208,6.5049,6.5049,6.5049,6.5233,6.5785,6.581,6.5911,6.6112,6.6112,6.6287,6.6714,6.5785,6.5484,6.5886,6.4974,6.4496,6.4496,6.432,6.4245]}]]